<?xml version='1.0' encoding='UTF-8'?><gpx version="1.1" creator="JPX - https://github.com/jenetics/jpx" xmlns="http://www.topografix.com/GPX/1/1"><trk><trkseg><trkpt lat="42.45199922420141" lon="12.703282802948694"><ele>860.0000000000001</ele><time>2026-04-19T08:16:33.999Z</time></trkpt><trkpt lat="42.452081713707315" lon="12.703405695425221"><ele>860.0</ele><time>2026-04-19T08:16:35.999Z</time></trkpt><trkpt lat="42.452140983079424" lon="12.703508081748097"><ele>860.0</ele><time>2026-04-19T08:16:37.999Z</time></trkpt><trkpt lat="42.45218991577224" lon="12.703605649279734"><ele>860.0</ele><time>2026-04-19T08:16:39.999Z</time></trkpt><trkpt lat="42.45221882404624" lon="12.703689053369697"><ele>860.0000000000001</ele><time>2026-04-19T08:16:41.999Z</time></trkpt><trkpt lat="42.45228948026205" lon="12.703725361193605"><ele>860.0</ele><time>2026-04-19T08:16:43.999Z</time></trkpt><trkpt lat="42.45235649494426" lon="12.703778219476815"><ele>861.0000000000001</ele><time>2026-04-19T08:16:45.999Z</time></trkpt><trkpt lat="42.45243165458283" lon="12.703842606991778"><ele>862.0</ele><time>2026-04-19T08:16:47.999Z</time></trkpt><trkpt lat="42.45251409474452" lon="12.703870395092649"><ele>863.0</ele><time>2026-04-19T08:16:49.999Z</time></trkpt><trkpt lat="42.45259358969812" lon="12.703874575667292"><ele>864.0</ele><time>2026-04-19T08:16:51.999Z</time></trkpt><trkpt lat="42.45267664797135" lon="12.70389956353656"><ele>865.0000000000001</ele><time>2026-04-19T08:16:53.999Z</time></trkpt><trkpt lat="42.452776110182135" lon="12.703894146763222"><ele>866.0</ele><time>2026-04-19T08:16:55.999Z</time></trkpt><trkpt lat="42.45282902519056" lon="12.703949689381192"><ele>866.0</ele><time>2026-04-19T08:16:56.999Z</time></trkpt><trkpt lat="42.45291501768632" lon="12.70394858501647"><ele>865.9999999999999</ele><time>2026-04-19T08:16:58.999Z</time></trkpt><trkpt lat="42.453024567052346" lon="12.703966636926323"><ele>865.9999999999999</ele><time>2026-04-19T08:17:00.999Z</time></trkpt><trkpt lat="42.45310996735781" lon="12.704015015029297"><ele>866.0</ele><time>2026-04-19T08:17:02.999Z</time></trkpt><trkpt lat="42.4532110920074" lon="12.704062838156172"><ele>866.0</ele><time>2026-04-19T08:17:04.999Z</time></trkpt><trkpt lat="42.453305274455204" lon="12.704093461115304"><ele>864.8</ele><time>2026-04-19T08:17:06.999Z</time></trkpt><trkpt lat="42.45339668023903" lon="12.704134747221962"><ele>863.5999999999999</ele><time>2026-04-19T08:17:08.999Z</time></trkpt><trkpt lat="42.45351424956097" lon="12.70415752566083"><ele>862.4</ele><time>2026-04-19T08:17:10.999Z</time></trkpt><trkpt lat="42.453582807591545" lon="12.704188087503665"><ele>861.2</ele><time>2026-04-19T08:17:11.999Z</time></trkpt><trkpt lat="42.45369627147867" lon="12.704201188470817"><ele>860.0</ele><time>2026-04-19T08:17:13.999Z</time></trkpt><trkpt lat="42.453771373822654" lon="12.704213006366311"><ele>859.4</ele><time>2026-04-19T08:17:15.999Z</time></trkpt><trkpt lat="42.45387824541318" lon="12.704232581631558"><ele>858.8</ele><time>2026-04-19T08:17:17.999Z</time></trkpt><trkpt lat="42.453985778569205" lon="12.704279148553427"><ele>858.2</ele><time>2026-04-19T08:17:19.999Z</time></trkpt><trkpt lat="42.45408546325472" lon="12.70432966649262"><ele>857.6</ele><time>2026-04-19T08:17:21.999Z</time></trkpt><trkpt lat="42.45417662756525" lon="12.704391268114945"><ele>857.0</ele><time>2026-04-19T08:17:23.999Z</time></trkpt><trkpt lat="42.4542657061311" lon="12.704444460819905"><ele>858.6666666666667</ele><time>2026-04-19T08:17:25.999Z</time></trkpt><trkpt lat="42.45435674730461" lon="12.70450681478884"><ele>860.3333333333334</ele><time>2026-04-19T08:17:27.999Z</time></trkpt><trkpt lat="42.45441914285318" lon="12.704545977935155"><ele>862.0</ele><time>2026-04-19T08:17:28.999Z</time></trkpt><trkpt lat="42.454475520477565" lon="12.704584228451521"><ele>863.6666666666667</ele><time>2026-04-19T08:17:29.999Z</time></trkpt><trkpt lat="42.45459833618353" lon="12.704633341714601"><ele>865.3333333333334</ele><time>2026-04-19T08:17:31.999Z</time></trkpt><trkpt lat="42.454662934623315" lon="12.704649147062204"><ele>867.0</ele><time>2026-04-19T08:17:32.999Z</time></trkpt><trkpt lat="42.454730442793995" lon="12.704674746444928"><ele>867.0</ele><time>2026-04-19T08:17:33.999Z</time></trkpt><trkpt lat="42.454794596866165" lon="12.704686168538693"><ele>867.0</ele><time>2026-04-19T08:17:34.999Z</time></trkpt><trkpt lat="42.454899052346825" lon="12.704717021866118"><ele>867.0</ele><time>2026-04-19T08:17:36.999Z</time></trkpt><trkpt lat="42.4549808429449" lon="12.70478871930086"><ele>867.0</ele><time>2026-04-19T08:17:39.999Z</time></trkpt><trkpt lat="42.45506553320026" lon="12.704821917528253"><ele>867.0</ele><time>2026-04-19T08:17:41.999Z</time></trkpt><trkpt lat="42.455156437815624" lon="12.704804375748585"><ele>867.0</ele><time>2026-04-19T08:17:43.999Z</time></trkpt><trkpt lat="42.455249770697755" lon="12.704769821440495"><ele>867.0</ele><time>2026-04-19T08:17:45.999Z</time></trkpt><trkpt lat="42.45533576670017" lon="12.704721489049504"><ele>867.0</ele><time>2026-04-19T08:17:47.999Z</time></trkpt><trkpt lat="42.45540274626838" lon="12.704662214292114"><ele>867.0</ele><time>2026-04-19T08:17:49.999Z</time></trkpt><trkpt lat="42.45548550183812" lon="12.704582228735632"><ele>867.0</ele><time>2026-04-19T08:17:51.999Z</time></trkpt><trkpt lat="42.45555171186383" lon="12.704568525942506"><ele>867.0</ele><time>2026-04-19T08:17:55.999Z</time></trkpt><trkpt lat="42.455626777818544" lon="12.704559120977633"><ele>867.0</ele><time>2026-04-19T08:18:44.999Z</time></trkpt><trkpt lat="42.45573289701454" lon="12.704626579475772"><ele>867.6666666666666</ele><time>2026-04-19T08:18:46.999Z</time></trkpt><trkpt lat="42.455787262444694" lon="12.704679618119345"><ele>868.3333333333333</ele><time>2026-04-19T08:18:47.999Z</time></trkpt><trkpt lat="42.45584810508497" lon="12.704734956512755"><ele>869.0</ele><time>2026-04-19T08:18:48.999Z</time></trkpt><trkpt lat="42.455910541073244" lon="12.70479393919542"><ele>869.6666666666666</ele><time>2026-04-19T08:18:49.999Z</time></trkpt><trkpt lat="42.45597769667272" lon="12.704862831529327"><ele>870.3333333333333</ele><time>2026-04-19T08:18:50.999Z</time></trkpt><trkpt lat="42.45604646145371" lon="12.704951623271741"><ele>871.0</ele><time>2026-04-19T08:18:51.999Z</time></trkpt><trkpt lat="42.45611031519764" lon="12.705025164799638"><ele>870.9999999999999</ele><time>2026-04-19T08:18:52.999Z</time></trkpt><trkpt lat="42.456170008297455" lon="12.705085526673342"><ele>871.0</ele><time>2026-04-19T08:18:53.999Z</time></trkpt><trkpt lat="42.45623206306222" lon="12.705127227524656"><ele>871.0</ele><time>2026-04-19T08:18:55.999Z</time></trkpt><trkpt lat="42.45630088111377" lon="12.705183420153647"><ele>871.0</ele><time>2026-04-19T08:18:59.999Z</time></trkpt><trkpt lat="42.45637282300558" lon="12.705235307148204"><ele>870.9999999999999</ele><time>2026-04-19T08:19:03.999Z</time></trkpt><trkpt lat="42.456443878714566" lon="12.70527938386652"><ele>871.0</ele><time>2026-04-19T08:19:06.999Z</time></trkpt><trkpt lat="42.45650320527635" lon="12.705331997524922"><ele>871.3333333333333</ele><time>2026-04-19T08:19:08.999Z</time></trkpt><trkpt lat="42.456569859289374" lon="12.705382803693485"><ele>871.6666666666666</ele><time>2026-04-19T08:19:10.999Z</time></trkpt><trkpt lat="42.45667430011806" lon="12.705417927422532"><ele>872.0</ele><time>2026-04-19T08:19:12.999Z</time></trkpt><trkpt lat="42.456743929545496" lon="12.705447815450372"><ele>872.3333333333333</ele><time>2026-04-19T08:19:14.999Z</time></trkpt><trkpt lat="42.456812451663815" lon="12.705503075336393"><ele>872.6666666666666</ele><time>2026-04-19T08:19:18.999Z</time></trkpt><trkpt lat="42.45686441914558" lon="12.705569522057962"><ele>873.0</ele><time>2026-04-19T08:19:21.999Z</time></trkpt><trkpt lat="42.456887617793704" lon="12.705693004381901"><ele>873.0</ele><time>2026-04-19T08:19:24.999Z</time></trkpt><trkpt lat="42.45689137171527" lon="12.70580770334467"><ele>873.0</ele><time>2026-04-19T08:19:26.999Z</time></trkpt><trkpt lat="42.45691430218736" lon="12.705940990862967"><ele>873.0</ele><time>2026-04-19T08:19:28.999Z</time></trkpt><trkpt lat="42.4569363062965" lon="12.706081333755453"><ele>873.0</ele><time>2026-04-19T08:19:30.999Z</time></trkpt><trkpt lat="42.456955215329685" lon="12.706213378603344"><ele>873.0</ele><time>2026-04-19T08:19:32.999Z</time></trkpt><trkpt lat="42.45697084169318" lon="12.706345756994585"><ele>873.2</ele><time>2026-04-19T08:19:34.999Z</time></trkpt><trkpt lat="42.45695839685925" lon="12.70646854534795"><ele>873.4</ele><time>2026-04-19T08:19:36.999Z</time></trkpt><trkpt lat="42.456941973173684" lon="12.70658659794859"><ele>873.6000000000001</ele><time>2026-04-19T08:19:38.999Z</time></trkpt><trkpt lat="42.4569056282439" lon="12.706658929523313"><ele>873.8000000000001</ele><time>2026-04-19T08:19:39.999Z</time></trkpt><trkpt lat="42.45683327858285" lon="12.706779663777553"><ele>874.0</ele><time>2026-04-19T08:19:41.999Z</time></trkpt><trkpt lat="42.45678417209762" lon="12.706902683933377"><ele>874.2</ele><time>2026-04-19T08:19:43.999Z</time></trkpt><trkpt lat="42.45668769609827" lon="12.707061593532313"><ele>874.4000000000001</ele><time>2026-04-19T08:19:45.999Z</time></trkpt><trkpt lat="42.45665979561482" lon="12.707139140077466"><ele>874.6</ele><time>2026-04-19T08:19:46.999Z</time></trkpt><trkpt lat="42.456596903488574" lon="12.707211576951723"><ele>874.8</ele><time>2026-04-19T08:19:47.999Z</time></trkpt><trkpt lat="42.45655878012947" lon="12.707297420115607"><ele>875.0</ele><time>2026-04-19T08:19:48.999Z</time></trkpt><trkpt lat="42.456470906651084" lon="12.707451125386298"><ele>875.0</ele><time>2026-04-19T08:19:50.999Z</time></trkpt><trkpt lat="42.4564283104754" lon="12.707526774114529"><ele>875.0</ele><time>2026-04-19T08:19:51.999Z</time></trkpt><trkpt lat="42.45637551207356" lon="12.707595901987975"><ele>875.0</ele><time>2026-04-19T08:19:52.999Z</time></trkpt><trkpt lat="42.45630358966737" lon="12.707716449983346"><ele>875.0</ele><time>2026-04-19T08:19:54.999Z</time></trkpt><trkpt lat="42.456224532593694" lon="12.707813416651558"><ele>875.0</ele><time>2026-04-19T08:19:56.999Z</time></trkpt><trkpt lat="42.45613740028888" lon="12.707911329564729"><ele>875.5000000000001</ele><time>2026-04-19T08:19:58.999Z</time></trkpt><trkpt lat="42.45608837470762" lon="12.707998019176783"><ele>876.0</ele><time>2026-04-19T08:20:01.999Z</time></trkpt><trkpt lat="42.45603730286268" lon="12.7080665959936"><ele>876.5</ele><time>2026-04-19T08:20:04.999Z</time></trkpt><trkpt lat="42.45597063587164" lon="12.708139998973689"><ele>877.0</ele><time>2026-04-19T08:20:32.999Z</time></trkpt><trkpt lat="42.45592431203668" lon="12.708229172750686"><ele>877.5000000000001</ele><time>2026-04-19T08:20:33.999Z</time></trkpt><trkpt lat="42.45586883978861" lon="12.708321299636019"><ele>878.0</ele><time>2026-04-19T08:20:34.999Z</time></trkpt><trkpt lat="42.455793692487866" lon="12.708434502660852"><ele>878.0</ele><time>2026-04-19T08:20:35.999Z</time></trkpt><trkpt lat="42.45570752043466" lon="12.708559009863842"><ele>878.0</ele><time>2026-04-19T08:20:36.999Z</time></trkpt><trkpt lat="42.45562255143322" lon="12.708681042815305"><ele>878.0</ele><time>2026-04-19T08:20:38Z</time></trkpt><trkpt lat="42.45553499407074" lon="12.708810334480512"><ele>878.0</ele><time>2026-04-19T08:20:39Z</time></trkpt><trkpt lat="42.45544950443481" lon="12.708938258671498"><ele>879.0000000000001</ele><time>2026-04-19T08:20:42Z</time></trkpt><trkpt lat="42.455402469854945" lon="12.709020583411212"><ele>880.0</ele><time>2026-04-19T08:20:43Z</time></trkpt><trkpt lat="42.455372081610186" lon="12.709101528091606"><ele>881.0</ele><time>2026-04-19T08:20:44Z</time></trkpt><trkpt lat="42.45532689788111" lon="12.70926672029922"><ele>882.0</ele><time>2026-04-19T08:20:46Z</time></trkpt><trkpt lat="42.45529427632114" lon="12.709345587674674"><ele>883.0000000000001</ele><time>2026-04-19T08:20:47Z</time></trkpt><trkpt lat="42.45525811684131" lon="12.709438559834739"><ele>884.0</ele><time>2026-04-19T08:20:48Z</time></trkpt><trkpt lat="42.45524582275635" lon="12.709529784364788"><ele>884.1666666666667</ele><time>2026-04-19T08:20:49Z</time></trkpt><trkpt lat="42.45521445272222" lon="12.709614180996928"><ele>884.3333333333334</ele><time>2026-04-19T08:20:50Z</time></trkpt><trkpt lat="42.455193067410676" lon="12.709702580579764"><ele>884.5</ele><time>2026-04-19T08:20:51Z</time></trkpt><trkpt lat="42.45515490973436" lon="12.709770932194182"><ele>884.6666666666667</ele><time>2026-04-19T08:20:52Z</time></trkpt><trkpt lat="42.45509313152201" lon="12.7098409571982"><ele>884.8333333333334</ele><time>2026-04-19T08:20:53Z</time></trkpt><trkpt lat="42.45503704516481" lon="12.70993523647578"><ele>885.0</ele><time>2026-04-19T08:20:55Z</time></trkpt><trkpt lat="42.45497924974472" lon="12.710012957365906"><ele>885.0</ele><time>2026-04-19T08:20:56Z</time></trkpt><trkpt lat="42.45493064491387" lon="12.7100890475315"><ele>885.0</ele><time>2026-04-19T08:20:57Z</time></trkpt><trkpt lat="42.454892445213176" lon="12.710166679017393"><ele>885.0</ele><time>2026-04-19T08:20:58Z</time></trkpt><trkpt lat="42.454859305977166" lon="12.710255516583478"><ele>885.0</ele><time>2026-04-19T08:20:59Z</time></trkpt><trkpt lat="42.454835138500535" lon="12.710343780145628"><ele>885.0</ele><time>2026-04-19T08:21:00Z</time></trkpt><trkpt lat="42.45482663276843" lon="12.710442700380339"><ele>885.0</ele><time>2026-04-19T08:21:01Z</time></trkpt><trkpt lat="42.45485510389816" lon="12.710530520090321"><ele>885.0</ele><time>2026-04-19T08:21:02Z</time></trkpt><trkpt lat="42.4548465637787" lon="12.710639875686951"><ele>885.8333333333334</ele><time>2026-04-19T08:21:03Z</time></trkpt><trkpt lat="42.45483243376891" lon="12.710734266141682"><ele>886.6666666666667</ele><time>2026-04-19T08:21:04Z</time></trkpt><trkpt lat="42.45480571675392" lon="12.710839053552768"><ele>887.5</ele><time>2026-04-19T08:21:05Z</time></trkpt><trkpt lat="42.45478521080416" lon="12.710942608485164"><ele>888.3333333333334</ele><time>2026-04-19T08:21:06Z</time></trkpt><trkpt lat="42.4547513544219" lon="12.71105927350608"><ele>889.1666666666667</ele><time>2026-04-19T08:21:07Z</time></trkpt><trkpt lat="42.45469406309964" lon="12.711148887661334"><ele>890.0</ele><time>2026-04-19T08:21:08Z</time></trkpt><trkpt lat="42.45463920866515" lon="12.711205291126605"><ele>891.5000000000001</ele><time>2026-04-19T08:21:09Z</time></trkpt><trkpt lat="42.4545694438773" lon="12.711269477443894"><ele>893.0</ele><time>2026-04-19T08:21:10Z</time></trkpt><trkpt lat="42.45448526806349" lon="12.711328487969785"><ele>894.5</ele><time>2026-04-19T08:21:11Z</time></trkpt><trkpt lat="42.45440140547131" lon="12.711400439576149"><ele>896.0</ele><time>2026-04-19T08:21:12Z</time></trkpt><trkpt lat="42.45433739811623" lon="12.711476298458548"><ele>897.5000000000001</ele><time>2026-04-19T08:21:13Z</time></trkpt><trkpt lat="42.45427634985141" lon="12.711558486339863"><ele>899.0</ele><time>2026-04-19T08:21:14Z</time></trkpt><trkpt lat="42.454217838110495" lon="12.71163239683393"><ele>899.0000000000001</ele><time>2026-04-19T08:21:15Z</time></trkpt><trkpt lat="42.454149567199465" lon="12.711702600185923"><ele>899.0</ele><time>2026-04-19T08:21:16Z</time></trkpt><trkpt lat="42.454086472479645" lon="12.711771872720153"><ele>899.0</ele><time>2026-04-19T08:21:17Z</time></trkpt><trkpt lat="42.45402004565444" lon="12.711841095000006"><ele>899.0</ele><time>2026-04-19T08:21:18Z</time></trkpt><trkpt lat="42.453960342910555" lon="12.711915263730392"><ele>899.0000000000001</ele><time>2026-04-19T08:21:19Z</time></trkpt><trkpt lat="42.453900709449265" lon="12.711981612590021"><ele>899.0</ele><time>2026-04-19T08:21:20Z</time></trkpt><trkpt lat="42.45383556022643" lon="12.712043404302863"><ele>900.2</ele><time>2026-04-19T08:21:21Z</time></trkpt><trkpt lat="42.45376333576102" lon="12.712110267197655"><ele>901.4000000000001</ele><time>2026-04-19T08:21:22Z</time></trkpt><trkpt lat="42.4536956724745" lon="12.712198137051804"><ele>902.6</ele><time>2026-04-19T08:21:23Z</time></trkpt><trkpt lat="42.45362492534822" lon="12.712278784432197"><ele>903.8</ele><time>2026-04-19T08:21:24Z</time></trkpt><trkpt lat="42.45354466627039" lon="12.712363194094168"><ele>905.0</ele><time>2026-04-19T08:21:25Z</time></trkpt><trkpt lat="42.453469552548704" lon="12.712434215364821"><ele>905.0000000000001</ele><time>2026-04-19T08:21:26Z</time></trkpt><trkpt lat="42.45341823087753" lon="12.712505254552418"><ele>905.0</ele><time>2026-04-19T08:21:27Z</time></trkpt><trkpt lat="42.453350721216474" lon="12.712569078371343"><ele>905.0</ele><time>2026-04-19T08:21:28Z</time></trkpt><trkpt lat="42.45329109323116" lon="12.712635785597435"><ele>905.0</ele><time>2026-04-19T08:21:29Z</time></trkpt><trkpt lat="42.45321616705454" lon="12.712690450340538"><ele>905.0000000000001</ele><time>2026-04-19T08:21:30Z</time></trkpt><trkpt lat="42.45314512066438" lon="12.712737851769035"><ele>905.0</ele><time>2026-04-19T08:21:31Z</time></trkpt><trkpt lat="42.453074851682814" lon="12.712805122233123"><ele>905.5000000000001</ele><time>2026-04-19T08:21:32Z</time></trkpt><trkpt lat="42.45299496912829" lon="12.712871626256293"><ele>906.0</ele><time>2026-04-19T08:21:33Z</time></trkpt><trkpt lat="42.45292772979888" lon="12.712929586068512"><ele>906.5</ele><time>2026-04-19T08:21:34Z</time></trkpt><trkpt lat="42.45286750093076" lon="12.712999003536058"><ele>907.0</ele><time>2026-04-19T08:21:35Z</time></trkpt><trkpt lat="42.45281334023062" lon="12.713087913733965"><ele>907.5000000000001</ele><time>2026-04-19T08:21:36Z</time></trkpt><trkpt lat="42.452771903201246" lon="12.713199207026369"><ele>908.0</ele><time>2026-04-19T08:21:37Z</time></trkpt><trkpt lat="42.452738319179616" lon="12.71330283474136"><ele>908.4</ele><time>2026-04-19T08:21:38Z</time></trkpt><trkpt lat="42.45269815591797" lon="12.713400774868267"><ele>908.8</ele><time>2026-04-19T08:21:39Z</time></trkpt><trkpt lat="42.45264027605446" lon="12.713488092936863"><ele>909.2</ele><time>2026-04-19T08:21:40Z</time></trkpt><trkpt lat="42.4525407371799" lon="12.713574504968767"><ele>909.6</ele><time>2026-04-19T08:21:41Z</time></trkpt><trkpt lat="42.45243870353549" lon="12.713646339662127"><ele>910.0</ele><time>2026-04-19T08:21:42Z</time></trkpt><trkpt lat="42.45233981684226" lon="12.713696667972833"><ele>909.9999999999999</ele><time>2026-04-19T08:21:43Z</time></trkpt><trkpt lat="42.452246430859155" lon="12.71373654177196"><ele>910.0</ele><time>2026-04-19T08:21:44Z</time></trkpt><trkpt lat="42.45217385955702" lon="12.71377262136283"><ele>910.0</ele><time>2026-04-19T08:21:45Z</time></trkpt><trkpt lat="42.45209058315344" lon="12.71379804553112"><ele>910.0</ele><time>2026-04-19T08:21:46Z</time></trkpt><trkpt lat="42.452021293909716" lon="12.713831376604974"><ele>909.9999999999999</ele><time>2026-04-19T08:21:47Z</time></trkpt><trkpt lat="42.4519454356909" lon="12.713860380980872"><ele>910.0</ele><time>2026-04-19T08:21:48Z</time></trkpt><trkpt lat="42.451866756374365" lon="12.71388767106264"><ele>909.1666666666666</ele><time>2026-04-19T08:21:49Z</time></trkpt><trkpt lat="42.451779929773984" lon="12.713910430946795"><ele>908.3333333333333</ele><time>2026-04-19T08:21:50Z</time></trkpt><trkpt lat="42.45169601188776" lon="12.713939125204076"><ele>907.5</ele><time>2026-04-19T08:21:51Z</time></trkpt><trkpt lat="42.4516174373609" lon="12.713961582220147"><ele>906.6666666666667</ele><time>2026-04-19T08:21:52Z</time></trkpt><trkpt lat="42.451537733213904" lon="12.713955624175535"><ele>905.8333333333334</ele><time>2026-04-19T08:21:53Z</time></trkpt><trkpt lat="42.45145797902721" lon="12.713930284596708"><ele>905.0</ele><time>2026-04-19T08:21:54Z</time></trkpt><trkpt lat="42.45139453050816" lon="12.713921195991063"><ele>905.0000000000001</ele><time>2026-04-19T08:21:55Z</time></trkpt><trkpt lat="42.451323724384885" lon="12.71393214281618"><ele>905.0</ele><time>2026-04-19T08:21:56Z</time></trkpt><trkpt lat="42.451249042716015" lon="12.713946894971858"><ele>905.0</ele><time>2026-04-19T08:21:57Z</time></trkpt><trkpt lat="42.4511710611212" lon="12.713984259279826"><ele>905.0</ele><time>2026-04-19T08:21:58Z</time></trkpt><trkpt lat="42.45109113852018" lon="12.714002831415181"><ele>905.0000000000001</ele><time>2026-04-19T08:21:59Z</time></trkpt><trkpt lat="42.45100779562835" lon="12.714035630854605"><ele>905.0</ele><time>2026-04-19T08:22:00Z</time></trkpt><trkpt lat="42.450932746920856" lon="12.714056963792906"><ele>904.0000000000001</ele><time>2026-04-19T08:22:01Z</time></trkpt><trkpt lat="42.450855416507146" lon="12.714074480840644"><ele>903.0</ele><time>2026-04-19T08:22:02Z</time></trkpt><trkpt lat="42.45076752721784" lon="12.714100679514171"><ele>902.0</ele><time>2026-04-19T08:22:03Z</time></trkpt><trkpt lat="42.45068353849209" lon="12.714121599392412"><ele>901.0</ele><time>2026-04-19T08:22:04Z</time></trkpt><trkpt lat="42.450598152091466" lon="12.714137384439809"><ele>900.0000000000001</ele><time>2026-04-19T08:22:05Z</time></trkpt><trkpt lat="42.45051994297688" lon="12.714150566455611"><ele>899.0</ele><time>2026-04-19T08:22:06Z</time></trkpt><trkpt lat="42.450441371622375" lon="12.714164921781434"><ele>898.0</ele><time>2026-04-19T08:22:07Z</time></trkpt><trkpt lat="42.450368192131336" lon="12.714182003309519"><ele>897.0000000000001</ele><time>2026-04-19T08:22:08Z</time></trkpt><trkpt lat="42.45029482428721" lon="12.714188830111285"><ele>896.0000000000001</ele><time>2026-04-19T08:22:09Z</time></trkpt><trkpt lat="42.45018367483404" lon="12.714204678131859"><ele>895.0</ele><time>2026-04-19T08:22:11Z</time></trkpt><trkpt lat="42.45005268362268" lon="12.714251043249124"><ele>894.0</ele><time>2026-04-19T08:22:13Z</time></trkpt><trkpt lat="42.449983816271796" lon="12.714299938561755"><ele>894.0</ele><time>2026-04-19T08:22:14Z</time></trkpt><trkpt lat="42.4498817160419" lon="12.714391551862656"><ele>894.0000000000001</ele><time>2026-04-19T08:22:16.001Z</time></trkpt><trkpt lat="42.44980223644394" lon="12.714466486869398"><ele>894.0000000000001</ele><time>2026-04-19T08:22:18.001Z</time></trkpt><trkpt lat="42.449752005333785" lon="12.714569949884334"><ele>894.0</ele><time>2026-04-19T08:22:20.001Z</time></trkpt><trkpt lat="42.44972083372287" lon="12.714710230270189"><ele>894.0</ele><time>2026-04-19T08:22:22.001Z</time></trkpt><trkpt lat="42.4496874750925" lon="12.714858487120555"><ele>895.6666666666666</ele><time>2026-04-19T08:22:24.001Z</time></trkpt><trkpt lat="42.449666735729146" lon="12.714992137538305"><ele>897.3333333333333</ele><time>2026-04-19T08:22:26.001Z</time></trkpt><trkpt lat="42.4496553417046" lon="12.715123860832435"><ele>899.0</ele><time>2026-04-19T08:22:28.001Z</time></trkpt><trkpt lat="42.44960460284467" lon="12.71522451594048"><ele>900.6666666666666</ele><time>2026-04-19T08:22:30.001Z</time></trkpt><trkpt lat="42.4495484432229" lon="12.715326654058462"><ele>902.3333333333333</ele><time>2026-04-19T08:22:33Z</time></trkpt><trkpt lat="42.449492465116" lon="12.715375037121591"><ele>904.0</ele><time>2026-04-19T08:22:36Z</time></trkpt><trkpt lat="42.449411446291556" lon="12.715493624759933"><ele>905.3333333333333</ele><time>2026-04-19T08:23:29Z</time></trkpt><trkpt lat="42.449366105278514" lon="12.715573081382393"><ele>906.6666666666666</ele><time>2026-04-19T08:23:30Z</time></trkpt><trkpt lat="42.449318904999075" lon="12.715661880771759"><ele>908.0</ele><time>2026-04-19T08:23:31Z</time></trkpt><trkpt lat="42.44927121375436" lon="12.71575480464639"><ele>909.3333333333333</ele><time>2026-04-19T08:23:32Z</time></trkpt><trkpt lat="42.44921872435464" lon="12.715848904926437"><ele>910.6666666666666</ele><time>2026-04-19T08:23:33Z</time></trkpt><trkpt lat="42.44916939078" lon="12.71595482539024"><ele>912.0</ele><time>2026-04-19T08:23:34Z</time></trkpt><trkpt lat="42.44913079593162" lon="12.716049603617032"><ele>914.0</ele><time>2026-04-19T08:23:35Z</time></trkpt><trkpt lat="42.44909253042495" lon="12.716134031486545"><ele>916.0</ele><time>2026-04-19T08:23:36Z</time></trkpt><trkpt lat="42.449054190336604" lon="12.716232513878769"><ele>918.0</ele><time>2026-04-19T08:23:37Z</time></trkpt><trkpt lat="42.4490282739899" lon="12.716330016817057"><ele>920.0</ele><time>2026-04-19T08:23:38Z</time></trkpt><trkpt lat="42.449004718637475" lon="12.716438264938372"><ele>922.0</ele><time>2026-04-19T08:23:39Z</time></trkpt><trkpt lat="42.448985100273" lon="12.716547155424886"><ele>924.0</ele><time>2026-04-19T08:23:40Z</time></trkpt><trkpt lat="42.448972604321426" lon="12.71664759595656"><ele>924.0</ele><time>2026-04-19T08:23:41Z</time></trkpt><trkpt lat="42.44893796778818" lon="12.716747333739747"><ele>924.0</ele><time>2026-04-19T08:23:42Z</time></trkpt><trkpt lat="42.44891281420492" lon="12.716861280642776"><ele>924.0</ele><time>2026-04-19T08:23:43Z</time></trkpt><trkpt lat="42.44889666828259" lon="12.716965026224985"><ele>924.0</ele><time>2026-04-19T08:23:44Z</time></trkpt><trkpt lat="42.44888080775529" lon="12.717072960446671"><ele>924.0</ele><time>2026-04-19T08:23:45Z</time></trkpt><trkpt lat="42.44885775061999" lon="12.717165124947988"><ele>924.0</ele><time>2026-04-19T08:23:46Z</time></trkpt><trkpt lat="42.448813199291656" lon="12.717351804657117"><ele>923.3333333333334</ele><time>2026-04-19T08:23:48Z</time></trkpt><trkpt lat="42.448787900453276" lon="12.717469229989387"><ele>922.6666666666667</ele><time>2026-04-19T08:23:49Z</time></trkpt><trkpt lat="42.44877155833569" lon="12.71757564003905"><ele>922.0</ele><time>2026-04-19T08:23:50Z</time></trkpt><trkpt lat="42.448736560046875" lon="12.71768779021161"><ele>921.3333333333334</ele><time>2026-04-19T08:23:51Z</time></trkpt><trkpt lat="42.44872312885321" lon="12.717798788314763"><ele>920.6666666666667</ele><time>2026-04-19T08:23:52Z</time></trkpt><trkpt lat="42.44870749732261" lon="12.717913093550772"><ele>920.0</ele><time>2026-04-19T08:23:53Z</time></trkpt><trkpt lat="42.4486485279776" lon="12.718057844960168"><ele>922.0</ele><time>2026-04-19T08:23:54Z</time></trkpt><trkpt lat="42.44858733024362" lon="12.718187943157567"><ele>924.0</ele><time>2026-04-19T08:23:55Z</time></trkpt><trkpt lat="42.44851702354861" lon="12.71834071763393"><ele>926.0</ele><time>2026-04-19T08:23:56Z</time></trkpt><trkpt lat="42.44847712726292" lon="12.71842912652962"><ele>928.0</ele><time>2026-04-19T08:23:59Z</time></trkpt><trkpt lat="42.4484118936524" lon="12.718474105407095"><ele>930.0</ele><time>2026-04-19T08:24:00Z</time></trkpt><trkpt lat="42.44833469392623" lon="12.718517436434261"><ele>930.0</ele><time>2026-04-19T08:24:01Z</time></trkpt><trkpt lat="42.448245012619424" lon="12.71855252551259"><ele>930.0</ele><time>2026-04-19T08:24:02Z</time></trkpt><trkpt lat="42.44816516782921" lon="12.7185944588105"><ele>930.0</ele><time>2026-04-19T08:24:03Z</time></trkpt><trkpt lat="42.448098825728145" lon="12.718636422347181"><ele>930.0</ele><time>2026-04-19T08:24:04Z</time></trkpt><trkpt lat="42.44803183010378" lon="12.718695560329863"><ele>930.0</ele><time>2026-04-19T08:24:05Z</time></trkpt><trkpt lat="42.44797386044214" lon="12.718745895631995"><ele>930.0</ele><time>2026-04-19T08:24:06Z</time></trkpt><trkpt lat="42.44791954136161" lon="12.718792862118253"><ele>929.8</ele><time>2026-04-19T08:24:07Z</time></trkpt><trkpt lat="42.44785729936018" lon="12.718859903136877"><ele>929.6</ele><time>2026-04-19T08:24:08Z</time></trkpt><trkpt lat="42.44778788163795" lon="12.718946899849852"><ele>929.4000000000001</ele><time>2026-04-19T08:24:09Z</time></trkpt><trkpt lat="42.44771099246838" lon="12.719030124281925"><ele>929.2</ele><time>2026-04-19T08:24:10Z</time></trkpt><trkpt lat="42.447635264932785" lon="12.719125408251793"><ele>929.0</ele><time>2026-04-19T08:24:11Z</time></trkpt><trkpt lat="42.447559120394764" lon="12.71922526055805"><ele>929.0</ele><time>2026-04-19T08:24:12Z</time></trkpt><trkpt lat="42.44748502607788" lon="12.719316490904669"><ele>929.0000000000001</ele><time>2026-04-19T08:24:13Z</time></trkpt><trkpt lat="42.44740061174621" lon="12.719399727809135"><ele>929.0000000000001</ele><time>2026-04-19T08:24:14Z</time></trkpt><trkpt lat="42.44732262832667" lon="12.719462631624411"><ele>929.0</ele><time>2026-04-19T08:24:15Z</time></trkpt><trkpt lat="42.447257187145105" lon="12.719509107601127"><ele>929.0</ele><time>2026-04-19T08:24:16Z</time></trkpt><trkpt lat="42.447151880462" lon="12.719540462019705"><ele>928.5000000000001</ele><time>2026-04-19T08:24:18Z</time></trkpt><trkpt lat="42.447045319659644" lon="12.71957730919566"><ele>928.0</ele><time>2026-04-19T08:24:21Z</time></trkpt><trkpt lat="42.446984592636326" lon="12.719623274096644"><ele>927.5</ele><time>2026-04-19T08:24:22Z</time></trkpt><trkpt lat="42.446923384080854" lon="12.719678062376365"><ele>927.0</ele><time>2026-04-19T08:24:23Z</time></trkpt><trkpt lat="42.44686115628008" lon="12.719734266539913"><ele>926.5000000000001</ele><time>2026-04-19T08:24:24Z</time></trkpt><trkpt lat="42.44679767946298" lon="12.719789013642812"><ele>926.0</ele><time>2026-04-19T08:24:25Z</time></trkpt><trkpt lat="42.44670004262843" lon="12.719865763173784"><ele>926.0</ele><time>2026-04-19T08:24:27Z</time></trkpt><trkpt lat="42.4466232124187" lon="12.719913418353844"><ele>925.9999999999999</ele><time>2026-04-19T08:24:29Z</time></trkpt><trkpt lat="42.446516589640126" lon="12.719985395176474"><ele>925.9999999999999</ele><time>2026-04-19T08:24:31Z</time></trkpt><trkpt lat="42.4464571557229" lon="12.720034227058363"><ele>926.0</ele><time>2026-04-19T08:24:32Z</time></trkpt><trkpt lat="42.4463742638987" lon="12.720143740954775"><ele>926.0</ele><time>2026-04-19T08:24:34Z</time></trkpt><trkpt lat="42.4463389489417" lon="12.720229258892154"><ele>928.0</ele><time>2026-04-19T08:24:35Z</time></trkpt><trkpt lat="42.446298666102734" lon="12.720322968893614"><ele>929.9999999999999</ele><time>2026-04-19T08:24:36Z</time></trkpt><trkpt lat="42.44625497278909" lon="12.720425605061621"><ele>931.9999999999999</ele><time>2026-04-19T08:24:37Z</time></trkpt><trkpt lat="42.44621619429129" lon="12.720531212191391"><ele>934.0</ele><time>2026-04-19T08:24:38Z</time></trkpt><trkpt lat="42.446161179676594" lon="12.720685331982542"><ele>936.0</ele><time>2026-04-19T08:24:40Z</time></trkpt><trkpt lat="42.446116486352736" lon="12.72079310862828"><ele>936.0</ele><time>2026-04-19T08:24:42Z</time></trkpt><trkpt lat="42.44603251623573" lon="12.720806569876478"><ele>936.0</ele><time>2026-04-19T08:24:44Z</time></trkpt><trkpt lat="42.44596531849878" lon="12.72075072965903"><ele>936.0</ele><time>2026-04-19T08:24:46Z</time></trkpt><trkpt lat="42.44589666643143" lon="12.720668357261134"><ele>936.0</ele><time>2026-04-19T08:24:48Z</time></trkpt><trkpt lat="42.44582749685112" lon="12.720613943727573"><ele>936.0</ele><time>2026-04-19T08:24:49Z</time></trkpt><trkpt lat="42.4457542774254" lon="12.72059232594194"><ele>936.0</ele><time>2026-04-19T08:24:50Z</time></trkpt><trkpt lat="42.44569127031383" lon="12.72061252892745"><ele>936.0</ele><time>2026-04-19T08:24:51Z</time></trkpt><trkpt lat="42.44560717878146" lon="12.720677861959008"><ele>935.9999999999999</ele><time>2026-04-19T08:24:53Z</time></trkpt><trkpt lat="42.44555039921907" lon="12.720751647487129"><ele>935.9999999999999</ele><time>2026-04-19T08:24:54Z</time></trkpt><trkpt lat="42.44549732963068" lon="12.720841121602707"><ele>936.0</ele><time>2026-04-19T08:24:55Z</time></trkpt><trkpt lat="42.44545536838465" lon="12.720904799794925"><ele>936.0</ele><time>2026-04-19T08:24:56Z</time></trkpt><trkpt lat="42.445333624900144" lon="12.720966511330573"><ele>937.0</ele><time>2026-04-19T08:24:58Z</time></trkpt><trkpt lat="42.44525017674644" lon="12.720986036629334"><ele>938.0</ele><time>2026-04-19T08:24:59Z</time></trkpt><trkpt lat="42.44518089501282" lon="12.720991594462935"><ele>939.0</ele><time>2026-04-19T08:25:00Z</time></trkpt><trkpt lat="42.445116149807916" lon="12.721002815700144"><ele>940.0</ele><time>2026-04-19T08:25:01Z</time></trkpt><trkpt lat="42.445002579224536" lon="12.720979565032518"><ele>941.0</ele><time>2026-04-19T08:25:03Z</time></trkpt><trkpt lat="42.44493999555966" lon="12.720954876445399"><ele>942.0</ele><time>2026-04-19T08:25:04Z</time></trkpt><trkpt lat="42.44483442393108" lon="12.720863867335808"><ele>942.0</ele><time>2026-04-19T08:25:06Z</time></trkpt><trkpt lat="42.44478308048243" lon="12.720787781686694"><ele>942.0</ele><time>2026-04-19T08:25:07Z</time></trkpt><trkpt lat="42.44473282955672" lon="12.720706377391318"><ele>942.0</ele><time>2026-04-19T08:25:08Z</time></trkpt><trkpt lat="42.44467291808619" lon="12.720625181159178"><ele>942.0</ele><time>2026-04-19T08:25:09Z</time></trkpt><trkpt lat="42.44461732838884" lon="12.720544359005393"><ele>942.0</ele><time>2026-04-19T08:25:10Z</time></trkpt><trkpt lat="42.44456031624054" lon="12.720467088534036"><ele>942.0</ele><time>2026-04-19T08:25:11Z</time></trkpt><trkpt lat="42.44450685172522" lon="12.720399219710506"><ele>940.4000000000001</ele><time>2026-04-19T08:25:12Z</time></trkpt><trkpt lat="42.44445563590326" lon="12.720334812228758"><ele>938.8000000000001</ele><time>2026-04-19T08:25:13Z</time></trkpt><trkpt lat="42.444394088114244" lon="12.720272452788944"><ele>937.2</ele><time>2026-04-19T08:25:14Z</time></trkpt><trkpt lat="42.44429358314464" lon="12.720203122651679"><ele>935.6</ele><time>2026-04-19T08:25:16Z</time></trkpt><trkpt lat="42.44423258780822" lon="12.720181820026614"><ele>934.0</ele><time>2026-04-19T08:25:17Z</time></trkpt><trkpt lat="42.444103854035106" lon="12.72017201084838"><ele>933.9999999999999</ele><time>2026-04-19T08:25:19Z</time></trkpt><trkpt lat="42.44403239650216" lon="12.720159368498303"><ele>934.0</ele><time>2026-04-19T08:25:20Z</time></trkpt><trkpt lat="42.44396823913785" lon="12.720131499247216"><ele>933.9999999999999</ele><time>2026-04-19T08:25:21Z</time></trkpt><trkpt lat="42.4439013917849" lon="12.720105354736596"><ele>933.9999999999999</ele><time>2026-04-19T08:25:22Z</time></trkpt><trkpt lat="42.44383301487706" lon="12.720076530204869"><ele>934.0</ele><time>2026-04-19T08:25:23Z</time></trkpt><trkpt lat="42.44376752291117" lon="12.720048847840324"><ele>933.9999999999999</ele><time>2026-04-19T08:25:24Z</time></trkpt><trkpt lat="42.44368607319788" lon="12.720021168136498"><ele>933.9999999999999</ele><time>2026-04-19T08:25:25Z</time></trkpt><trkpt lat="42.44360992709551" lon="12.720005663235172"><ele>934.8333333333333</ele><time>2026-04-19T08:25:26Z</time></trkpt><trkpt lat="42.443528595868514" lon="12.71999091020534"><ele>935.6666666666666</ele><time>2026-04-19T08:25:27Z</time></trkpt><trkpt lat="42.443442291582656" lon="12.71997384657197"><ele>936.5</ele><time>2026-04-19T08:25:28Z</time></trkpt><trkpt lat="42.44335383809863" lon="12.71994481281889"><ele>937.3333333333333</ele><time>2026-04-19T08:25:29Z</time></trkpt><trkpt lat="42.44326670932907" lon="12.719916210404895"><ele>938.1666666666666</ele><time>2026-04-19T08:25:30Z</time></trkpt><trkpt lat="42.44319091849826" lon="12.719878852934851"><ele>939.0</ele><time>2026-04-19T08:25:31Z</time></trkpt><trkpt lat="42.44312833426504" lon="12.71984379520167"><ele>939.0</ele><time>2026-04-19T08:25:32Z</time></trkpt><trkpt lat="42.4430653931238" lon="12.719809159795938"><ele>939.0</ele><time>2026-04-19T08:25:33Z</time></trkpt><trkpt lat="42.44300308038064" lon="12.719772517476"><ele>939.0</ele><time>2026-04-19T08:25:34Z</time></trkpt><trkpt lat="42.4429332778532" lon="12.719743838410446"><ele>939.0</ele><time>2026-04-19T08:25:35Z</time></trkpt><trkpt lat="42.44286749704183" lon="12.719713472938622"><ele>939.0</ele><time>2026-04-19T08:25:36Z</time></trkpt><trkpt lat="42.44279991466842" lon="12.719669886876115"><ele>939.0</ele><time>2026-04-19T08:25:37Z</time></trkpt><trkpt lat="42.44272795695001" lon="12.719608300394984"><ele>939.0</ele><time>2026-04-19T08:25:38Z</time></trkpt><trkpt lat="42.44265738689103" lon="12.719536182363296"><ele>937.3333333333334</ele><time>2026-04-19T08:25:39Z</time></trkpt><trkpt lat="42.44259293401661" lon="12.719467815329049"><ele>935.6666666666667</ele><time>2026-04-19T08:25:40Z</time></trkpt><trkpt lat="42.44252887181656" lon="12.719405802159255"><ele>934.0</ele><time>2026-04-19T08:25:41Z</time></trkpt><trkpt lat="42.44245875033383" lon="12.71936262551796"><ele>932.3333333333334</ele><time>2026-04-19T08:25:42Z</time></trkpt><trkpt lat="42.4423946600649" lon="12.719335767268172"><ele>930.6666666666667</ele><time>2026-04-19T08:25:43Z</time></trkpt><trkpt lat="42.44232810358244" lon="12.719311907055499"><ele>929.0</ele><time>2026-04-19T08:25:44Z</time></trkpt><trkpt lat="42.44224730405157" lon="12.719299736209937"><ele>929.0000000000001</ele><time>2026-04-19T08:25:45Z</time></trkpt><trkpt lat="42.44215950671978" lon="12.71927968199149"><ele>929.0</ele><time>2026-04-19T08:25:46Z</time></trkpt><trkpt lat="42.442067187534136" lon="12.719250112190789"><ele>929.0</ele><time>2026-04-19T08:25:47Z</time></trkpt><trkpt lat="42.441990962449175" lon="12.719207225539659"><ele>929.0</ele><time>2026-04-19T08:25:48Z</time></trkpt><trkpt lat="42.44193175608533" lon="12.719148345729705"><ele>929.0000000000001</ele><time>2026-04-19T08:25:49Z</time></trkpt><trkpt lat="42.44186939643559" lon="12.719070377011072"><ele>929.0</ele><time>2026-04-19T08:25:50Z</time></trkpt><trkpt lat="42.44180050302117" lon="12.718975490545368"><ele>931.8333333333334</ele><time>2026-04-19T08:25:51Z</time></trkpt><trkpt lat="42.44173442392913" lon="12.718888943004355"><ele>934.6666666666667</ele><time>2026-04-19T08:25:52Z</time></trkpt><trkpt lat="42.441674881193904" lon="12.718815395289212"><ele>937.5</ele><time>2026-04-19T08:25:53Z</time></trkpt><trkpt lat="42.44160565194804" lon="12.718754118937198"><ele>940.3333333333333</ele><time>2026-04-19T08:25:54Z</time></trkpt><trkpt lat="42.44152678469765" lon="12.718713189490028"><ele>943.1666666666666</ele><time>2026-04-19T08:25:55Z</time></trkpt><trkpt lat="42.44146342323208" lon="12.718683724698879"><ele>946.0</ele><time>2026-04-19T08:25:56Z</time></trkpt><trkpt lat="42.44140075878308" lon="12.718664312384817"><ele>946.9999999999999</ele><time>2026-04-19T08:25:57Z</time></trkpt><trkpt lat="42.4412818638126" lon="12.718606922648576"><ele>948.0</ele><time>2026-04-19T08:25:59Z</time></trkpt><trkpt lat="42.441227047007516" lon="12.71855867443539"><ele>949.0</ele><time>2026-04-19T08:26:00Z</time></trkpt><trkpt lat="42.441170115009385" lon="12.718500854526733"><ele>950.0</ele><time>2026-04-19T08:26:01Z</time></trkpt><trkpt lat="42.44111491895331" lon="12.718441588193308"><ele>950.9999999999999</ele><time>2026-04-19T08:26:02Z</time></trkpt><trkpt lat="42.441061122085976" lon="12.718376254383603"><ele>952.0</ele><time>2026-04-19T08:26:03Z</time></trkpt><trkpt lat="42.44101682528762" lon="12.7183024537969"><ele>949.4285714285714</ele><time>2026-04-19T08:26:04Z</time></trkpt><trkpt lat="42.44097367077905" lon="12.718224331607955"><ele>946.8571428571429</ele><time>2026-04-19T08:26:05Z</time></trkpt><trkpt lat="42.4409187131333" lon="12.718160504800313"><ele>944.2857142857142</ele><time>2026-04-19T08:26:06Z</time></trkpt><trkpt lat="42.440863725858826" lon="12.71810273447005"><ele>941.7142857142857</ele><time>2026-04-19T08:26:07Z</time></trkpt><trkpt lat="42.44080787570356" lon="12.718052997112734"><ele>939.1428571428571</ele><time>2026-04-19T08:26:08Z</time></trkpt><trkpt lat="42.44075396944603" lon="12.71800537435895"><ele>936.5714285714284</ele><time>2026-04-19T08:26:09Z</time></trkpt><trkpt lat="42.44069791297997" lon="12.71794970156598"><ele>933.9999999999999</ele><time>2026-04-19T08:26:10Z</time></trkpt><trkpt lat="42.4406429078285" lon="12.717895296916586"><ele>933.9999999999999</ele><time>2026-04-19T08:26:11Z</time></trkpt><trkpt lat="42.440584744643125" lon="12.717840394151294"><ele>934.0</ele><time>2026-04-19T08:26:12Z</time></trkpt><trkpt lat="42.4405262556178" lon="12.717782050510662"><ele>934.0</ele><time>2026-04-19T08:26:13Z</time></trkpt><trkpt lat="42.44046247928629" lon="12.717715779646845"><ele>934.0</ele><time>2026-04-19T08:26:14Z</time></trkpt><trkpt lat="42.440396678161875" lon="12.717657655854227"><ele>933.9999999999999</ele><time>2026-04-19T08:26:15Z</time></trkpt><trkpt lat="42.440326163517355" lon="12.717600438579018"><ele>934.0</ele><time>2026-04-19T08:26:16Z</time></trkpt><trkpt lat="42.44025738999304" lon="12.717545817061362"><ele>930.6</ele><time>2026-04-19T08:26:17Z</time></trkpt><trkpt lat="42.4401808914338" lon="12.717488280961676"><ele>927.2</ele><time>2026-04-19T08:26:18Z</time></trkpt><trkpt lat="42.44006133619919" lon="12.717436146183363"><ele>923.8000000000001</ele><time>2026-04-19T08:26:20Z</time></trkpt><trkpt lat="42.43996156834325" lon="12.71743835482894"><ele>920.4000000000001</ele><time>2026-04-19T08:26:22Z</time></trkpt><trkpt lat="42.43988440772834" lon="12.71746747854647"><ele>917.0</ele><time>2026-04-19T08:26:25Z</time></trkpt><trkpt lat="42.43981852223401" lon="12.717438030096561"><ele>917.0000000000001</ele><time>2026-04-19T08:26:28Z</time></trkpt><trkpt lat="42.439802736256794" lon="12.717324983976729"><ele>917.0</ele><time>2026-04-19T08:26:31Z</time></trkpt><trkpt lat="42.439837582709934" lon="12.717170542358446"><ele>917.0</ele><time>2026-04-19T08:26:33Z</time></trkpt><trkpt lat="42.4398395133298" lon="12.71707148570284"><ele>917.0</ele><time>2026-04-19T08:26:34Z</time></trkpt><trkpt lat="42.43983990649214" lon="12.7169528304247"><ele>917.0000000000001</ele><time>2026-04-19T08:26:35Z</time></trkpt><trkpt lat="42.43983598520019" lon="12.716838695679021"><ele>917.0</ele><time>2026-04-19T08:26:36Z</time></trkpt><trkpt lat="42.43984502670925" lon="12.716712925245387"><ele>916.0</ele><time>2026-04-19T08:26:37Z</time></trkpt><trkpt lat="42.43986592348339" lon="12.716612361424357"><ele>915.0</ele><time>2026-04-19T08:26:38Z</time></trkpt><trkpt lat="42.43990034117079" lon="12.716525393132075"><ele>914.0</ele><time>2026-04-19T08:26:39Z</time></trkpt><trkpt lat="42.439935484186904" lon="12.716371322860493"><ele>913.0</ele><time>2026-04-19T08:26:41Z</time></trkpt><trkpt lat="42.43995288718569" lon="12.716213427698536"><ele>912.0</ele><time>2026-04-19T08:26:43Z</time></trkpt><trkpt lat="42.43996689136435" lon="12.716070174626022"><ele>911.3333333333334</ele><time>2026-04-19T08:26:45Z</time></trkpt><trkpt lat="42.43995925034585" lon="12.715916797609175"><ele>910.6666666666667</ele><time>2026-04-19T08:26:47Z</time></trkpt><trkpt lat="42.43994480850122" lon="12.715826598455207"><ele>910.0</ele><time>2026-04-19T08:26:48Z</time></trkpt><trkpt lat="42.43990880778705" lon="12.715692982324336"><ele>909.3333333333334</ele><time>2026-04-19T08:26:50Z</time></trkpt><trkpt lat="42.4398677809298" lon="12.715613303056667"><ele>908.6666666666667</ele><time>2026-04-19T08:26:51Z</time></trkpt><trkpt lat="42.43982602551407" lon="12.715544336466046"><ele>908.0</ele><time>2026-04-19T08:26:52Z</time></trkpt><trkpt lat="42.4397524037765" lon="12.715430174461174"><ele>908.0</ele><time>2026-04-19T08:26:54Z</time></trkpt><trkpt lat="42.439674990210854" lon="12.71532102621682"><ele>908.0</ele><time>2026-04-19T08:26:56Z</time></trkpt><trkpt lat="42.4396109047128" lon="12.715224590871756"><ele>908.0</ele><time>2026-04-19T08:26:58Z</time></trkpt><trkpt lat="42.439567296127976" lon="12.715080118717445"><ele>908.0</ele><time>2026-04-19T08:27:00Z</time></trkpt><trkpt lat="42.43953318322219" lon="12.71492707729631"><ele>908.0</ele><time>2026-04-19T08:27:02Z</time></trkpt><trkpt lat="42.43950610792348" lon="12.714845550022977"><ele>907.0</ele><time>2026-04-19T08:27:03Z</time></trkpt><trkpt lat="42.439474607861264" lon="12.714766463892927"><ele>906.0</ele><time>2026-04-19T08:27:04Z</time></trkpt><trkpt lat="42.43940484254778" lon="12.71460315677206"><ele>905.0</ele><time>2026-04-19T08:27:06Z</time></trkpt><trkpt lat="42.439379375619204" lon="12.714495329581291"><ele>904.0</ele><time>2026-04-19T08:27:07Z</time></trkpt><trkpt lat="42.43936877924011" lon="12.71437490981651"><ele>903.0</ele><time>2026-04-19T08:27:08Z</time></trkpt><trkpt lat="42.43936169388174" lon="12.714252949124258"><ele>902.0</ele><time>2026-04-19T08:27:09Z</time></trkpt><trkpt lat="42.439348999200384" lon="12.714140996538605"><ele>901.0</ele><time>2026-04-19T08:27:10Z</time></trkpt><trkpt lat="42.43933478464016" lon="12.714046979114212"><ele>900.0</ele><time>2026-04-19T08:27:11Z</time></trkpt><trkpt lat="42.43930529354257" lon="12.71388689708541"><ele>899.0</ele><time>2026-04-19T08:27:13Z</time></trkpt><trkpt lat="42.439274692351674" lon="12.713731166791549"><ele>898.0</ele><time>2026-04-19T08:27:15Z</time></trkpt><trkpt lat="42.43923032265353" lon="12.713584627950578"><ele>896.8</ele><time>2026-04-19T08:27:17Z</time></trkpt><trkpt lat="42.439180417383966" lon="12.713481628070324"><ele>895.5999999999999</ele><time>2026-04-19T08:27:19Z</time></trkpt><trkpt lat="42.439149818369216" lon="12.713350359296818"><ele>894.4000000000001</ele><time>2026-04-19T08:27:22Z</time></trkpt><trkpt lat="42.439136766335466" lon="12.713208364635442"><ele>893.2</ele><time>2026-04-19T08:27:24Z</time></trkpt><trkpt lat="42.43910079835877" lon="12.713066336968295"><ele>892.0</ele><time>2026-04-19T08:27:26Z</time></trkpt><trkpt lat="42.43905186080227" lon="12.712945341052636"><ele>891.9999999999999</ele><time>2026-04-19T08:27:28Z</time></trkpt><trkpt lat="42.43901807504194" lon="12.712859351717794"><ele>892.0</ele><time>2026-04-19T08:27:31Z</time></trkpt><trkpt lat="42.438958138263736" lon="12.712790611892641"><ele>892.0</ele><time>2026-04-19T08:27:34Z</time></trkpt><trkpt lat="42.43890097726085" lon="12.712722090608672"><ele>892.0</ele><time>2026-04-19T08:27:36Z</time></trkpt><trkpt lat="42.43888843393906" lon="12.712621905386571"><ele>891.9999999999999</ele><time>2026-04-19T08:27:38Z</time></trkpt><trkpt lat="42.43889070087799" lon="12.712510804962339"><ele>892.0</ele><time>2026-04-19T08:27:40Z</time></trkpt><trkpt lat="42.43887431193191" lon="12.71238951834224"><ele>890.8</ele><time>2026-04-19T08:27:42Z</time></trkpt><trkpt lat="42.43884660514076" lon="12.712240436928882"><ele>889.6</ele><time>2026-04-19T08:27:44Z</time></trkpt><trkpt lat="42.43883341737151" lon="12.712096138580215"><ele>888.3999999999999</ele><time>2026-04-19T08:27:46Z</time></trkpt><trkpt lat="42.43884104444029" lon="12.711953869665505"><ele>887.1999999999999</ele><time>2026-04-19T08:27:48Z</time></trkpt><trkpt lat="42.43890241287774" lon="12.711810340407936"><ele>886.0</ele><time>2026-04-19T08:27:50Z</time></trkpt><trkpt lat="42.43894327422212" lon="12.711737964993063"><ele>885.8</ele><time>2026-04-19T08:27:51Z</time></trkpt><trkpt lat="42.43898296447578" lon="12.711656734406931"><ele>885.5999999999999</ele><time>2026-04-19T08:27:52Z</time></trkpt><trkpt lat="42.43901527696669" lon="12.71157821661589"><ele>885.4</ele><time>2026-04-19T08:27:53Z</time></trkpt><trkpt lat="42.43905197658392" lon="12.711430404838705"><ele>885.2</ele><time>2026-04-19T08:27:55Z</time></trkpt><trkpt lat="42.43906689020406" lon="12.711288961429618"><ele>885.0</ele><time>2026-04-19T08:27:57Z</time></trkpt><trkpt lat="42.43905655938015" lon="12.711150897522892"><ele>885.4</ele><time>2026-04-19T08:27:59Z</time></trkpt><trkpt lat="42.439013406694116" lon="12.71099731546604"><ele>885.8</ele><time>2026-04-19T08:28:01Z</time></trkpt><trkpt lat="42.43896546670254" lon="12.710861148409482"><ele>886.2</ele><time>2026-04-19T08:28:03Z</time></trkpt><trkpt lat="42.438876969686746" lon="12.710792071218373"><ele>886.6</ele><time>2026-04-19T08:28:04.999Z</time></trkpt><trkpt lat="42.43877974838289" lon="12.710739164183405"><ele>887.0</ele><time>2026-04-19T08:28:06.999Z</time></trkpt><trkpt lat="42.43871247337124" lon="12.710638530635485"><ele>887.2</ele><time>2026-04-19T08:28:08.999Z</time></trkpt><trkpt lat="42.43868463299855" lon="12.710507427146965"><ele>887.4000000000001</ele><time>2026-04-19T08:28:10.999Z</time></trkpt><trkpt lat="42.438739093849705" lon="12.710341893383882"><ele>887.5999999999999</ele><time>2026-04-19T08:28:12.999Z</time></trkpt><trkpt lat="42.43877906801212" lon="12.710239323322922"><ele>887.8</ele><time>2026-04-19T08:28:13.999Z</time></trkpt><trkpt lat="42.43880273495086" lon="12.710151211836568"><ele>888.0</ele><time>2026-04-19T08:28:14.999Z</time></trkpt><trkpt lat="42.43879092950208" lon="12.710049098730654"><ele>888.0</ele><time>2026-04-19T08:28:16.999Z</time></trkpt><trkpt lat="42.43880483266219" lon="12.709946088816613"><ele>888.0</ele><time>2026-04-19T08:28:18.999Z</time></trkpt><trkpt lat="42.43879248170594" lon="12.70984767206656"><ele>888.0</ele><time>2026-04-19T08:28:20.999Z</time></trkpt><trkpt lat="42.438759546391886" lon="12.709720754803467"><ele>888.0</ele><time>2026-04-19T08:28:22.999Z</time></trkpt><trkpt lat="42.43872670753621" lon="12.709611154966234"><ele>888.0</ele><time>2026-04-19T08:28:24.999Z</time></trkpt><trkpt lat="42.43869574480776" lon="12.709527746642786"><ele>888.0</ele><time>2026-04-19T08:28:26.999Z</time></trkpt><trkpt lat="42.438626607332736" lon="12.709430087012793"><ele>887.1666666666666</ele><time>2026-04-19T08:28:28.999Z</time></trkpt><trkpt lat="42.4385658242049" lon="12.709354922659704"><ele>886.3333333333333</ele><time>2026-04-19T08:28:29.999Z</time></trkpt><trkpt lat="42.43850888389007" lon="12.709275556407409"><ele>885.5</ele><time>2026-04-19T08:28:30.999Z</time></trkpt><trkpt lat="42.43844638010377" lon="12.709195350476175"><ele>884.6666666666666</ele><time>2026-04-19T08:28:32Z</time></trkpt><trkpt lat="42.43838316308572" lon="12.7091038401696"><ele>883.8333333333333</ele><time>2026-04-19T08:28:33Z</time></trkpt><trkpt lat="42.43832691243097" lon="12.708980794908864"><ele>883.0</ele><time>2026-04-19T08:28:34Z</time></trkpt><trkpt lat="42.43825804451204" lon="12.708838283095162"><ele>883.0</ele><time>2026-04-19T08:28:35Z</time></trkpt><trkpt lat="42.43819732457483" lon="12.708697697731193"><ele>883.0</ele><time>2026-04-19T08:28:36Z</time></trkpt><trkpt lat="42.43815127633119" lon="12.70859825273428"><ele>883.0</ele><time>2026-04-19T08:28:37Z</time></trkpt><trkpt lat="42.43812550363777" lon="12.70848539076514"><ele>883.0</ele><time>2026-04-19T08:28:39Z</time></trkpt><trkpt lat="42.43807020049663" lon="12.708381513716192"><ele>883.0</ele><time>2026-04-19T08:28:41Z</time></trkpt><trkpt lat="42.4379881977379" lon="12.70831917830799"><ele>880.9999999999999</ele><time>2026-04-19T08:28:43Z</time></trkpt><trkpt lat="42.43791774944358" lon="12.708274052082238"><ele>879.0</ele><time>2026-04-19T08:28:45Z</time></trkpt><trkpt lat="42.43783811586295" lon="12.708261415957923"><ele>877.0</ele><time>2026-04-19T08:28:47Z</time></trkpt><trkpt lat="42.43774649926345" lon="12.708179946306679"><ele>875.0</ele><time>2026-04-19T08:28:49Z</time></trkpt><trkpt lat="42.4377071765762" lon="12.708105983157717"><ele>872.9999999999999</ele><time>2026-04-19T08:28:50Z</time></trkpt><trkpt lat="42.4376342241321" lon="12.708033212367857"><ele>871.0</ele><time>2026-04-19T08:28:52Z</time></trkpt><trkpt lat="42.437533938513404" lon="12.707974949114005"><ele>871.0</ele><time>2026-04-19T08:28:54Z</time></trkpt><trkpt lat="42.437438267239344" lon="12.707900419630697"><ele>870.9999999999999</ele><time>2026-04-19T08:28:56Z</time></trkpt><trkpt lat="42.43737575452029" lon="12.707772756982955"><ele>870.9999999999999</ele><time>2026-04-19T08:28:58Z</time></trkpt><trkpt lat="42.43734908593279" lon="12.70764597228298"><ele>871.0</ele><time>2026-04-19T08:29:00Z</time></trkpt><trkpt lat="42.43734445345273" lon="12.707525523533741"><ele>871.0</ele><time>2026-04-19T08:29:02Z</time></trkpt><trkpt lat="42.43736021272236" lon="12.70742357570327"><ele>868.4285714285714</ele><time>2026-04-19T08:29:04Z</time></trkpt><trkpt lat="42.43735377124454" lon="12.707326234599112"><ele>865.8571428571429</ele><time>2026-04-19T08:29:07Z</time></trkpt><trkpt lat="42.43729768125967" lon="12.707270089822874"><ele>863.2857142857142</ele><time>2026-04-19T08:29:11Z</time></trkpt><trkpt lat="42.43722511763694" lon="12.707256739160615"><ele>860.7142857142858</ele><time>2026-04-19T08:29:14Z</time></trkpt><trkpt lat="42.437162695857594" lon="12.707307610294892"><ele>858.1428571428572</ele><time>2026-04-19T08:29:17Z</time></trkpt><trkpt lat="42.43709749543062" lon="12.707293140681369"><ele>855.5714285714286</ele><time>2026-04-19T08:29:22Z</time></trkpt><trkpt lat="42.43709857379709" lon="12.70720438607586"><ele>853.0</ele><time>2026-04-19T08:29:30Z</time></trkpt><trkpt lat="42.43712788773467" lon="12.707114047892057"><ele>852.9999999999999</ele><time>2026-04-19T08:29:32Z</time></trkpt><trkpt lat="42.43715285779697" lon="12.707026168403175"><ele>853.0</ele><time>2026-04-19T08:29:34Z</time></trkpt><trkpt lat="42.437168886348" lon="12.706930999456475"><ele>853.0</ele><time>2026-04-19T08:29:36Z</time></trkpt><trkpt lat="42.43718024002297" lon="12.706830015763138"><ele>853.0</ele><time>2026-04-19T08:29:39Z</time></trkpt><trkpt lat="42.43722565513567" lon="12.706724804873007"><ele>852.9999999999999</ele><time>2026-04-19T08:29:42Z</time></trkpt><trkpt lat="42.43723491224575" lon="12.706607161525573"><ele>853.0</ele><time>2026-04-19T08:29:45Z</time></trkpt><trkpt lat="42.43721345799533" lon="12.706489140250092"><ele>850.5714285714286</ele><time>2026-04-19T08:29:48Z</time></trkpt><trkpt lat="42.43721637505081" lon="12.706384700189057"><ele>848.1428571428572</ele><time>2026-04-19T08:29:51Z</time></trkpt><trkpt lat="42.43717704521554" lon="12.70631574585234"><ele>845.7142857142858</ele><time>2026-04-19T08:29:54Z</time></trkpt><trkpt lat="42.43710883184382" lon="12.706342885210297"><ele>843.2857142857142</ele><time>2026-04-19T08:29:58Z</time></trkpt><trkpt lat="42.43706205472429" lon="12.706416034767932"><ele>840.8571428571429</ele><time>2026-04-19T08:30:02Z</time></trkpt><trkpt lat="42.43699265951958" lon="12.70640079135874"><ele>838.4285714285714</ele><time>2026-04-19T08:30:07Z</time></trkpt><trkpt lat="42.436983618952574" lon="12.706283398047526"><ele>836.0</ele><time>2026-04-19T08:30:10Z</time></trkpt><trkpt lat="42.43700442118971" lon="12.706153898691584"><ele>833.1999999999999</ele><time>2026-04-19T08:30:12Z</time></trkpt><trkpt lat="42.43702119914528" lon="12.706019194947038"><ele>830.4</ele><time>2026-04-19T08:30:14Z</time></trkpt><trkpt lat="42.4370407133252" lon="12.70587751849328"><ele>827.6</ele><time>2026-04-19T08:30:16Z</time></trkpt><trkpt lat="42.437061516154145" lon="12.705745525101678"><ele>824.8</ele><time>2026-04-19T08:30:18Z</time></trkpt><trkpt lat="42.43712253616812" lon="12.705656787272696"><ele>822.0</ele><time>2026-04-19T08:30:20Z</time></trkpt><trkpt lat="42.43720339008135" lon="12.705611085753878"><ele>822.0</ele><time>2026-04-19T08:30:32.999Z</time></trkpt><trkpt lat="42.43728255575175" lon="12.705539726072917"><ele>822.0</ele><time>2026-04-19T08:30:34.999Z</time></trkpt><trkpt lat="42.437353069845734" lon="12.705451222125955"><ele>822.0</ele><time>2026-04-19T08:30:36.999Z</time></trkpt><trkpt lat="42.43742413959516" lon="12.705352072063684"><ele>822.0</ele><time>2026-04-19T08:30:39Z</time></trkpt><trkpt lat="42.43747863957285" lon="12.705271636394906"><ele>822.0</ele><time>2026-04-19T08:30:41Z</time></trkpt><trkpt lat="42.43752160903218" lon="12.705203915818899"><ele>822.0</ele><time>2026-04-19T08:30:43Z</time></trkpt><trkpt lat="42.43756382146483" lon="12.705134771465753"><ele>821.1428571428571</ele><time>2026-04-19T08:30:45Z</time></trkpt><trkpt lat="42.43761239199643" lon="12.705048977753425"><ele>820.2857142857142</ele><time>2026-04-19T08:30:47Z</time></trkpt><trkpt lat="42.43764854443329" lon="12.70496456937403"><ele>819.4285714285714</ele><time>2026-04-19T08:30:51Z</time></trkpt><trkpt lat="42.4376796953275" lon="12.704886755417252"><ele>818.5714285714286</ele><time>2026-04-19T08:30:54Z</time></trkpt><trkpt lat="42.437705017168135" lon="12.704781815860843"><ele>817.7142857142858</ele><time>2026-04-19T08:30:57Z</time></trkpt><trkpt lat="42.43774885620995" lon="12.704685757991989"><ele>816.8571428571429</ele><time>2026-04-19T08:31:00Z</time></trkpt><trkpt lat="42.437776237084385" lon="12.704603730240395"><ele>816.0</ele><time>2026-04-19T08:31:03Z</time></trkpt><trkpt lat="42.437752102595624" lon="12.704478003868347"><ele>816.3333333333334</ele><time>2026-04-19T08:31:06Z</time></trkpt><trkpt lat="42.43773237038629" lon="12.704392802933224"><ele>816.6666666666667</ele><time>2026-04-19T08:31:08Z</time></trkpt><trkpt lat="42.4378037642626" lon="12.704299168733195"><ele>817.0</ele><time>2026-04-19T08:34:24.999Z</time></trkpt><trkpt lat="42.43787456949989" lon="12.704342041945427"><ele>817.3333333333334</ele><time>2026-04-19T08:34:26.999Z</time></trkpt><trkpt lat="42.437987934960766" lon="12.704414058385375"><ele>817.6666666666667</ele><time>2026-04-19T08:34:28.999Z</time></trkpt><trkpt lat="42.43805360617058" lon="12.704428966410482"><ele>818.0</ele><time>2026-04-19T08:34:29.999Z</time></trkpt><trkpt lat="42.43816260042915" lon="12.70443504991009"><ele>818.0000000000001</ele><time>2026-04-19T08:34:31.999Z</time></trkpt><trkpt lat="42.43827430494375" lon="12.704444810714167"><ele>818.0</ele><time>2026-04-19T08:34:33.999Z</time></trkpt><trkpt lat="42.43833975102059" lon="12.70444629167263"><ele>818.0</ele><time>2026-04-19T08:34:34.999Z</time></trkpt><trkpt lat="42.43841045607146" lon="12.704449200635414"><ele>818.0</ele><time>2026-04-19T08:34:35.999Z</time></trkpt><trkpt lat="42.43848967122704" lon="12.70445698670972"><ele>818.0000000000001</ele><time>2026-04-19T08:34:36.999Z</time></trkpt><trkpt lat="42.43856281704453" lon="12.704466979631363"><ele>818.0</ele><time>2026-04-19T08:34:37.999Z</time></trkpt><trkpt lat="42.4386332357459" lon="12.704476861694008"><ele>818.0000000000001</ele><time>2026-04-19T08:34:38.999Z</time></trkpt><trkpt lat="42.438702219258765" lon="12.704485277886544"><ele>818.0</ele><time>2026-04-19T08:34:39.999Z</time></trkpt><trkpt lat="42.43877400699959" lon="12.704496834491232"><ele>818.0</ele><time>2026-04-19T08:34:40.999Z</time></trkpt><trkpt lat="42.438851784386266" lon="12.704515103837647"><ele>818.0</ele><time>2026-04-19T08:34:41.999Z</time></trkpt><trkpt lat="42.43893599945021" lon="12.704536425797263"><ele>818.0000000000001</ele><time>2026-04-19T08:34:42.999Z</time></trkpt><trkpt lat="42.439015518160176" lon="12.70455592125504"><ele>818.0</ele><time>2026-04-19T08:34:43.999Z</time></trkpt><trkpt lat="42.43909622159412" lon="12.704572488149044"><ele>818.5000000000001</ele><time>2026-04-19T08:34:44.999Z</time></trkpt><trkpt lat="42.439182537429694" lon="12.704583062406066"><ele>819.0</ele><time>2026-04-19T08:34:45.999Z</time></trkpt><trkpt lat="42.43925935272388" lon="12.704585968878838"><ele>819.5</ele><time>2026-04-19T08:34:46.999Z</time></trkpt><trkpt lat="42.439344045077355" lon="12.704582881750907"><ele>820.0</ele><time>2026-04-19T08:34:47.999Z</time></trkpt><trkpt lat="42.439418997724275" lon="12.70457534495571"><ele>820.5000000000001</ele><time>2026-04-19T08:34:48.999Z</time></trkpt><trkpt lat="42.43950211712127" lon="12.704540721228677"><ele>821.0</ele><time>2026-04-19T08:34:49.999Z</time></trkpt><trkpt lat="42.43958364048597" lon="12.704497839139215"><ele>820.1999999999999</ele><time>2026-04-19T08:34:50.999Z</time></trkpt><trkpt lat="42.439665737223095" lon="12.704447119044499"><ele>819.4</ele><time>2026-04-19T08:34:51.999Z</time></trkpt><trkpt lat="42.43974553750664" lon="12.704403814017441"><ele>818.6</ele><time>2026-04-19T08:34:52.999Z</time></trkpt><trkpt lat="42.43983104785528" lon="12.704344917690806"><ele>817.8</ele><time>2026-04-19T08:34:53.999Z</time></trkpt><trkpt lat="42.43991870808085" lon="12.704292155276871"><ele>817.0</ele><time>2026-04-19T08:34:54.999Z</time></trkpt><trkpt lat="42.44000654363784" lon="12.70424847596055"><ele>816.9999999999999</ele><time>2026-04-19T08:34:55.999Z</time></trkpt><trkpt lat="42.44009343103637" lon="12.704208969065434"><ele>817.0</ele><time>2026-04-19T08:34:56.999Z</time></trkpt><trkpt lat="42.440172814266774" lon="12.704178448542248"><ele>817.0</ele><time>2026-04-19T08:34:57.999Z</time></trkpt><trkpt lat="42.44024888888107" lon="12.704150887824738"><ele>817.0</ele><time>2026-04-19T08:34:58.999Z</time></trkpt><trkpt lat="42.44033130253858" lon="12.704129063131402"><ele>816.9999999999999</ele><time>2026-04-19T08:34:59.999Z</time></trkpt><trkpt lat="42.44041676305988" lon="12.704120999507145"><ele>817.0</ele><time>2026-04-19T08:35:00.999Z</time></trkpt><trkpt lat="42.440501652220654" lon="12.704111427289666"><ele>818.4999999999999</ele><time>2026-04-19T08:35:02Z</time></trkpt><trkpt lat="42.44058633090953" lon="12.704097011445338"><ele>820.0</ele><time>2026-04-19T08:35:03Z</time></trkpt><trkpt lat="42.44066882429331" lon="12.704076717393264"><ele>821.5</ele><time>2026-04-19T08:35:04Z</time></trkpt><trkpt lat="42.44075322973867" lon="12.704056821206477"><ele>823.0</ele><time>2026-04-19T08:35:05Z</time></trkpt><trkpt lat="42.44083350601381" lon="12.704031766855335"><ele>824.4999999999999</ele><time>2026-04-19T08:35:06Z</time></trkpt><trkpt lat="42.440917358752955" lon="12.704000873939123"><ele>826.0</ele><time>2026-04-19T08:35:07Z</time></trkpt><trkpt lat="42.44099652396313" lon="12.70396291499267"><ele>825.9999999999999</ele><time>2026-04-19T08:35:08Z</time></trkpt><trkpt lat="42.44107858403506" lon="12.703941550907341"><ele>826.0</ele><time>2026-04-19T08:35:09Z</time></trkpt><trkpt lat="42.44116050073519" lon="12.703934374704476"><ele>826.0</ele><time>2026-04-19T08:35:10Z</time></trkpt><trkpt lat="42.44123569392498" lon="12.703933507690241"><ele>826.0</ele><time>2026-04-19T08:35:11Z</time></trkpt><trkpt lat="42.441314972682285" lon="12.703929092880054"><ele>825.9999999999999</ele><time>2026-04-19T08:35:12Z</time></trkpt><trkpt lat="42.44139769134726" lon="12.703942734801467"><ele>826.0</ele><time>2026-04-19T08:35:13Z</time></trkpt><trkpt lat="42.44147340970088" lon="12.703948232455884"><ele>827.1666666666666</ele><time>2026-04-19T08:35:14Z</time></trkpt><trkpt lat="42.44155082860534" lon="12.703942699756343"><ele>828.3333333333333</ele><time>2026-04-19T08:35:15Z</time></trkpt><trkpt lat="42.441628628238156" lon="12.703942133581865"><ele>829.5</ele><time>2026-04-19T08:35:16Z</time></trkpt><trkpt lat="42.44170738726186" lon="12.703935295575892"><ele>830.6666666666667</ele><time>2026-04-19T08:35:17Z</time></trkpt><trkpt lat="42.44178391341367" lon="12.703931614120838"><ele>831.8333333333334</ele><time>2026-04-19T08:35:18Z</time></trkpt><trkpt lat="42.44186482256073" lon="12.703943108657574"><ele>833.0</ele><time>2026-04-19T08:35:19Z</time></trkpt><trkpt lat="42.4419434132166" lon="12.703970674155732"><ele>833.0000000000001</ele><time>2026-04-19T08:35:20Z</time></trkpt><trkpt lat="42.44202578576483" lon="12.703999795936758"><ele>833.0</ele><time>2026-04-19T08:35:21Z</time></trkpt><trkpt lat="42.44211033135307" lon="12.70402691210149"><ele>833.0</ele><time>2026-04-19T08:35:22Z</time></trkpt><trkpt lat="42.44218828312915" lon="12.70404490960872"><ele>833.0</ele><time>2026-04-19T08:35:23Z</time></trkpt><trkpt lat="42.44227486919674" lon="12.704063967065851"><ele>833.0000000000001</ele><time>2026-04-19T08:35:24Z</time></trkpt><trkpt lat="42.442355772542484" lon="12.704093455564951"><ele>833.0</ele><time>2026-04-19T08:35:25Z</time></trkpt><trkpt lat="42.4424368070811" lon="12.70411273731812"><ele>832.7142857142857</ele><time>2026-04-19T08:35:26Z</time></trkpt><trkpt lat="42.44251068261466" lon="12.704121740750592"><ele>832.4285714285714</ele><time>2026-04-19T08:35:27Z</time></trkpt><trkpt lat="42.44258131601359" lon="12.704138379050093"><ele>832.1428571428571</ele><time>2026-04-19T08:35:28Z</time></trkpt><trkpt lat="42.442646372867564" lon="12.70414255937331"><ele>831.8571428571429</ele><time>2026-04-19T08:35:29Z</time></trkpt><trkpt lat="42.44271121479385" lon="12.70412356268188"><ele>831.5714285714286</ele><time>2026-04-19T08:35:30Z</time></trkpt><trkpt lat="42.44277487562886" lon="12.704096781906076"><ele>831.2857142857142</ele><time>2026-04-19T08:35:31Z</time></trkpt><trkpt lat="42.44283765892731" lon="12.704041775924228"><ele>831.0</ele><time>2026-04-19T08:35:32Z</time></trkpt><trkpt lat="42.44288770214583" lon="12.703987600047698"><ele>832.1999999999999</ele><time>2026-04-19T08:35:33Z</time></trkpt><trkpt lat="42.442968640353754" lon="12.703881249461203"><ele>833.4</ele><time>2026-04-19T08:35:35Z</time></trkpt><trkpt lat="42.443075439748455" lon="12.703778775005201"><ele>834.6</ele><time>2026-04-19T08:35:37Z</time></trkpt><trkpt lat="42.44313393634871" lon="12.7037347830509"><ele>835.8</ele><time>2026-04-19T08:35:38Z</time></trkpt><trkpt lat="42.44320482754265" lon="12.703710464364825"><ele>837.0</ele><time>2026-04-19T08:35:39Z</time></trkpt><trkpt lat="42.44327081502733" lon="12.703704570288219"><ele>837.0</ele><time>2026-04-19T08:35:40Z</time></trkpt><trkpt lat="42.44336407370137" lon="12.703700628646102"><ele>837.0</ele><time>2026-04-19T08:35:41Z</time></trkpt><trkpt lat="42.44345676825725" lon="12.703714229540358"><ele>837.0</ele><time>2026-04-19T08:35:42Z</time></trkpt><trkpt lat="42.4435534000956" lon="12.703712850666593"><ele>837.0</ele><time>2026-04-19T08:35:43Z</time></trkpt><trkpt lat="42.443653914148484" lon="12.703709288300734"><ele>837.0</ele><time>2026-04-19T08:35:44Z</time></trkpt><trkpt lat="42.4437544188087" lon="12.703708933384704"><ele>838.0</ele><time>2026-04-19T08:35:45Z</time></trkpt><trkpt lat="42.4438393159986" lon="12.703708712325996"><ele>839.0</ele><time>2026-04-19T08:35:46Z</time></trkpt><trkpt lat="42.44391473581596" lon="12.703726324943176"><ele>840.0</ele><time>2026-04-19T08:35:47Z</time></trkpt><trkpt lat="42.44398932046986" lon="12.703756769544537"><ele>841.0</ele><time>2026-04-19T08:35:48Z</time></trkpt><trkpt lat="42.44408209317099" lon="12.703762963904731"><ele>842.0</ele><time>2026-04-19T08:35:49Z</time></trkpt><trkpt lat="42.44416450739559" lon="12.703781246810683"><ele>843.0</ele><time>2026-04-19T08:35:50Z</time></trkpt><trkpt lat="42.4442519328933" lon="12.703794776905728"><ele>843.0</ele><time>2026-04-19T08:35:51Z</time></trkpt><trkpt lat="42.44432952183239" lon="12.703784409553847"><ele>843.0</ele><time>2026-04-19T08:35:51.999Z</time></trkpt><trkpt lat="42.44440883973965" lon="12.703765147270905"><ele>843.0</ele><time>2026-04-19T08:35:52.999Z</time></trkpt><trkpt lat="42.44449782029039" lon="12.70375714885445"><ele>843.0</ele><time>2026-04-19T08:35:53.999Z</time></trkpt><trkpt lat="42.444582262780145" lon="12.703742935148021"><ele>843.0</ele><time>2026-04-19T08:35:54.999Z</time></trkpt><trkpt lat="42.44466161080449" lon="12.703727802453606"><ele>843.0</ele><time>2026-04-19T08:35:55.999Z</time></trkpt><trkpt lat="42.44474260941604" lon="12.70372045319686"><ele>843.1666666666666</ele><time>2026-04-19T08:35:56.999Z</time></trkpt><trkpt lat="42.44482139613866" lon="12.703712480694136"><ele>843.3333333333333</ele><time>2026-04-19T08:35:57.999Z</time></trkpt><trkpt lat="42.44490289322592" lon="12.703697139000168"><ele>843.5</ele><time>2026-04-19T08:35:58.999Z</time></trkpt><trkpt lat="42.44499165123971" lon="12.703685250835875"><ele>843.6666666666666</ele><time>2026-04-19T08:35:59.999Z</time></trkpt><trkpt lat="42.4450742461603" lon="12.70367254630403"><ele>843.8333333333333</ele><time>2026-04-19T08:36:00.999Z</time></trkpt><trkpt lat="42.44514968498104" lon="12.703675002665152"><ele>844.0</ele><time>2026-04-19T08:36:01.999Z</time></trkpt><trkpt lat="42.445235858510564" lon="12.703684857842761"><ele>843.9999999999999</ele><time>2026-04-19T08:36:02.999Z</time></trkpt><trkpt lat="42.44532371012467" lon="12.703687671789242"><ele>844.0</ele><time>2026-04-19T08:36:03.999Z</time></trkpt><trkpt lat="42.44541301212701" lon="12.703689839239772"><ele>844.0</ele><time>2026-04-19T08:36:04.999Z</time></trkpt><trkpt lat="42.445503026137025" lon="12.70370088560165"><ele>844.0</ele><time>2026-04-19T08:36:05.999Z</time></trkpt><trkpt lat="42.44559248291519" lon="12.703712117207372"><ele>843.9999999999999</ele><time>2026-04-19T08:36:06.999Z</time></trkpt><trkpt lat="42.44567938505923" lon="12.703717708450549"><ele>844.0</ele><time>2026-04-19T08:36:07.999Z</time></trkpt><trkpt lat="42.44576522216705" lon="12.703722218341179"><ele>844.3333333333333</ele><time>2026-04-19T08:36:08.999Z</time></trkpt><trkpt lat="42.44584879027462" lon="12.703721495313829"><ele>844.6666666666666</ele><time>2026-04-19T08:36:09.999Z</time></trkpt><trkpt lat="42.44593352597151" lon="12.70371768770753"><ele>845.0</ele><time>2026-04-19T08:36:10.999Z</time></trkpt><trkpt lat="42.44602160610548" lon="12.703721430258025"><ele>845.3333333333333</ele><time>2026-04-19T08:36:11.999Z</time></trkpt><trkpt lat="42.44610571364253" lon="12.703747302175598"><ele>845.6666666666666</ele><time>2026-04-19T08:36:12.999Z</time></trkpt><trkpt lat="42.44619356511407" lon="12.70378966285452"><ele>846.0</ele><time>2026-04-19T08:36:13.999Z</time></trkpt><trkpt lat="42.44627215527413" lon="12.703824435735509"><ele>845.4</ele><time>2026-04-19T08:36:14.999Z</time></trkpt><trkpt lat="42.44634952397159" lon="12.703858969113012"><ele>844.8</ele><time>2026-04-19T08:36:15.999Z</time></trkpt><trkpt lat="42.44643235348224" lon="12.703893912198163"><ele>844.1999999999999</ele><time>2026-04-19T08:36:16.999Z</time></trkpt><trkpt lat="42.446530585227904" lon="12.703938674095879"><ele>843.5999999999999</ele><time>2026-04-19T08:36:17.999Z</time></trkpt><trkpt lat="42.44662483155087" lon="12.70398264560543"><ele>843.0</ele><time>2026-04-19T08:36:18.999Z</time></trkpt><trkpt lat="42.44670624353178" lon="12.704009429045396"><ele>843.0</ele><time>2026-04-19T08:36:19.999Z</time></trkpt><trkpt lat="42.44678274670448" lon="12.70402546776436"><ele>843.0</ele><time>2026-04-19T08:36:20.999Z</time></trkpt><trkpt lat="42.44685544466589" lon="12.704027443567526"><ele>843.0</ele><time>2026-04-19T08:36:21.999Z</time></trkpt><trkpt lat="42.4469389439419" lon="12.704001772563824"><ele>843.0</ele><time>2026-04-19T08:36:22.999Z</time></trkpt><trkpt lat="42.447009181463" lon="12.703974107972122"><ele>843.0</ele><time>2026-04-19T08:36:23.999Z</time></trkpt><trkpt lat="42.447088347582195" lon="12.70390843946065"><ele>843.0</ele><time>2026-04-19T08:36:24.999Z</time></trkpt><trkpt lat="42.447165000439874" lon="12.7038388057333"><ele>844.4</ele><time>2026-04-19T08:36:25.999Z</time></trkpt><trkpt lat="42.44724002636498" lon="12.703774951801751"><ele>845.8</ele><time>2026-04-19T08:36:26.999Z</time></trkpt><trkpt lat="42.44731392180478" lon="12.703702406429164"><ele>847.2</ele><time>2026-04-19T08:36:27.999Z</time></trkpt><trkpt lat="42.44739311202697" lon="12.703621302570943"><ele>848.6</ele><time>2026-04-19T08:36:28.999Z</time></trkpt><trkpt lat="42.447475954074925" lon="12.703552950495906"><ele>850.0</ele><time>2026-04-19T08:36:29.999Z</time></trkpt><trkpt lat="42.44755539768455" lon="12.70349282438488"><ele>849.8333333333333</ele><time>2026-04-19T08:36:30.999Z</time></trkpt><trkpt lat="42.447630659080446" lon="12.703433761859166"><ele>849.6666666666666</ele><time>2026-04-19T08:36:31.999Z</time></trkpt><trkpt lat="42.44770309891877" lon="12.703373291059162"><ele>849.5</ele><time>2026-04-19T08:36:32.999Z</time></trkpt><trkpt lat="42.44777019829704" lon="12.703311824458899"><ele>849.3333333333333</ele><time>2026-04-19T08:36:33.999Z</time></trkpt><trkpt lat="42.447847766947234" lon="12.703267110987676"><ele>849.1666666666666</ele><time>2026-04-19T08:36:34.999Z</time></trkpt><trkpt lat="42.44793982939579" lon="12.703238437676415"><ele>849.0</ele><time>2026-04-19T08:36:35.999Z</time></trkpt><trkpt lat="42.44802509992578" lon="12.703229635799582"><ele>849.0</ele><time>2026-04-19T08:36:36.999Z</time></trkpt><trkpt lat="42.448113696985985" lon="12.703225621700948"><ele>849.0</ele><time>2026-04-19T08:36:37.999Z</time></trkpt><trkpt lat="42.448203487089174" lon="12.703217657181632"><ele>849.0</ele><time>2026-04-19T08:36:38.999Z</time></trkpt><trkpt lat="42.44828945638029" lon="12.703193252741952"><ele>849.0</ele><time>2026-04-19T08:36:39.999Z</time></trkpt><trkpt lat="42.448373859540474" lon="12.703161450087567"><ele>849.0</ele><time>2026-04-19T08:36:40.999Z</time></trkpt><trkpt lat="42.4484518874925" lon="12.70312374932724"><ele>849.0</ele><time>2026-04-19T08:36:41.999Z</time></trkpt><trkpt lat="42.44853000309719" lon="12.703088949582533"><ele>849.0</ele><time>2026-04-19T08:36:42.999Z</time></trkpt><trkpt lat="42.448608274993774" lon="12.703035391616877"><ele>849.0</ele><time>2026-04-19T08:36:43.999Z</time></trkpt><trkpt lat="42.44868255222399" lon="12.702984083545005"><ele>849.0</ele><time>2026-04-19T08:36:44.999Z</time></trkpt><trkpt lat="42.4487710809119" lon="12.70292391217061"><ele>849.0</ele><time>2026-04-19T08:36:45.999Z</time></trkpt><trkpt lat="42.44885805561492" lon="12.702879333594044"><ele>849.0</ele><time>2026-04-19T08:36:46.999Z</time></trkpt><trkpt lat="42.44893773891469" lon="12.702836701401253"><ele>849.0</ele><time>2026-04-19T08:36:47.999Z</time></trkpt><trkpt lat="42.449003865394005" lon="12.702784781817806"><ele>848.6666666666666</ele><time>2026-04-19T08:36:48.999Z</time></trkpt><trkpt lat="42.44907959837153" lon="12.70273687132275"><ele>848.3333333333333</ele><time>2026-04-19T08:36:49.999Z</time></trkpt><trkpt lat="42.4491593586417" lon="12.702705994333735"><ele>848.0</ele><time>2026-04-19T08:36:50.999Z</time></trkpt><trkpt lat="42.44924424316473" lon="12.702660992174884"><ele>847.6666666666666</ele><time>2026-04-19T08:36:51.999Z</time></trkpt><trkpt lat="42.44932234540934" lon="12.70261332295058"><ele>847.3333333333333</ele><time>2026-04-19T08:36:52.999Z</time></trkpt><trkpt lat="42.44939297174218" lon="12.702567967841379"><ele>847.0</ele><time>2026-04-19T08:36:53.999Z</time></trkpt><trkpt lat="42.44947626308872" lon="12.70251475700156"><ele>846.9999999999999</ele><time>2026-04-19T08:36:54.999Z</time></trkpt><trkpt lat="42.449560183486525" lon="12.702471438211163"><ele>847.0</ele><time>2026-04-19T08:36:56Z</time></trkpt><trkpt lat="42.44964057035543" lon="12.702436740432587"><ele>847.0</ele><time>2026-04-19T08:36:57Z</time></trkpt><trkpt lat="42.44973417946793" lon="12.702410739948572"><ele>847.0</ele><time>2026-04-19T08:36:58Z</time></trkpt><trkpt lat="42.44981708853937" lon="12.702394522698954"><ele>846.9999999999999</ele><time>2026-04-19T08:36:59Z</time></trkpt><trkpt lat="42.449898998077146" lon="12.70236945470906"><ele>847.0</ele><time>2026-04-19T08:37:00Z</time></trkpt><trkpt lat="42.44999894457113" lon="12.702369290783832"><ele>847.3333333333333</ele><time>2026-04-19T08:37:01Z</time></trkpt><trkpt lat="42.45008184984286" lon="12.70237453924976"><ele>847.6666666666666</ele><time>2026-04-19T08:37:02Z</time></trkpt><trkpt lat="42.45017519046037" lon="12.702382728436612"><ele>848.0</ele><time>2026-04-19T08:37:03Z</time></trkpt><trkpt lat="42.45025039691296" lon="12.702411082804415"><ele>848.3333333333333</ele><time>2026-04-19T08:37:04Z</time></trkpt><trkpt lat="42.45033972933777" lon="12.70241859947276"><ele>848.6666666666666</ele><time>2026-04-19T08:37:05Z</time></trkpt><trkpt lat="42.45043531392254" lon="12.702439795067711"><ele>849.0</ele><time>2026-04-19T08:37:06Z</time></trkpt><trkpt lat="42.4505291479968" lon="12.702473695472953"><ele>849.0</ele><time>2026-04-19T08:37:07Z</time></trkpt><trkpt lat="42.45061379168546" lon="12.702516213744552"><ele>849.0</ele><time>2026-04-19T08:37:08Z</time></trkpt><trkpt lat="42.45069811377717" lon="12.702551877274578"><ele>849.0</ele><time>2026-04-19T08:37:09Z</time></trkpt><trkpt lat="42.45078006236689" lon="12.702597651117397"><ele>849.0</ele><time>2026-04-19T08:37:10Z</time></trkpt><trkpt lat="42.45086981259687" lon="12.702642202653584"><ele>849.0</ele><time>2026-04-19T08:37:11Z</time></trkpt><trkpt lat="42.450966776727086" lon="12.702684009095188"><ele>849.0</ele><time>2026-04-19T08:37:12Z</time></trkpt><trkpt lat="42.45105835604861" lon="12.70271667022116"><ele>849.0</ele><time>2026-04-19T08:37:13Z</time></trkpt><trkpt lat="42.45115916979955" lon="12.702740400089468"><ele>849.0</ele><time>2026-04-19T08:37:14Z</time></trkpt><trkpt lat="42.451258846218714" lon="12.70276708269754"><ele>849.0</ele><time>2026-04-19T08:37:15Z</time></trkpt><trkpt lat="42.45135865718742" lon="12.702789634216591"><ele>849.0</ele><time>2026-04-19T08:37:16Z</time></trkpt><trkpt lat="42.451452423276066" lon="12.702827559870768"><ele>851.2</ele><time>2026-04-19T08:37:17Z</time></trkpt><trkpt lat="42.45154425546172" lon="12.702876836757403"><ele>853.4000000000001</ele><time>2026-04-19T08:37:18Z</time></trkpt><trkpt lat="42.45162066498892" lon="12.702936209109554"><ele>855.6</ele><time>2026-04-19T08:37:19Z</time></trkpt><trkpt lat="42.45169359583545" lon="12.703001697184261"><ele>857.8</ele><time>2026-04-19T08:37:20Z</time></trkpt><trkpt lat="42.45176726478379" lon="12.703071240673514"><ele>860.0</ele><time>2026-04-19T08:37:21Z</time></trkpt><trkpt lat="42.45184516400101" lon="12.703130433313751"><ele>860.0</ele><time>2026-04-19T08:37:22Z</time></trkpt><trkpt lat="42.451919087261246" lon="12.703195196766266"><ele>860.0</ele><time>2026-04-19T08:37:23Z</time></trkpt><trkpt lat="42.4519790528759" lon="12.703278294572298"><ele>860.0</ele><time>2026-04-19T08:37:24Z</time></trkpt><trkpt lat="42.45203531544525" lon="12.703378141724075"><ele>860.0</ele><time>2026-04-19T08:37:25Z</time></trkpt><trkpt lat="42.452083466278054" lon="12.703462125385233"><ele>860.0</ele><time>2026-04-19T08:37:26Z</time></trkpt><trkpt lat="42.45216446283622" lon="12.703600854925607"><ele>861.0000000000001</ele><time>2026-04-19T08:37:28Z</time></trkpt><trkpt lat="42.45222200854265" lon="12.703715087063555"><ele>862.0</ele><time>2026-04-19T08:37:29Z</time></trkpt><trkpt lat="42.452278036375866" lon="12.703777579676233"><ele>863.0</ele><time>2026-04-19T08:37:30Z</time></trkpt><trkpt lat="42.45233654580793" lon="12.703815174240033"><ele>864.0</ele><time>2026-04-19T08:37:31Z</time></trkpt><trkpt lat="42.45241765760342" lon="12.703842917466746"><ele>865.0000000000001</ele><time>2026-04-19T08:37:32Z</time></trkpt><trkpt lat="42.45250393213894" lon="12.703860289616816"><ele>866.0</ele><time>2026-04-19T08:37:33Z</time></trkpt><trkpt lat="42.45259856677719" lon="12.703848811959247"><ele>866.0</ele><time>2026-04-19T08:37:34Z</time></trkpt><trkpt lat="42.45268319865642" lon="12.703870170848099"><ele>865.9999999999999</ele><time>2026-04-19T08:37:35Z</time></trkpt><trkpt lat="42.45277169677339" lon="12.703905420621062"><ele>865.9999999999999</ele><time>2026-04-19T08:37:36Z</time></trkpt><trkpt lat="42.45286322600133" lon="12.703934466898493"><ele>866.0</ele><time>2026-04-19T08:37:37Z</time></trkpt><trkpt lat="42.452961114762296" lon="12.703948539104333"><ele>866.0</ele><time>2026-04-19T08:37:38Z</time></trkpt><trkpt lat="42.453049237968784" lon="12.703970123237"><ele>864.8</ele><time>2026-04-19T08:37:39Z</time></trkpt><trkpt lat="42.45313293829101" lon="12.704007869722153"><ele>863.5999999999999</ele><time>2026-04-19T08:37:40Z</time></trkpt><trkpt lat="42.453232276049036" lon="12.704047983709055"><ele>862.4</ele><time>2026-04-19T08:37:41Z</time></trkpt><trkpt lat="42.45333083511643" lon="12.70409406545413"><ele>861.2</ele><time>2026-04-19T08:37:42Z</time></trkpt><trkpt lat="42.45343211245875" lon="12.704127713989271"><ele>860.0</ele><time>2026-04-19T08:37:43Z</time></trkpt><trkpt lat="42.45352449444549" lon="12.704158042344238"><ele>860.0000000000001</ele><time>2026-04-19T08:37:44Z</time></trkpt><trkpt lat="42.45361752961648" lon="12.704189862393346"><ele>860.0</ele><time>2026-04-19T08:37:45Z</time></trkpt><trkpt lat="42.453696253174506" lon="12.704211623871002"><ele>860.0</ele><time>2026-04-19T08:37:46Z</time></trkpt><trkpt lat="42.45377448741236" lon="12.704219414300148"><ele>860.0</ele><time>2026-04-19T08:37:47Z</time></trkpt><trkpt lat="42.45386273516708" lon="12.704234102368899"><ele>860.0000000000001</ele><time>2026-04-19T08:37:48Z</time></trkpt><trkpt lat="42.45395056314995" lon="12.70426849010152"><ele>860.0</ele><time>2026-04-19T08:37:49Z</time></trkpt><trkpt lat="42.454034808156685" lon="12.704310504620565"><ele>859.4</ele><time>2026-04-19T08:37:50Z</time></trkpt><trkpt lat="42.45412061662528" lon="12.704345786931093"><ele>858.8</ele><time>2026-04-19T08:37:51Z</time></trkpt><trkpt lat="42.45420421214768" lon="12.70439906285199"><ele>858.2</ele><time>2026-04-19T08:37:52Z</time></trkpt><trkpt lat="42.45428330772127" lon="12.704456859712002"><ele>857.6</ele><time>2026-04-19T08:37:53Z</time></trkpt><trkpt lat="42.4543634878941" lon="12.704516179277592"><ele>857.0</ele><time>2026-04-19T08:37:54Z</time></trkpt><trkpt lat="42.45444087709238" lon="12.704569462993286"><ele>858.6666666666667</ele><time>2026-04-19T08:37:55Z</time></trkpt><trkpt lat="42.45452000047695" lon="12.704620587526758"><ele>860.3333333333334</ele><time>2026-04-19T08:37:56Z</time></trkpt><trkpt lat="42.45460270268143" lon="12.704642546418995"><ele>862.0</ele><time>2026-04-19T08:37:57Z</time></trkpt><trkpt lat="42.454687998204776" lon="12.704662758941362"><ele>863.6666666666667</ele><time>2026-04-19T08:37:58Z</time></trkpt><trkpt lat="42.454777614964094" lon="12.704690500139058"><ele>865.3333333333334</ele><time>2026-04-19T08:37:59Z</time></trkpt><trkpt lat="42.45485090161942" lon="12.704722766234639"><ele>867.0</ele><time>2026-04-19T08:38:00Z</time></trkpt><trkpt lat="42.45493393581317" lon="12.704757418925146"><ele>867.0</ele><time>2026-04-19T08:38:01Z</time></trkpt><trkpt lat="42.455009256940116" lon="12.704793362913218"><ele>867.0</ele><time>2026-04-19T08:38:02Z</time></trkpt><trkpt lat="42.45507863151201" lon="12.704802841648206"><ele>867.0</ele><time>2026-04-19T08:38:03Z</time></trkpt><trkpt lat="42.45515323468352" lon="12.704788641997377"><ele>867.0</ele><time>2026-04-19T08:38:04Z</time></trkpt><trkpt lat="42.45522150096263" lon="12.70477179795416"><ele>867.0</ele><time>2026-04-19T08:38:05Z</time></trkpt><trkpt lat="42.455306639495504" lon="12.704729251429558"><ele>867.0</ele><time>2026-04-19T08:38:07Z</time></trkpt><trkpt lat="42.45537824146907" lon="12.704682601823002"><ele>867.0</ele><time>2026-04-19T08:38:10Z</time></trkpt><trkpt lat="42.45541370093039" lon="12.704576699671021"><ele>867.0</ele><time>2026-04-19T08:38:14Z</time></trkpt><trkpt lat="42.45541591717833" lon="12.704466417989655"><ele>867.0</ele><time>2026-04-19T08:38:16Z</time></trkpt><trkpt lat="42.45537626547822" lon="12.70433683039565"><ele>867.0</ele><time>2026-04-19T08:38:18Z</time></trkpt><trkpt lat="42.45535139277486" lon="12.704191054495395"><ele>867.0</ele><time>2026-04-19T08:38:20Z</time></trkpt><trkpt lat="42.45533619648465" lon="12.70409767119104"><ele>865.6</ele><time>2026-04-19T08:38:22.999Z</time></trkpt><trkpt lat="42.45534196586759" lon="12.703953199635377"><ele>864.2</ele><time>2026-04-19T08:38:56.999Z</time></trkpt><trkpt lat="42.455320109378476" lon="12.703800867348965"><ele>862.8</ele><time>2026-04-19T08:38:58.999Z</time></trkpt><trkpt lat="42.4553078264851" lon="12.70366360863286"><ele>861.4</ele><time>2026-04-19T08:39:00.999Z</time></trkpt><trkpt lat="42.45528806100837" lon="12.7035159337018"><ele>860.0</ele><time>2026-04-19T08:39:03Z</time></trkpt><trkpt lat="42.455299104411324" lon="12.703390181775449"><ele>860.0000000000001</ele><time>2026-04-19T08:39:05Z</time></trkpt><trkpt lat="42.4553008187972" lon="12.703303686463729"><ele>860.0</ele><time>2026-04-19T08:39:06Z</time></trkpt><trkpt lat="42.45529795415074" lon="12.703208850469649"><ele>860.0</ele><time>2026-04-19T08:39:07Z</time></trkpt><trkpt lat="42.45529060465793" lon="12.703111070820519"><ele>860.0</ele><time>2026-04-19T08:39:08Z</time></trkpt><trkpt lat="42.45527920416621" lon="12.702957585367107"><ele>860.0000000000001</ele><time>2026-04-19T08:39:10Z</time></trkpt><trkpt lat="42.45529431780623" lon="12.702804101996577"><ele>860.0</ele><time>2026-04-19T08:39:12Z</time></trkpt><trkpt lat="42.45527718811143" lon="12.702701262855292"><ele>860.1666666666667</ele><time>2026-04-19T08:39:14Z</time></trkpt><trkpt lat="42.45521675024732" lon="12.70260006724502"><ele>860.3333333333334</ele><time>2026-04-19T08:39:17Z</time></trkpt><trkpt lat="42.45522141403386" lon="12.702484291522566"><ele>860.5</ele><time>2026-04-19T08:39:19Z</time></trkpt><trkpt lat="42.45523729270185" lon="12.702389081574694"><ele>860.6666666666667</ele><time>2026-04-19T08:39:21Z</time></trkpt><trkpt lat="42.455228196333195" lon="12.702279189204612"><ele>860.8333333333334</ele><time>2026-04-19T08:39:23Z</time></trkpt><trkpt lat="42.455212273109105" lon="12.702171536985004"><ele>861.0</ele><time>2026-04-19T08:39:25Z</time></trkpt><trkpt lat="42.455198857299166" lon="12.702034391740467"><ele>861.0</ele><time>2026-04-19T08:39:28Z</time></trkpt><trkpt lat="42.45522253911518" lon="12.701932407793691"><ele>861.0</ele><time>2026-04-19T08:39:30Z</time></trkpt><trkpt lat="42.45527079755141" lon="12.701858231061076"><ele>861.0</ele><time>2026-04-19T08:39:32Z</time></trkpt><trkpt lat="42.45532427156062" lon="12.701785259707988"><ele>861.0</ele><time>2026-04-19T08:39:34Z</time></trkpt><trkpt lat="42.455399951321986" lon="12.701733064978374"><ele>861.0</ele><time>2026-04-19T08:39:36Z</time></trkpt><trkpt lat="42.455456989779265" lon="12.70169011423473"><ele>861.0</ele><time>2026-04-19T08:39:38Z</time></trkpt><trkpt lat="42.455509975689054" lon="12.701631706190152"><ele>861.0</ele><time>2026-04-19T08:39:41Z</time></trkpt><trkpt lat="42.45557126866671" lon="12.701595847165043"><ele>861.1999999999999</ele><time>2026-04-19T08:40:05Z</time></trkpt><trkpt lat="42.45567747087114" lon="12.701601926229191"><ele>861.3999999999999</ele><time>2026-04-19T08:40:07Z</time></trkpt><trkpt lat="42.455585315795346" lon="12.70158254080977"><ele>861.6</ele><time>2026-04-19T08:40:08Z</time></trkpt><trkpt lat="42.455655650995034" lon="12.701566196796774"><ele>861.8</ele><time>2026-04-19T08:40:18Z</time></trkpt><trkpt lat="42.45575996801279" lon="12.701544808819754"><ele>862.0</ele><time>2026-04-19T08:40:22Z</time></trkpt><trkpt lat="42.45582955380975" lon="12.701505125428561"><ele>861.9999999999999</ele><time>2026-04-19T08:40:24Z</time></trkpt><trkpt lat="42.455883339037406" lon="12.701449437670654"><ele>862.0</ele><time>2026-04-19T08:40:26Z</time></trkpt><trkpt lat="42.455933707298485" lon="12.701398014363434"><ele>862.0</ele><time>2026-04-19T08:40:28Z</time></trkpt><trkpt lat="42.45596262951889" lon="12.701281899801138"><ele>862.0</ele><time>2026-04-19T08:40:31Z</time></trkpt><trkpt lat="42.456014184274025" lon="12.701174297910484"><ele>861.9999999999999</ele><time>2026-04-19T08:40:34Z</time></trkpt><trkpt lat="42.456042075289325" lon="12.701095606581212"><ele>862.0</ele><time>2026-04-19T08:40:36.999Z</time></trkpt><trkpt lat="42.45608023097625" lon="12.700999934356968"><ele>861.1666666666666</ele><time>2026-04-19T08:40:39.999Z</time></trkpt><trkpt lat="42.45614972097311" lon="12.70093700685808"><ele>860.3333333333333</ele><time>2026-04-19T08:40:42.999Z</time></trkpt><trkpt lat="42.456222697711205" lon="12.700897985095716"><ele>859.5</ele><time>2026-04-19T08:40:45.999Z</time></trkpt><trkpt lat="42.45628963199514" lon="12.700854712450527"><ele>858.6666666666667</ele><time>2026-04-19T08:40:48.999Z</time></trkpt><trkpt lat="42.45636039011137" lon="12.700796166633053"><ele>857.8333333333334</ele><time>2026-04-19T08:40:52.999Z</time></trkpt><trkpt lat="42.45643904802299" lon="12.700763281433996"><ele>857.0</ele><time>2026-04-19T08:40:55.999Z</time></trkpt><trkpt lat="42.456505042593484" lon="12.700778430298035"><ele>857.0</ele><time>2026-04-19T08:40:58.999Z</time></trkpt><trkpt lat="42.45656584678115" lon="12.70080450638208"><ele>857.0</ele><time>2026-04-19T08:41:01.999Z</time></trkpt><trkpt lat="42.45662850744213" lon="12.700834957195791"><ele>857.0</ele><time>2026-04-19T08:41:03.999Z</time></trkpt><trkpt lat="42.45669135828869" lon="12.70090226301908"><ele>857.0</ele><time>2026-04-19T08:41:08Z</time></trkpt><trkpt lat="42.45675441892458" lon="12.70095611721322"><ele>857.0</ele><time>2026-04-19T08:41:12Z</time></trkpt><trkpt lat="42.45680781045101" lon="12.701021120370555"><ele>857.0</ele><time>2026-04-19T08:41:21Z</time></trkpt><trkpt lat="42.45684611225254" lon="12.701092894594987"><ele>857.0</ele><time>2026-04-19T08:41:25Z</time></trkpt><trkpt lat="42.45690435688462" lon="12.701164089713544"><ele>857.0000000000001</ele><time>2026-04-19T08:41:28Z</time></trkpt><trkpt lat="42.45696679559657" lon="12.701231481001502"><ele>857.0</ele><time>2026-04-19T08:41:32Z</time></trkpt><trkpt lat="42.457030461582484" lon="12.70125604118473"><ele>857.0</ele><time>2026-04-19T08:41:36Z</time></trkpt><trkpt lat="42.457069202726835" lon="12.701162285964498"><ele>857.0</ele><time>2026-04-19T08:41:41Z</time></trkpt><trkpt lat="42.457043393466925" lon="12.701082837642693"><ele>857.0000000000001</ele><time>2026-04-19T08:41:43Z</time></trkpt><trkpt lat="42.45700039299507" lon="12.700988109873816"><ele>857.0</ele><time>2026-04-19T08:41:46Z</time></trkpt><trkpt lat="42.456954660385044" lon="12.700881141557074"><ele>855.3333333333334</ele><time>2026-04-19T08:41:49Z</time></trkpt><trkpt lat="42.45690256521459" lon="12.700770624642331"><ele>853.6666666666667</ele><time>2026-04-19T08:41:53Z</time></trkpt><trkpt lat="42.45686484687422" lon="12.70069531613609"><ele>852.0</ele><time>2026-04-19T08:41:55Z</time></trkpt><trkpt lat="42.45681917697688" lon="12.700625910304074"><ele>850.3333333333333</ele><time>2026-04-19T08:41:58Z</time></trkpt><trkpt lat="42.4567620325704" lon="12.700532549710964"><ele>848.6666666666666</ele><time>2026-04-19T08:42:01Z</time></trkpt><trkpt lat="42.45668339898899" lon="12.700443601892209"><ele>847.0</ele><time>2026-04-19T08:42:04Z</time></trkpt><trkpt lat="42.45661367989866" lon="12.70036210169691"><ele>846.9999999999999</ele><time>2026-04-19T08:42:07Z</time></trkpt><trkpt lat="42.4565435557416" lon="12.700279326890167"><ele>847.0</ele><time>2026-04-19T08:42:10Z</time></trkpt><trkpt lat="42.456504085105514" lon="12.70021231991591"><ele>847.0</ele><time>2026-04-19T08:42:12Z</time></trkpt><trkpt lat="42.45641341391686" lon="12.700091781628851"><ele>847.0</ele><time>2026-04-19T08:42:14Z</time></trkpt><trkpt lat="42.45636873662723" lon="12.700028110191761"><ele>846.9999999999999</ele><time>2026-04-19T08:42:15Z</time></trkpt><trkpt lat="42.456317353028915" lon="12.699951923185866"><ele>847.0</ele><time>2026-04-19T08:42:17Z</time></trkpt><trkpt lat="42.456243015234875" lon="12.6998365787631"><ele>846.6666666666666</ele><time>2026-04-19T08:42:19Z</time></trkpt><trkpt lat="42.45616654637485" lon="12.699761646762882"><ele>846.3333333333333</ele><time>2026-04-19T08:42:21Z</time></trkpt><trkpt lat="42.456089898065045" lon="12.699694660744495"><ele>846.0</ele><time>2026-04-19T08:42:23Z</time></trkpt><trkpt lat="42.45603957661103" lon="12.699640658969498"><ele>845.6666666666667</ele><time>2026-04-19T08:42:25Z</time></trkpt><trkpt lat="42.45597214075829" lon="12.699666500006224"><ele>845.3333333333334</ele><time>2026-04-19T08:42:36.999Z</time></trkpt><trkpt lat="42.45589915406019" lon="12.699692013280188"><ele>845.0</ele><time>2026-04-19T08:52:38Z</time></trkpt><trkpt lat="42.455831662072825" lon="12.699717083933628"><ele>845.0000000000001</ele><time>2026-04-19T08:52:55Z</time></trkpt><trkpt lat="42.455764348849506" lon="12.699713714757609"><ele>845.0</ele><time>2026-04-19T08:53:02Z</time></trkpt><trkpt lat="42.45569432869567" lon="12.699743220593389"><ele>845.0</ele><time>2026-04-19T08:53:41Z</time></trkpt><trkpt lat="42.45576659368386" lon="12.699708447865458"><ele>845.0</ele><time>2026-04-19T08:53:43.001Z</time></trkpt><trkpt lat="42.45568045595545" lon="12.699739796725966"><ele>845.0000000000001</ele><time>2026-04-19T08:54:32Z</time></trkpt><trkpt lat="42.455656303498785" lon="12.699642101671234"><ele>845.0</ele><time>2026-04-19T08:54:36Z</time></trkpt><trkpt lat="42.45569219223446" lon="12.69955676428491"><ele>845.0000000000001</ele><time>2026-04-19T08:56:55Z</time></trkpt><trkpt lat="42.45574051414032" lon="12.699465077049759"><ele>845.0</ele><time>2026-04-19T08:56:58Z</time></trkpt><trkpt lat="42.455777250167046" lon="12.699368071135368"><ele>845.0</ele><time>2026-04-19T08:57:00Z</time></trkpt><trkpt lat="42.45579283475283" lon="12.699242577183362"><ele>845.0</ele><time>2026-04-19T08:57:03Z</time></trkpt><trkpt lat="42.45579570513021" lon="12.699120703885209"><ele>845.0000000000001</ele><time>2026-04-19T08:57:05Z</time></trkpt><trkpt lat="42.45579028773443" lon="12.699003675965724"><ele>845.0</ele><time>2026-04-19T08:57:07Z</time></trkpt><trkpt lat="42.45577466702187" lon="12.698868215916411"><ele>844.3333333333334</ele><time>2026-04-19T08:57:09Z</time></trkpt><trkpt lat="42.45577072054311" lon="12.69877362854241"><ele>843.6666666666667</ele><time>2026-04-19T08:57:11Z</time></trkpt><trkpt lat="42.45575567854522" lon="12.698676874492959"><ele>843.0</ele><time>2026-04-19T08:57:13Z</time></trkpt><trkpt lat="42.45575381075226" lon="12.698575802543262"><ele>842.3333333333333</ele><time>2026-04-19T08:57:15Z</time></trkpt><trkpt lat="42.45575839057361" lon="12.698487727790665"><ele>841.6666666666666</ele><time>2026-04-19T08:57:17Z</time></trkpt><trkpt lat="42.45577522342423" lon="12.698360656549308"><ele>841.0</ele><time>2026-04-19T08:57:20Z</time></trkpt><trkpt lat="42.45576760898472" lon="12.698262049517885"><ele>839.9999999999999</ele><time>2026-04-19T08:57:23Z</time></trkpt><trkpt lat="42.45576236791823" lon="12.698165664870947"><ele>839.0</ele><time>2026-04-19T08:57:26Z</time></trkpt><trkpt lat="42.45572837273335" lon="12.698062023524452"><ele>838.0</ele><time>2026-04-19T08:57:28.999Z</time></trkpt><trkpt lat="42.45568711080094" lon="12.69796124184523"><ele>837.0</ele><time>2026-04-19T08:57:31.999Z</time></trkpt><trkpt lat="42.45564147946064" lon="12.697858567139301"><ele>835.9999999999999</ele><time>2026-04-19T08:57:34.999Z</time></trkpt><trkpt lat="42.45559986071472" lon="12.697755978808088"><ele>835.0</ele><time>2026-04-19T08:57:37.999Z</time></trkpt><trkpt lat="42.455571373174905" lon="12.697671383105776"><ele>834.2857142857143</ele><time>2026-04-19T08:57:40.999Z</time></trkpt><trkpt lat="42.45557756311689" lon="12.697576460022622"><ele>833.5714285714286</ele><time>2026-04-19T08:57:43.999Z</time></trkpt><trkpt lat="42.45559324126612" lon="12.69748848779149"><ele>832.8571428571429</ele><time>2026-04-19T08:57:46.999Z</time></trkpt><trkpt lat="42.45558934153105" lon="12.697401700672497"><ele>832.1428571428571</ele><time>2026-04-19T08:57:59Z</time></trkpt><trkpt lat="42.45554798017821" lon="12.69732621256762"><ele>831.4285714285714</ele><time>2026-04-19T08:58:04Z</time></trkpt><trkpt lat="42.455469870854415" lon="12.697272298980904"><ele>830.7142857142858</ele><time>2026-04-19T09:23:43Z</time></trkpt><trkpt lat="42.45546352575671" lon="12.697177888546051"><ele>830.0</ele><time>2026-04-19T09:23:49Z</time></trkpt><trkpt lat="42.455494655750975" lon="12.69710152201354"><ele>830.0</ele><time>2026-04-19T09:24:07Z</time></trkpt><trkpt lat="42.45548983767958" lon="12.69699177048055"><ele>830.0</ele><time>2026-04-19T09:24:15Z</time></trkpt><trkpt lat="42.45549203618306" lon="12.696888027108509"><ele>833.0</ele><time>2026-04-19T09:24:24Z</time></trkpt><trkpt lat="42.45547164870229" lon="12.696784085049108"><ele>833.0</ele><time>2026-04-19T09:24:28Z</time></trkpt></trkseg><trkseg><trkpt lat="42.455380077786984" lon="12.696743663415173"><ele>837.9999999999999</ele><time>2026-04-19T09:37:04.999Z</time></trkpt><trkpt lat="42.455351118940094" lon="12.696662681798115"><ele>838.0</ele><time>2026-04-19T09:37:06.999Z</time></trkpt><trkpt lat="42.4553318505159" lon="12.696578806361059"><ele>838.0</ele><time>2026-04-19T09:37:07.999Z</time></trkpt><trkpt lat="42.45531038963404" lon="12.696467382007736"><ele>838.0</ele><time>2026-04-19T09:37:09.999Z</time></trkpt><trkpt lat="42.45525908848031" lon="12.696341054516951"><ele>837.9999999999999</ele><time>2026-04-19T09:37:11.999Z</time></trkpt><trkpt lat="42.455216376690146" lon="12.696195217178591"><ele>838.0</ele><time>2026-04-19T09:37:13.999Z</time></trkpt><trkpt lat="42.455184960298084" lon="12.696017074664736"><ele>835.6666666666666</ele><time>2026-04-19T09:37:15.999Z</time></trkpt><trkpt lat="42.455149224035274" lon="12.695919755360382"><ele>833.3333333333333</ele><time>2026-04-19T09:37:16.999Z</time></trkpt><trkpt lat="42.45509819357911" lon="12.695818077139927"><ele>831.0</ele><time>2026-04-19T09:37:17.999Z</time></trkpt><trkpt lat="42.455055479164436" lon="12.695742546262224"><ele>828.6666666666667</ele><time>2026-04-19T09:37:18.999Z</time></trkpt><trkpt lat="42.45501395950514" lon="12.695646759467358"><ele>826.3333333333334</ele><time>2026-04-19T09:37:19.999Z</time></trkpt><trkpt lat="42.45496843260952" lon="12.695548062269124"><ele>824.0</ele><time>2026-04-19T09:37:20.999Z</time></trkpt><trkpt lat="42.45493060935855" lon="12.695455896508012"><ele>824.0</ele><time>2026-04-19T09:37:21.999Z</time></trkpt><trkpt lat="42.454895812108475" lon="12.695383131645487"><ele>824.0</ele><time>2026-04-19T09:37:22.999Z</time></trkpt><trkpt lat="42.454578618748414" lon="12.694736544090686"><ele>826.6666666666667</ele><time>2026-04-19T09:37:29.999Z</time></trkpt><trkpt lat="42.45458059882429" lon="12.694642884943473"><ele>829.3333333333334</ele><time>2026-04-19T09:37:30.999Z</time></trkpt><trkpt lat="42.45456193241896" lon="12.69454977276164"><ele>832.0</ele><time>2026-04-19T09:37:31.999Z</time></trkpt><trkpt lat="42.45454934847674" lon="12.694436131789105"><ele>834.6666666666667</ele><time>2026-04-19T09:37:32.999Z</time></trkpt><trkpt lat="42.45453219119903" lon="12.694314849886398"><ele>837.3333333333334</ele><time>2026-04-19T09:37:33.999Z</time></trkpt><trkpt lat="42.45450739595272" lon="12.69419444466057"><ele>840.0</ele><time>2026-04-19T09:37:34.999Z</time></trkpt><trkpt lat="42.45448290540058" lon="12.694082770023469"><ele>840.0</ele><time>2026-04-19T09:37:35.999Z</time></trkpt><trkpt lat="42.4544548668044" lon="12.693962311885855"><ele>840.0</ele><time>2026-04-19T09:37:36.999Z</time></trkpt><trkpt lat="42.45442370417617" lon="12.693837544793551"><ele>840.0</ele><time>2026-04-19T09:37:37.999Z</time></trkpt><trkpt lat="42.45439858012405" lon="12.693712329482416"><ele>840.0</ele><time>2026-04-19T09:37:38.999Z</time></trkpt><trkpt lat="42.454366641833325" lon="12.69358932133463"><ele>840.0</ele><time>2026-04-19T09:37:39.999Z</time></trkpt><trkpt lat="42.4543284244311" lon="12.693475108116797"><ele>838.6666666666666</ele><time>2026-04-19T09:37:40.999Z</time></trkpt><trkpt lat="42.45428950843592" lon="12.693350234245505"><ele>837.3333333333333</ele><time>2026-04-19T09:37:41.999Z</time></trkpt><trkpt lat="42.45424805210415" lon="12.693231094885453"><ele>836.0</ele><time>2026-04-19T09:37:42.999Z</time></trkpt><trkpt lat="42.4542167278732" lon="12.693117726265537"><ele>834.6666666666666</ele><time>2026-04-19T09:37:43.999Z</time></trkpt><trkpt lat="42.454195986907585" lon="12.693016492130285"><ele>833.3333333333333</ele><time>2026-04-19T09:37:44.999Z</time></trkpt><trkpt lat="42.454179988825246" lon="12.692911514369216"><ele>832.0</ele><time>2026-04-19T09:37:45.998Z</time></trkpt><trkpt lat="42.45417184186354" lon="12.692812928419652"><ele>830.4999999999999</ele><time>2026-04-19T09:37:46.998Z</time></trkpt><trkpt lat="42.454157366184496" lon="12.692706865964787"><ele>829.0</ele><time>2026-04-19T09:37:47.998Z</time></trkpt><trkpt lat="42.454137693992905" lon="12.692623740955623"><ele>827.5</ele><time>2026-04-19T09:37:48.998Z</time></trkpt><trkpt lat="42.45406656671385" lon="12.692475341486789"><ele>826.0</ele><time>2026-04-19T09:37:50.998Z</time></trkpt><trkpt lat="42.45401391471756" lon="12.69239875253935"><ele>824.4999999999999</ele><time>2026-04-19T09:37:51.998Z</time></trkpt><trkpt lat="42.453958537425706" lon="12.692340918251764"><ele>823.0</ele><time>2026-04-19T09:37:52.998Z</time></trkpt><trkpt lat="42.45391110466222" lon="12.69228440093672"><ele>823.0</ele><time>2026-04-19T09:37:53.999Z</time></trkpt><trkpt lat="42.453871774672685" lon="12.692217067834243"><ele>823.0</ele><time>2026-04-19T09:37:54.999Z</time></trkpt><trkpt lat="42.45382545425629" lon="12.692140815559078"><ele>823.0</ele><time>2026-04-19T09:37:55.999Z</time></trkpt><trkpt lat="42.453788746430135" lon="12.692056911757394"><ele>823.0</ele><time>2026-04-19T09:37:56.999Z</time></trkpt><trkpt lat="42.453758205609525" lon="12.691976314224915"><ele>823.0</ele><time>2026-04-19T09:37:57.999Z</time></trkpt><trkpt lat="42.45373289274976" lon="12.691881161869526"><ele>823.0</ele><time>2026-04-19T09:37:58.999Z</time></trkpt><trkpt lat="42.453691671346405" lon="12.691777566844449"><ele>823.0</ele><time>2026-04-19T09:37:59.999Z</time></trkpt><trkpt lat="42.4536579707057" lon="12.691673112830777"><ele>825.6666666666666</ele><time>2026-04-19T09:38:00.999Z</time></trkpt><trkpt lat="42.45363046251519" lon="12.691558242144037"><ele>828.3333333333333</ele><time>2026-04-19T09:38:01.999Z</time></trkpt><trkpt lat="42.453614738692856" lon="12.691437607357425"><ele>831.0</ele><time>2026-04-19T09:38:02.999Z</time></trkpt><trkpt lat="42.45360244095627" lon="12.691328222197141"><ele>833.6666666666667</ele><time>2026-04-19T09:38:03.999Z</time></trkpt><trkpt lat="42.453575224609885" lon="12.691223860197729"><ele>836.3333333333334</ele><time>2026-04-19T09:38:04.999Z</time></trkpt><trkpt lat="42.45354354112338" lon="12.691141678358735"><ele>839.0</ele><time>2026-04-19T09:38:05.999Z</time></trkpt><trkpt lat="42.45349404016474" lon="12.69106920190742"><ele>839.0000000000001</ele><time>2026-04-19T09:38:06.999Z</time></trkpt><trkpt lat="42.45343931525478" lon="12.691012708987754"><ele>839.0</ele><time>2026-04-19T09:38:07.999Z</time></trkpt><trkpt lat="42.4533768379002" lon="12.690958368474908"><ele>839.0</ele><time>2026-04-19T09:38:08.999Z</time></trkpt><trkpt lat="42.45332262643897" lon="12.6908975705149"><ele>839.0</ele><time>2026-04-19T09:38:09.999Z</time></trkpt><trkpt lat="42.453279877080696" lon="12.690834593371763"><ele>839.0000000000001</ele><time>2026-04-19T09:38:10.999Z</time></trkpt><trkpt lat="42.453179371381474" lon="12.690734979462649"><ele>839.0</ele><time>2026-04-19T09:38:12.999Z</time></trkpt><trkpt lat="42.453110953351064" lon="12.690687307077445"><ele>839.0000000000001</ele><time>2026-04-19T09:38:13.999Z</time></trkpt><trkpt lat="42.45304318707637" lon="12.690660672869853"><ele>839.0</ele><time>2026-04-19T09:38:14.999Z</time></trkpt><trkpt lat="42.45297581811788" lon="12.690634397941468"><ele>839.0</ele><time>2026-04-19T09:38:15.999Z</time></trkpt><trkpt lat="42.452873644271726" lon="12.690577515880824"><ele>839.0</ele><time>2026-04-19T09:38:17.999Z</time></trkpt><trkpt lat="42.452835001295654" lon="12.690473644215718"><ele>839.0000000000001</ele><time>2026-04-19T09:38:19.999Z</time></trkpt><trkpt lat="42.45284930289217" lon="12.690332987182115"><ele>839.0</ele><time>2026-04-19T09:38:21.999Z</time></trkpt><trkpt lat="42.45286804948137" lon="12.690249887419556"><ele>842.5000000000001</ele><time>2026-04-19T09:38:22.999Z</time></trkpt><trkpt lat="42.452875874448274" lon="12.6900714719985"><ele>846.0</ele><time>2026-04-19T09:38:24.999Z</time></trkpt><trkpt lat="42.45287012364406" lon="12.6899705458753"><ele>849.5</ele><time>2026-04-19T09:38:25.999Z</time></trkpt><trkpt lat="42.452861527600014" lon="12.689866103936913"><ele>853.0</ele><time>2026-04-19T09:38:26.999Z</time></trkpt><trkpt lat="42.45284893489209" lon="12.689765520953422"><ele>856.5000000000001</ele><time>2026-04-19T09:38:27.999Z</time></trkpt><trkpt lat="42.45283577478806" lon="12.689668973944295"><ele>860.0</ele><time>2026-04-19T09:38:28.999Z</time></trkpt><trkpt lat="42.45281320623534" lon="12.689581241532025"><ele>860.0000000000001</ele><time>2026-04-19T09:38:29.999Z</time></trkpt><trkpt lat="42.452787429784586" lon="12.689482542987443"><ele>860.0</ele><time>2026-04-19T09:38:30.999Z</time></trkpt><trkpt lat="42.45276133226448" lon="12.689360511218208"><ele>860.0</ele><time>2026-04-19T09:38:31.999Z</time></trkpt><trkpt lat="42.45274878243655" lon="12.689251837888628"><ele>860.0</ele><time>2026-04-19T09:38:32.999Z</time></trkpt><trkpt lat="42.45271916211843" lon="12.689154355281616"><ele>860.0000000000001</ele><time>2026-04-19T09:38:33.999Z</time></trkpt><trkpt lat="42.45267464821884" lon="12.6890428185151"><ele>860.0</ele><time>2026-04-19T09:38:34.999Z</time></trkpt><trkpt lat="42.45262682382704" lon="12.688936949307296"><ele>859.2</ele><time>2026-04-19T09:38:35.999Z</time></trkpt><trkpt lat="42.45259938052174" lon="12.688802420986224"><ele>858.4</ele><time>2026-04-19T09:38:36.999Z</time></trkpt><trkpt lat="42.4525415868718" lon="12.688689927040903"><ele>857.5999999999999</ele><time>2026-04-19T09:38:37.999Z</time></trkpt><trkpt lat="42.4525058288762" lon="12.688565248847814"><ele>856.8</ele><time>2026-04-19T09:38:38.999Z</time></trkpt><trkpt lat="42.45246110940019" lon="12.688459394440176"><ele>856.0</ele><time>2026-04-19T09:38:39.999Z</time></trkpt><trkpt lat="42.45240787653399" lon="12.688341199937716"><ele>854.1999999999999</ele><time>2026-04-19T09:38:40.999Z</time></trkpt><trkpt lat="42.45236823142964" lon="12.68820169509928"><ele>852.3999999999999</ele><time>2026-04-19T09:38:41.999Z</time></trkpt><trkpt lat="42.452315749216616" lon="12.688064527244691"><ele>850.6</ele><time>2026-04-19T09:38:42.999Z</time></trkpt><trkpt lat="42.452268989279744" lon="12.687936916886256"><ele>848.8</ele><time>2026-04-19T09:38:43.999Z</time></trkpt><trkpt lat="42.45222317704282" lon="12.687800819463135"><ele>847.0</ele><time>2026-04-19T09:38:44.999Z</time></trkpt><trkpt lat="42.452179787345806" lon="12.687667445689538"><ele>846.8</ele><time>2026-04-19T09:38:45.999Z</time></trkpt><trkpt lat="42.45213750283106" lon="12.687557141911352"><ele>846.6</ele><time>2026-04-19T09:38:46.999Z</time></trkpt><trkpt lat="42.45207063287135" lon="12.687455801738901"><ele>846.4</ele><time>2026-04-19T09:38:47.999Z</time></trkpt><trkpt lat="42.452011079625976" lon="12.687346765125723"><ele>846.1999999999999</ele><time>2026-04-19T09:38:48.999Z</time></trkpt><trkpt lat="42.45195460683034" lon="12.687238914975932"><ele>846.0</ele><time>2026-04-19T09:38:49.999Z</time></trkpt><trkpt lat="42.451906119346454" lon="12.687161811367542"><ele>847.4</ele><time>2026-04-19T09:38:50.999Z</time></trkpt><trkpt lat="42.45185931617496" lon="12.687081321818432"><ele>848.8</ele><time>2026-04-19T09:38:51.999Z</time></trkpt><trkpt lat="42.45178095540732" lon="12.686954709031639"><ele>850.1999999999999</ele><time>2026-04-19T09:38:53.999Z</time></trkpt><trkpt lat="42.45177312604414" lon="12.686781945922686"><ele>851.5999999999999</ele><time>2026-04-19T09:38:55.999Z</time></trkpt><trkpt lat="42.451796402470535" lon="12.686693018030956"><ele>853.0</ele><time>2026-04-19T09:38:56.999Z</time></trkpt><trkpt lat="42.45184621821122" lon="12.686629371175677"><ele>852.9999999999999</ele><time>2026-04-19T09:38:57.999Z</time></trkpt><trkpt lat="42.45193503324867" lon="12.686492465840198"><ele>853.0</ele><time>2026-04-19T09:38:59.999Z</time></trkpt><trkpt lat="42.45197368449066" lon="12.686409365225657"><ele>853.0</ele><time>2026-04-19T09:39:00.999Z</time></trkpt><trkpt lat="42.45202068820184" lon="12.68634647790047"><ele>853.0</ele><time>2026-04-19T09:39:01.999Z</time></trkpt><trkpt lat="42.45207392253797" lon="12.686266356579821"><ele>852.9999999999999</ele><time>2026-04-19T09:39:02.999Z</time></trkpt><trkpt lat="42.45212984007239" lon="12.686198806021778"><ele>853.0</ele><time>2026-04-19T09:39:03.999Z</time></trkpt><trkpt lat="42.452183710342766" lon="12.68612784036099"><ele>853.8333333333333</ele><time>2026-04-19T09:39:04.999Z</time></trkpt><trkpt lat="42.45223214146139" lon="12.686053586404624"><ele>854.6666666666666</ele><time>2026-04-19T09:39:05.999Z</time></trkpt><trkpt lat="42.45227787664941" lon="12.68596948513558"><ele>855.5</ele><time>2026-04-19T09:39:06.999Z</time></trkpt><trkpt lat="42.45232662974165" lon="12.685889727987034"><ele>856.3333333333333</ele><time>2026-04-19T09:39:07.999Z</time></trkpt><trkpt lat="42.45237550468496" lon="12.685811557352407"><ele>857.1666666666666</ele><time>2026-04-19T09:39:08.999Z</time></trkpt><trkpt lat="42.4524277113127" lon="12.685729411579645"><ele>858.0</ele><time>2026-04-19T09:39:09.999Z</time></trkpt><trkpt lat="42.45246822523582" lon="12.685636108408858"><ele>858.0</ele><time>2026-04-19T09:39:10.999Z</time></trkpt><trkpt lat="42.45253338493912" lon="12.68555985236749"><ele>858.0</ele><time>2026-04-19T09:39:11.999Z</time></trkpt><trkpt lat="42.452581516388236" lon="12.68549370326992"><ele>858.0</ele><time>2026-04-19T09:39:12.999Z</time></trkpt><trkpt lat="42.452627767691204" lon="12.685433784734757"><ele>858.0</ele><time>2026-04-19T09:39:14.999Z</time></trkpt><trkpt lat="42.452701318843374" lon="12.685368983963068"><ele>858.0</ele><time>2026-04-19T09:39:17.999Z</time></trkpt><trkpt lat="42.452785037266544" lon="12.685334254352329"><ele>858.0</ele><time>2026-04-19T09:39:19.999Z</time></trkpt><trkpt lat="42.45287761620718" lon="12.685312395352057"><ele>855.8333333333334</ele><time>2026-04-19T09:39:21.999Z</time></trkpt><trkpt lat="42.45296362244089" lon="12.68524945231174"><ele>853.6666666666667</ele><time>2026-04-19T09:39:23.999Z</time></trkpt><trkpt lat="42.45301885710557" lon="12.685152681795936"><ele>851.5</ele><time>2026-04-19T09:39:25.999Z</time></trkpt><trkpt lat="42.45303547162891" lon="12.685026240276326"><ele>849.3333333333334</ele><time>2026-04-19T09:39:27.999Z</time></trkpt><trkpt lat="42.45305339663038" lon="12.684923733474472"><ele>847.1666666666667</ele><time>2026-04-19T09:39:29.999Z</time></trkpt><trkpt lat="42.45305288974388" lon="12.684813818067946"><ele>845.0</ele><time>2026-04-19T09:39:31.999Z</time></trkpt><trkpt lat="42.45306716781939" lon="12.684715041829422"><ele>845.0</ele><time>2026-04-19T09:39:33.999Z</time></trkpt><trkpt lat="42.45306142853653" lon="12.684608482316559"><ele>845.0</ele><time>2026-04-19T09:39:36.999Z</time></trkpt><trkpt lat="42.45305659116869" lon="12.684472121113378"><ele>845.0</ele><time>2026-04-19T09:39:39.999Z</time></trkpt><trkpt lat="42.45307828855681" lon="12.684343790115678"><ele>845.0</ele><time>2026-04-19T09:39:41.999Z</time></trkpt><trkpt lat="42.4531161664558" lon="12.68419505626378"><ele>845.0</ele><time>2026-04-19T09:39:43.999Z</time></trkpt><trkpt lat="42.45313575975526" lon="12.684028445718422"><ele>844.5714285714286</ele><time>2026-04-19T09:39:45.999Z</time></trkpt><trkpt lat="42.45313359110997" lon="12.683937022639078"><ele>844.1428571428571</ele><time>2026-04-19T09:39:46.999Z</time></trkpt><trkpt lat="42.453119348431024" lon="12.683832392542998"><ele>843.7142857142858</ele><time>2026-04-19T09:39:47.999Z</time></trkpt><trkpt lat="42.453090882588356" lon="12.683737326856583"><ele>843.2857142857142</ele><time>2026-04-19T09:39:48.999Z</time></trkpt><trkpt lat="42.45308484225467" lon="12.683637542761693"><ele>842.8571428571429</ele><time>2026-04-19T09:39:49.999Z</time></trkpt><trkpt lat="42.45307040592321" lon="12.683551624998573"><ele>842.4285714285714</ele><time>2026-04-19T09:39:50.999Z</time></trkpt><trkpt lat="42.45306156259305" lon="12.683458467448613"><ele>842.0</ele><time>2026-04-19T09:39:51.998Z</time></trkpt><trkpt lat="42.45304237435367" lon="12.683368296408606"><ele>841.8</ele><time>2026-04-19T09:39:52.998Z</time></trkpt><trkpt lat="42.453037219016885" lon="12.683276352996959"><ele>841.6</ele><time>2026-04-19T09:39:53.998Z</time></trkpt><trkpt lat="42.45304259347527" lon="12.683111792488678"><ele>841.4</ele><time>2026-04-19T09:39:55.998Z</time></trkpt><trkpt lat="42.45310509673243" lon="12.682964099230913"><ele>841.1999999999999</ele><time>2026-04-19T09:39:57.998Z</time></trkpt><trkpt lat="42.45317323400396" lon="12.682815007457554"><ele>841.0</ele><time>2026-04-19T09:39:59.998Z</time></trkpt><trkpt lat="42.45322240735596" lon="12.682753422591041"><ele>841.2857142857143</ele><time>2026-04-19T09:40:00.998Z</time></trkpt><trkpt lat="42.45327872051997" lon="12.682712686209838"><ele>841.5714285714286</ele><time>2026-04-19T09:40:01.999Z</time></trkpt><trkpt lat="42.45331570610838" lon="12.682636886318647"><ele>841.8571428571429</ele><time>2026-04-19T09:40:02.999Z</time></trkpt><trkpt lat="42.453369504092954" lon="12.682565635319431"><ele>842.1428571428571</ele><time>2026-04-19T09:40:03.999Z</time></trkpt><trkpt lat="42.4534302432568" lon="12.682511508052464"><ele>842.4285714285713</ele><time>2026-04-19T09:40:04.999Z</time></trkpt><trkpt lat="42.453480347397175" lon="12.68244943033258"><ele>842.7142857142857</ele><time>2026-04-19T09:40:05.999Z</time></trkpt><trkpt lat="42.45353786209188" lon="12.682386075983986"><ele>843.0</ele><time>2026-04-19T09:40:06.999Z</time></trkpt><trkpt lat="42.45359890696235" lon="12.682330231246192"><ele>843.0</ele><time>2026-04-19T09:40:07.999Z</time></trkpt><trkpt lat="42.45367160182473" lon="12.682276155462569"><ele>843.0</ele><time>2026-04-19T09:40:08.999Z</time></trkpt><trkpt lat="42.45375156910121" lon="12.68222492494765"><ele>843.0</ele><time>2026-04-19T09:40:09.999Z</time></trkpt><trkpt lat="42.45382680140079" lon="12.682178031497719"><ele>843.0</ele><time>2026-04-19T09:40:10.999Z</time></trkpt><trkpt lat="42.453893894553175" lon="12.682132926364286"><ele>843.0</ele><time>2026-04-19T09:40:11.999Z</time></trkpt><trkpt lat="42.4540011265841" lon="12.682047586905615"><ele>842.0</ele><time>2026-04-19T09:40:13.999Z</time></trkpt><trkpt lat="42.454045444063006" lon="12.681980638797842"><ele>841.0</ele><time>2026-04-19T09:40:14.999Z</time></trkpt><trkpt lat="42.45407479264736" lon="12.68189192646641"><ele>840.0</ele><time>2026-04-19T09:40:15.999Z</time></trkpt><trkpt lat="42.45409177162628" lon="12.681803107018197"><ele>839.0</ele><time>2026-04-19T09:40:16.999Z</time></trkpt><trkpt lat="42.454115399193725" lon="12.681719171611807"><ele>838.0</ele><time>2026-04-19T09:40:17.999Z</time></trkpt><trkpt lat="42.454146226085065" lon="12.681624658476112"><ele>837.0</ele><time>2026-04-19T09:40:18.999Z</time></trkpt><trkpt lat="42.4541791203774" lon="12.681531457947207"><ele>836.0</ele><time>2026-04-19T09:40:19.999Z</time></trkpt><trkpt lat="42.454219032039234" lon="12.681431359852594"><ele>836.0000000000001</ele><time>2026-04-19T09:40:20.999Z</time></trkpt><trkpt lat="42.45425880530025" lon="12.681331612633928"><ele>836.0</ele><time>2026-04-19T09:40:21.999Z</time></trkpt><trkpt lat="42.45428470838783" lon="12.68122539544121"><ele>836.0</ele><time>2026-04-19T09:40:22.999Z</time></trkpt><trkpt lat="42.45432762467694" lon="12.681113237323554"><ele>836.0</ele><time>2026-04-19T09:40:23.999Z</time></trkpt><trkpt lat="42.45437964779679" lon="12.68101582923188"><ele>836.0000000000001</ele><time>2026-04-19T09:40:24.999Z</time></trkpt><trkpt lat="42.45439911140546" lon="12.68092688466574"><ele>836.0</ele><time>2026-04-19T09:40:25.999Z</time></trkpt><trkpt lat="42.45441726277536" lon="12.680813828305228"><ele>836.0000000000001</ele><time>2026-04-19T09:40:26.999Z</time></trkpt><trkpt lat="42.45442244654764" lon="12.680708931710079"><ele>836.0</ele><time>2026-04-19T09:40:27.999Z</time></trkpt><trkpt lat="42.45443147174536" lon="12.68060651217783"><ele>836.0</ele><time>2026-04-19T09:40:28.999Z</time></trkpt><trkpt lat="42.4544427609353" lon="12.680505933987337"><ele>836.0</ele><time>2026-04-19T09:40:29.999Z</time></trkpt><trkpt lat="42.45445384149123" lon="12.680413471745243"><ele>836.0000000000001</ele><time>2026-04-19T09:40:30.999Z</time></trkpt><trkpt lat="42.454473292940335" lon="12.680323946651573"><ele>836.0</ele><time>2026-04-19T09:40:31.999Z</time></trkpt><trkpt lat="42.4545525392081" lon="12.680185729595076"><ele>835.8333333333334</ele><time>2026-04-19T09:40:33.999Z</time></trkpt><trkpt lat="42.45461451040104" lon="12.680117995288569"><ele>835.6666666666667</ele><time>2026-04-19T09:40:34.999Z</time></trkpt><trkpt lat="42.45468088459582" lon="12.680023817715636"><ele>835.5</ele><time>2026-04-19T09:40:35.999Z</time></trkpt><trkpt lat="42.45473021113997" lon="12.679935985805205"><ele>835.3333333333333</ele><time>2026-04-19T09:40:36.999Z</time></trkpt><trkpt lat="42.4547641744997" lon="12.67980976516765"><ele>835.1666666666666</ele><time>2026-04-19T09:40:37.999Z</time></trkpt><trkpt lat="42.45480126636891" lon="12.679699662502824"><ele>835.0</ele><time>2026-04-19T09:40:38.999Z</time></trkpt><trkpt lat="42.45484503169608" lon="12.679584073253608"><ele>830.1666666666666</ele><time>2026-04-19T09:40:39.999Z</time></trkpt><trkpt lat="42.45488888442052" lon="12.6794730632368"><ele>825.3333333333333</ele><time>2026-04-19T09:40:40.999Z</time></trkpt><trkpt lat="42.45493679477585" lon="12.679362550442013"><ele>820.5</ele><time>2026-04-19T09:40:41.999Z</time></trkpt><trkpt lat="42.454988426165784" lon="12.679267762714478"><ele>815.6666666666667</ele><time>2026-04-19T09:40:42.999Z</time></trkpt><trkpt lat="42.4550440447303" lon="12.67918615229749"><ele>810.8333333333334</ele><time>2026-04-19T09:40:43.999Z</time></trkpt><trkpt lat="42.45511403273689" lon="12.679117945467674"><ele>806.0</ele><time>2026-04-19T09:40:44.999Z</time></trkpt><trkpt lat="42.45517898721389" lon="12.679032709654662"><ele>806.0</ele><time>2026-04-19T09:40:45.999Z</time></trkpt><trkpt lat="42.45526020020101" lon="12.67896636309871"><ele>806.0</ele><time>2026-04-19T09:40:46.999Z</time></trkpt><trkpt lat="42.45533288674308" lon="12.678884876101275"><ele>806.0</ele><time>2026-04-19T09:40:47.999Z</time></trkpt><trkpt lat="42.45540214060154" lon="12.678805652378397"><ele>806.0</ele><time>2026-04-19T09:40:48.999Z</time></trkpt><trkpt lat="42.455448089927046" lon="12.67869974115149"><ele>806.0</ele><time>2026-04-19T09:40:49.999Z</time></trkpt><trkpt lat="42.455493091735434" lon="12.67859157054984"><ele>802.5000000000001</ele><time>2026-04-19T09:40:50.999Z</time></trkpt><trkpt lat="42.45553442145788" lon="12.678483545802987"><ele>799.0</ele><time>2026-04-19T09:40:51.999Z</time></trkpt><trkpt lat="42.45557099261772" lon="12.678370951902469"><ele>795.5</ele><time>2026-04-19T09:40:52.999Z</time></trkpt><trkpt lat="42.455589702092134" lon="12.678243009640463"><ele>792.0</ele><time>2026-04-19T09:40:53.999Z</time></trkpt><trkpt lat="42.45561711793997" lon="12.678134034829583"><ele>788.5000000000001</ele><time>2026-04-19T09:40:54.999Z</time></trkpt><trkpt lat="42.455647190750895" lon="12.678033005774115"><ele>785.0</ele><time>2026-04-19T09:40:55.999Z</time></trkpt><trkpt lat="42.455672082325826" lon="12.677899842321466"><ele>785.0</ele><time>2026-04-19T09:40:56.999Z</time></trkpt><trkpt lat="42.455695080892866" lon="12.677769560321577"><ele>785.0</ele><time>2026-04-19T09:40:57.999Z</time></trkpt><trkpt lat="42.455720559946" lon="12.677623487497566"><ele>785.0</ele><time>2026-04-19T09:40:58.999Z</time></trkpt><trkpt lat="42.45574691379674" lon="12.677472399403477"><ele>785.0</ele><time>2026-04-19T09:40:59.999Z</time></trkpt><trkpt lat="42.455761943197935" lon="12.677322040861151"><ele>785.0</ele><time>2026-04-19T09:41:00.999Z</time></trkpt><trkpt lat="42.4558092392212" lon="12.67716562926117"><ele>783.8</ele><time>2026-04-19T09:41:01.999Z</time></trkpt><trkpt lat="42.455819662908524" lon="12.67699373186585"><ele>782.6</ele><time>2026-04-19T09:41:02.999Z</time></trkpt><trkpt lat="42.45580871745787" lon="12.676826310700363"><ele>781.4000000000001</ele><time>2026-04-19T09:41:03.999Z</time></trkpt><trkpt lat="42.45582235108664" lon="12.676689888092904"><ele>780.2</ele><time>2026-04-19T09:41:04.999Z</time></trkpt><trkpt lat="42.45583134883778" lon="12.67658900829684"><ele>779.0</ele><time>2026-04-19T09:41:05.999Z</time></trkpt><trkpt lat="42.45582856665738" lon="12.676502083574338"><ele>776.75</ele><time>2026-04-19T09:41:06.999Z</time></trkpt><trkpt lat="42.45583604390398" lon="12.676349807935647"><ele>774.5</ele><time>2026-04-19T09:41:08.999Z</time></trkpt><trkpt lat="42.455847355026826" lon="12.676197787892152"><ele>772.25</ele><time>2026-04-19T09:41:10.999Z</time></trkpt><trkpt lat="42.455862399672704" lon="12.676034688288427"><ele>770.0</ele><time>2026-04-19T09:41:12.999Z</time></trkpt><trkpt lat="42.45585422716669" lon="12.67586169769004"><ele>769.2857142857143</ele><time>2026-04-19T09:41:14.999Z</time></trkpt><trkpt lat="42.45585433683381" lon="12.675772100740183"><ele>768.5714285714286</ele><time>2026-04-19T09:41:15.999Z</time></trkpt><trkpt lat="42.455850436860246" lon="12.675682115222273"><ele>767.8571428571429</ele><time>2026-04-19T09:41:16.999Z</time></trkpt><trkpt lat="42.455848290457496" lon="12.675586323980838"><ele>767.1428571428571</ele><time>2026-04-19T09:41:17.999Z</time></trkpt><trkpt lat="42.45584893426173" lon="12.67548607046766"><ele>766.4285714285714</ele><time>2026-04-19T09:41:18.999Z</time></trkpt><trkpt lat="42.455852337505256" lon="12.675378291613498"><ele>765.7142857142858</ele><time>2026-04-19T09:41:19.999Z</time></trkpt><trkpt lat="42.455841496955635" lon="12.675277714795714"><ele>765.0</ele><time>2026-04-19T09:41:20.999Z</time></trkpt><trkpt lat="42.455846976736595" lon="12.675168593667207"><ele>763.5</ele><time>2026-04-19T09:41:21.999Z</time></trkpt><trkpt lat="42.45584850351465" lon="12.675064412161834"><ele>762.0</ele><time>2026-04-19T09:41:22.999Z</time></trkpt><trkpt lat="42.45585376264762" lon="12.674958726211026"><ele>760.5</ele><time>2026-04-19T09:41:23.999Z</time></trkpt><trkpt lat="42.455854178749135" lon="12.67485113635127"><ele>759.0</ele><time>2026-04-19T09:41:24.999Z</time></trkpt><trkpt lat="42.45586876095079" lon="12.674743017992249"><ele>757.5</ele><time>2026-04-19T09:41:25.999Z</time></trkpt><trkpt lat="42.455870037393446" lon="12.674642000487358"><ele>756.0</ele><time>2026-04-19T09:41:26.999Z</time></trkpt><trkpt lat="42.455871561335" lon="12.674521396014194"><ele>755.1999999999999</ele><time>2026-04-19T09:41:27.999Z</time></trkpt><trkpt lat="42.45585728583128" lon="12.674396575917827"><ele>754.4</ele><time>2026-04-19T09:41:28.999Z</time></trkpt><trkpt lat="42.45585944599633" lon="12.674274813856291"><ele>753.6</ele><time>2026-04-19T09:41:29.999Z</time></trkpt><trkpt lat="42.45585134813878" lon="12.674152104090116"><ele>752.8</ele><time>2026-04-19T09:41:30.999Z</time></trkpt><trkpt lat="42.455824077627426" lon="12.674023790467116"><ele>752.0</ele><time>2026-04-19T09:41:31.999Z</time></trkpt><trkpt lat="42.455781911207154" lon="12.673915572015972"><ele>752.0</ele><time>2026-04-19T09:41:32.999Z</time></trkpt><trkpt lat="42.4557311546416" lon="12.673809829876014"><ele>752.0</ele><time>2026-04-19T09:41:33.999Z</time></trkpt><trkpt lat="42.45568645622782" lon="12.673705624940308"><ele>752.0</ele><time>2026-04-19T09:41:34.999Z</time></trkpt><trkpt lat="42.45565893391444" lon="12.67359046506269"><ele>752.0</ele><time>2026-04-19T09:41:35.999Z</time></trkpt><trkpt lat="42.455626007409435" lon="12.67348289965878"><ele>752.0</ele><time>2026-04-19T09:41:36.999Z</time></trkpt><trkpt lat="42.45559040585919" lon="12.67336233827922"><ele>750.4000000000001</ele><time>2026-04-19T09:41:37.999Z</time></trkpt><trkpt lat="42.45554021733952" lon="12.673252096190168"><ele>748.8000000000001</ele><time>2026-04-19T09:41:38.999Z</time></trkpt><trkpt lat="42.45549974858336" lon="12.673139056406583"><ele>747.2</ele><time>2026-04-19T09:41:39.999Z</time></trkpt><trkpt lat="42.455461038254256" lon="12.673035115070153"><ele>745.6</ele><time>2026-04-19T09:41:40.999Z</time></trkpt><trkpt lat="42.45541881630238" lon="12.67292368080167"><ele>744.0</ele><time>2026-04-19T09:41:41.999Z</time></trkpt><trkpt lat="42.45537541116878" lon="12.672810467527414"><ele>742.6</ele><time>2026-04-19T09:41:42.999Z</time></trkpt><trkpt lat="42.455329614322245" lon="12.67269554428315"><ele>741.2</ele><time>2026-04-19T09:41:43.999Z</time></trkpt><trkpt lat="42.45527910266391" lon="12.672584996635502"><ele>739.8000000000001</ele><time>2026-04-19T09:41:44.999Z</time></trkpt><trkpt lat="42.45521768097993" lon="12.672476139333867"><ele>738.4000000000001</ele><time>2026-04-19T09:41:45.999Z</time></trkpt><trkpt lat="42.45516025348448" lon="12.672368552759977"><ele>737.0</ele><time>2026-04-19T09:41:46.999Z</time></trkpt><trkpt lat="42.4551053554062" lon="12.672250949429527"><ele>737.0</ele><time>2026-04-19T09:41:47.999Z</time></trkpt><trkpt lat="42.45504814278994" lon="12.672137620251966"><ele>737.0</ele><time>2026-04-19T09:41:48.999Z</time></trkpt><trkpt lat="42.45499752048337" lon="12.672029959252791"><ele>737.0</ele><time>2026-04-19T09:41:49.999Z</time></trkpt><trkpt lat="42.45493896327165" lon="12.671916718017737"><ele>737.0</ele><time>2026-04-19T09:41:50.999Z</time></trkpt><trkpt lat="42.45489254486499" lon="12.67180179630746"><ele>737.0</ele><time>2026-04-19T09:41:51.999Z</time></trkpt><trkpt lat="42.45482307274992" lon="12.671705302398605"><ele>735.8</ele><time>2026-04-19T09:41:52.999Z</time></trkpt><trkpt lat="42.45475904276104" lon="12.67160138019793"><ele>734.6</ele><time>2026-04-19T09:41:53.999Z</time></trkpt><trkpt lat="42.45469805609162" lon="12.671488063033689"><ele>733.4</ele><time>2026-04-19T09:41:54.999Z</time></trkpt><trkpt lat="42.45463042514591" lon="12.671393102447421"><ele>732.1999999999999</ele><time>2026-04-19T09:41:55.999Z</time></trkpt><trkpt lat="42.454568147452" lon="12.671311957104896"><ele>731.0</ele><time>2026-04-19T09:41:56.999Z</time></trkpt><trkpt lat="42.454498953127924" lon="12.671251335307547"><ele>730.8333333333333</ele><time>2026-04-19T09:41:57.999Z</time></trkpt><trkpt lat="42.45442993762075" lon="12.671212401231156"><ele>730.6666666666666</ele><time>2026-04-19T09:41:58.999Z</time></trkpt><trkpt lat="42.45433702220485" lon="12.671246571942254"><ele>730.5</ele><time>2026-04-19T09:41:59.999Z</time></trkpt><trkpt lat="42.45425378470899" lon="12.671251404241417"><ele>730.3333333333334</ele><time>2026-04-19T09:42:00.999Z</time></trkpt><trkpt lat="42.45416950285587" lon="12.671237656209321"><ele>730.1666666666667</ele><time>2026-04-19T09:42:01.999Z</time></trkpt><trkpt lat="42.45409942489873" lon="12.671194500972105"><ele>730.0</ele><time>2026-04-19T09:42:02.999Z</time></trkpt><trkpt lat="42.45402624018205" lon="12.671128103483703"><ele>728.6666666666667</ele><time>2026-04-19T09:42:03.999Z</time></trkpt><trkpt lat="42.45396265367695" lon="12.671060276537919"><ele>727.3333333333334</ele><time>2026-04-19T09:42:04.999Z</time></trkpt><trkpt lat="42.45389964504928" lon="12.671006244290083"><ele>726.0</ele><time>2026-04-19T09:42:05.999Z</time></trkpt><trkpt lat="42.45381764792" lon="12.670967389537443"><ele>724.6666666666666</ele><time>2026-04-19T09:42:06.999Z</time></trkpt><trkpt lat="42.453738528281626" lon="12.670940075178585"><ele>723.3333333333333</ele><time>2026-04-19T09:42:07.999Z</time></trkpt><trkpt lat="42.45366378133072" lon="12.67092669837894"><ele>722.0</ele><time>2026-04-19T09:42:08.999Z</time></trkpt><trkpt lat="42.45358471680329" lon="12.670907520528706"><ele>721.5</ele><time>2026-04-19T09:42:09.999Z</time></trkpt><trkpt lat="42.45350740255188" lon="12.670902899867452"><ele>721.0</ele><time>2026-04-19T09:42:10.999Z</time></trkpt><trkpt lat="42.45342630518475" lon="12.670879361836034"><ele>720.5</ele><time>2026-04-19T09:42:11.999Z</time></trkpt><trkpt lat="42.4533488293363" lon="12.670896076138703"><ele>720.0</ele><time>2026-04-19T09:42:12.999Z</time></trkpt><trkpt lat="42.4532759789035" lon="12.670947245175853"><ele>719.5</ele><time>2026-04-19T09:42:13.999Z</time></trkpt><trkpt lat="42.453218135817515" lon="12.671038628155962"><ele>719.0</ele><time>2026-04-19T09:42:14.999Z</time></trkpt><trkpt lat="42.45317952458451" lon="12.671139169945855"><ele>719.0</ele><time>2026-04-19T09:42:15.999Z</time></trkpt><trkpt lat="42.45318050318103" lon="12.671252515697276"><ele>719.0</ele><time>2026-04-19T09:42:16.999Z</time></trkpt><trkpt lat="42.4531676771327" lon="12.671355452268635"><ele>719.0</ele><time>2026-04-19T09:42:17.999Z</time></trkpt><trkpt lat="42.4531336078024" lon="12.671435396495847"><ele>719.0</ele><time>2026-04-19T09:42:18.999Z</time></trkpt><trkpt lat="42.4530569043349" lon="12.671557653962626"><ele>719.0</ele><time>2026-04-19T09:42:20.999Z</time></trkpt><trkpt lat="42.45295580644644" lon="12.671597828480811"><ele>720.2</ele><time>2026-04-19T09:42:22.999Z</time></trkpt><trkpt lat="42.45284074873941" lon="12.671651849695142"><ele>721.4000000000001</ele><time>2026-04-19T09:42:24.999Z</time></trkpt><trkpt lat="42.45273191143069" lon="12.671722369003737"><ele>722.6</ele><time>2026-04-19T09:42:26.999Z</time></trkpt><trkpt lat="42.45271465213396" lon="12.671813521134794"><ele>723.8</ele><time>2026-04-19T09:42:27.999Z</time></trkpt><trkpt lat="42.45267440365783" lon="12.67189039542848"><ele>725.0</ele><time>2026-04-19T09:42:28.999Z</time></trkpt><trkpt lat="42.45261644700171" lon="12.671949199997723"><ele>725.0</ele><time>2026-04-19T09:42:29.999Z</time></trkpt><trkpt lat="42.452546234328864" lon="12.67198248569359"><ele>725.0</ele><time>2026-04-19T09:42:30.999Z</time></trkpt><trkpt lat="42.452484100911164" lon="12.672015921452166"><ele>725.0</ele><time>2026-04-19T09:42:31.999Z</time></trkpt><trkpt lat="42.45241630217877" lon="12.671990154128121"><ele>725.0</ele><time>2026-04-19T09:42:32.999Z</time></trkpt><trkpt lat="42.4522975129931" lon="12.671933673127072"><ele>725.0</ele><time>2026-04-19T09:42:34.999Z</time></trkpt><trkpt lat="42.452185795889406" lon="12.671879053695378"><ele>719.6</ele><time>2026-04-19T09:42:36.999Z</time></trkpt><trkpt lat="42.45206707489317" lon="12.671873092883976"><ele>714.2</ele><time>2026-04-19T09:42:38.999Z</time></trkpt><trkpt lat="42.45193581362289" lon="12.671894435759237"><ele>708.8</ele><time>2026-04-19T09:42:40.999Z</time></trkpt><trkpt lat="42.45186626763091" lon="12.6718591495372"><ele>703.4</ele><time>2026-04-19T09:42:41.999Z</time></trkpt><trkpt lat="42.451799015662544" lon="12.671853560377329"><ele>698.0</ele><time>2026-04-19T09:42:42.999Z</time></trkpt><trkpt lat="42.4517319977085" lon="12.671807093394138"><ele>698.0</ele><time>2026-04-19T09:42:43.999Z</time></trkpt><trkpt lat="42.45166445321063" lon="12.671765467593533"><ele>698.0</ele><time>2026-04-19T09:42:44.999Z</time></trkpt><trkpt lat="42.4515979078903" lon="12.671719999038514"><ele>698.0</ele><time>2026-04-19T09:42:45.999Z</time></trkpt><trkpt lat="42.451527482337916" lon="12.67168783669069"><ele>698.0</ele><time>2026-04-19T09:42:46.999Z</time></trkpt><trkpt lat="42.45145712375281" lon="12.671634444864816"><ele>698.0</ele><time>2026-04-19T09:42:47.999Z</time></trkpt><trkpt lat="42.45137970409789" lon="12.67157998267036"><ele>698.0</ele><time>2026-04-19T09:42:48.999Z</time></trkpt><trkpt lat="42.45130382409994" lon="12.671532223547498"><ele>698.2857142857142</ele><time>2026-04-19T09:42:49.999Z</time></trkpt><trkpt lat="42.451225082787495" lon="12.671476287684932"><ele>698.5714285714286</ele><time>2026-04-19T09:42:50.999Z</time></trkpt><trkpt lat="42.45115566770207" lon="12.67143109774726"><ele>698.8571428571429</ele><time>2026-04-19T09:42:51.999Z</time></trkpt><trkpt lat="42.45108964968509" lon="12.671389929700863"><ele>699.1428571428571</ele><time>2026-04-19T09:42:52.999Z</time></trkpt><trkpt lat="42.45102674394183" lon="12.671353107805201"><ele>699.4285714285714</ele><time>2026-04-19T09:42:53.999Z</time></trkpt><trkpt lat="42.450974774133726" lon="12.671299447546568"><ele>699.7142857142857</ele><time>2026-04-19T09:42:54.999Z</time></trkpt><trkpt lat="42.450908876281936" lon="12.671277249664609"><ele>700.0</ele><time>2026-04-19T09:42:55.999Z</time></trkpt><trkpt lat="42.450835984539765" lon="12.671275212976484"><ele>700.0</ele><time>2026-04-19T09:42:56.999Z</time></trkpt><trkpt lat="42.45076532974795" lon="12.671300900641747"><ele>700.0</ele><time>2026-04-19T09:42:57.999Z</time></trkpt><trkpt lat="42.45069891457697" lon="12.671334042546848"><ele>700.0</ele><time>2026-04-19T09:42:58.999Z</time></trkpt><trkpt lat="42.45063333875294" lon="12.671384106162739"><ele>700.0</ele><time>2026-04-19T09:42:59.999Z</time></trkpt><trkpt lat="42.45056457412552" lon="12.671445673727945"><ele>700.0</ele><time>2026-04-19T09:43:00.999Z</time></trkpt><trkpt lat="42.450503992118065" lon="12.671518786539753"><ele>700.0</ele><time>2026-04-19T09:43:01.999Z</time></trkpt><trkpt lat="42.45043538103727" lon="12.67157714650409"><ele>699.8333333333334</ele><time>2026-04-19T09:43:02.999Z</time></trkpt><trkpt lat="42.45036661018838" lon="12.671639913452596"><ele>699.6666666666667</ele><time>2026-04-19T09:43:03.999Z</time></trkpt><trkpt lat="42.4503119841706" lon="12.671715250036302"><ele>699.5</ele><time>2026-04-19T09:43:04.999Z</time></trkpt><trkpt lat="42.45025414057912" lon="12.67176681891002"><ele>699.3333333333334</ele><time>2026-04-19T09:43:05.999Z</time></trkpt><trkpt lat="42.45018156694176" lon="12.67180909152041"><ele>699.1666666666666</ele><time>2026-04-19T09:43:06.999Z</time></trkpt><trkpt lat="42.45012401976299" lon="12.671892517334095"><ele>699.0</ele><time>2026-04-19T09:43:07.999Z</time></trkpt><trkpt lat="42.45005326120668" lon="12.671960194473101"><ele>699.0</ele><time>2026-04-19T09:43:08.999Z</time></trkpt><trkpt lat="42.449975808158996" lon="12.671987460996395"><ele>699.0</ele><time>2026-04-19T09:43:09.999Z</time></trkpt><trkpt lat="42.44991318933441" lon="12.672053422791805"><ele>699.0</ele><time>2026-04-19T09:43:10.999Z</time></trkpt><trkpt lat="42.449841329022476" lon="12.67209665610431"><ele>699.0</ele><time>2026-04-19T09:43:11.999Z</time></trkpt><trkpt lat="42.449763978321144" lon="12.672124391780557"><ele>699.0</ele><time>2026-04-19T09:43:12.999Z</time></trkpt><trkpt lat="42.44968858957227" lon="12.67216282711683"><ele>699.0</ele><time>2026-04-19T09:43:13.999Z</time></trkpt><trkpt lat="42.44961562097812" lon="12.672226548271619"><ele>695.5</ele><time>2026-04-19T09:43:14.999Z</time></trkpt><trkpt lat="42.44954078848178" lon="12.672271277247557"><ele>692.0</ele><time>2026-04-19T09:43:15.999Z</time></trkpt><trkpt lat="42.449468380869284" lon="12.672329193922902"><ele>688.5</ele><time>2026-04-19T09:43:16.999Z</time></trkpt><trkpt lat="42.44941446895635" lon="12.672401647409577"><ele>685.0</ele><time>2026-04-19T09:43:17.999Z</time></trkpt><trkpt lat="42.449351754235494" lon="12.672464350893184"><ele>681.5</ele><time>2026-04-19T09:43:18.999Z</time></trkpt><trkpt lat="42.44930659675155" lon="12.672555190007591"><ele>678.0</ele><time>2026-04-19T09:43:19.999Z</time></trkpt><trkpt lat="42.4492601556921" lon="12.672634925615553"><ele>678.0</ele><time>2026-04-19T09:43:20.999Z</time></trkpt><trkpt lat="42.44921684125437" lon="12.672704597053132"><ele>678.0</ele><time>2026-04-19T09:43:21.999Z</time></trkpt><trkpt lat="42.44915665577969" lon="12.672761910647848"><ele>678.0</ele><time>2026-04-19T09:43:22.999Z</time></trkpt><trkpt lat="42.44911065382529" lon="12.672828216434155"><ele>678.0</ele><time>2026-04-19T09:43:23.999Z</time></trkpt><trkpt lat="42.44900922141711" lon="12.672923868420936"><ele>678.0</ele><time>2026-04-19T09:43:25.999Z</time></trkpt><trkpt lat="42.44893752247836" lon="12.672896187888794"><ele>678.0</ele><time>2026-04-19T09:43:26.999Z</time></trkpt><trkpt lat="42.44888591669634" lon="12.672834287244427"><ele>678.0</ele><time>2026-04-19T09:43:27.999Z</time></trkpt><trkpt lat="42.44885443775011" lon="12.672749747206662"><ele>678.0</ele><time>2026-04-19T09:43:28.999Z</time></trkpt><trkpt lat="42.44881561299247" lon="12.67264362962527"><ele>678.0</ele><time>2026-04-19T09:43:29.999Z</time></trkpt><trkpt lat="42.44878264058508" lon="12.672519906387075"><ele>678.0</ele><time>2026-04-19T09:43:30.999Z</time></trkpt><trkpt lat="42.44875603035074" lon="12.672412274743449"><ele>678.0</ele><time>2026-04-19T09:43:31.999Z</time></trkpt><trkpt lat="42.448718509840106" lon="12.672319979874704"><ele>678.0</ele><time>2026-04-19T09:43:32.999Z</time></trkpt><trkpt lat="42.44870695646834" lon="12.672219906870804"><ele>677.8333333333334</ele><time>2026-04-19T09:43:34Z</time></trkpt><trkpt lat="42.4486684893375" lon="12.67213417309777"><ele>677.6666666666666</ele><time>2026-04-19T09:43:35Z</time></trkpt><trkpt lat="42.44864633253138" lon="12.672051172205046"><ele>677.5</ele><time>2026-04-19T09:43:36Z</time></trkpt><trkpt lat="42.44863224121621" lon="12.671967751757064"><ele>677.3333333333333</ele><time>2026-04-19T09:43:37Z</time></trkpt><trkpt lat="42.44857132779276" lon="12.671850045168615"><ele>677.1666666666666</ele><time>2026-04-19T09:43:39Z</time></trkpt><trkpt lat="42.448489729801885" lon="12.671800020174851"><ele>677.0</ele><time>2026-04-19T09:43:41Z</time></trkpt><trkpt lat="42.44844606980234" lon="12.671721736355558"><ele>675.0</ele><time>2026-04-19T09:43:43Z</time></trkpt><trkpt lat="42.448417223304816" lon="12.671601608701396"><ele>673.0</ele><time>2026-04-19T09:43:45Z</time></trkpt><trkpt lat="42.448496540535025" lon="12.67146636210132"><ele>671.0</ele><time>2026-04-19T09:43:47Z</time></trkpt><trkpt lat="42.44851349180442" lon="12.671379061041184"><ele>669.0</ele><time>2026-04-19T09:43:48Z</time></trkpt><trkpt lat="42.448538752579104" lon="12.671277075211718"><ele>667.0</ele><time>2026-04-19T09:43:49Z</time></trkpt><trkpt lat="42.44857695081827" lon="12.671153363706912"><ele>663.8</ele><time>2026-04-19T09:43:50Z</time></trkpt><trkpt lat="42.44861652587566" lon="12.67103188920754"><ele>660.6</ele><time>2026-04-19T09:43:51Z</time></trkpt><trkpt lat="42.44865853208288" lon="12.670933380224358"><ele>657.4</ele><time>2026-04-19T09:43:52Z</time></trkpt><trkpt lat="42.4487037485517" lon="12.670828498495808"><ele>654.1999999999999</ele><time>2026-04-19T09:43:53Z</time></trkpt><trkpt lat="42.44875888362003" lon="12.670741310757762"><ele>651.0</ele><time>2026-04-19T09:43:54Z</time></trkpt><trkpt lat="42.4487691888697" lon="12.670612609497828"><ele>651.0</ele><time>2026-04-19T09:43:55Z</time></trkpt><trkpt lat="42.44879199112076" lon="12.670509555115279"><ele>651.0</ele><time>2026-04-19T09:43:56Z</time></trkpt><trkpt lat="42.448824505821285" lon="12.670411361585021"><ele>651.0</ele><time>2026-04-19T09:43:57Z</time></trkpt><trkpt lat="42.44887655060722" lon="12.670323839655945"><ele>651.0</ele><time>2026-04-19T09:43:58Z</time></trkpt><trkpt lat="42.448910737637306" lon="12.67022490014755"><ele>651.0</ele><time>2026-04-19T09:43:59Z</time></trkpt><trkpt lat="42.44896775524874" lon="12.67014752876489"><ele>651.0</ele><time>2026-04-19T09:44:00Z</time></trkpt><trkpt lat="42.4490206740575" lon="12.670063478872008"><ele>650.1666666666666</ele><time>2026-04-19T09:44:01Z</time></trkpt><trkpt lat="42.44905896047551" lon="12.669975134847014"><ele>649.3333333333334</ele><time>2026-04-19T09:44:02Z</time></trkpt><trkpt lat="42.44908957822629" lon="12.669861686282617"><ele>648.5</ele><time>2026-04-19T09:44:03Z</time></trkpt><trkpt lat="42.4490962932658" lon="12.669752847982107"><ele>647.6666666666667</ele><time>2026-04-19T09:44:04Z</time></trkpt><trkpt lat="42.44907938370966" lon="12.669647457916293"><ele>646.8333333333334</ele><time>2026-04-19T09:44:05Z</time></trkpt><trkpt lat="42.449079868143194" lon="12.669540379386321"><ele>646.0</ele><time>2026-04-19T09:44:06Z</time></trkpt><trkpt lat="42.44905738909993" lon="12.66944455759585"><ele>645.1999999999999</ele><time>2026-04-19T09:44:07Z</time></trkpt><trkpt lat="42.449028259889495" lon="12.669347888450112"><ele>644.4</ele><time>2026-04-19T09:44:08Z</time></trkpt><trkpt lat="42.44898824169137" lon="12.669244767031032"><ele>643.6</ele><time>2026-04-19T09:44:09Z</time></trkpt><trkpt lat="42.448937496458804" lon="12.669131915773846"><ele>642.8</ele><time>2026-04-19T09:44:10Z</time></trkpt><trkpt lat="42.44887335056621" lon="12.669026606142745"><ele>642.0</ele><time>2026-04-19T09:44:11Z</time></trkpt><trkpt lat="42.448826934799364" lon="12.668902495574034"><ele>637.25</ele><time>2026-04-19T09:44:12Z</time></trkpt><trkpt lat="42.44875762909362" lon="12.668797369226192"><ele>632.5</ele><time>2026-04-19T09:44:13Z</time></trkpt><trkpt lat="42.44869946168685" lon="12.668668230410871"><ele>627.75</ele><time>2026-04-19T09:44:14Z</time></trkpt><trkpt lat="42.448632933143564" lon="12.66854492230883"><ele>623.0</ele><time>2026-04-19T09:44:15Z</time></trkpt><trkpt lat="42.448576173170416" lon="12.668392503637012"><ele>621.5</ele><time>2026-04-19T09:44:16Z</time></trkpt><trkpt lat="42.44850015507582" lon="12.6682614717869"><ele>620.0</ele><time>2026-04-19T09:44:17Z</time></trkpt><trkpt lat="42.448433617219614" lon="12.668116358248454"><ele>618.5</ele><time>2026-04-19T09:44:18Z</time></trkpt><trkpt lat="42.44837869935085" lon="12.667951586987128"><ele>617.0</ele><time>2026-04-19T09:44:19Z</time></trkpt><trkpt lat="42.448298495521904" lon="12.667806355889212"><ele>617.5</ele><time>2026-04-19T09:44:20Z</time></trkpt><trkpt lat="42.448228044381544" lon="12.6676280293145"><ele>618.0</ele><time>2026-04-19T09:44:21Z</time></trkpt><trkpt lat="42.448155909796185" lon="12.667483502048531"><ele>618.5</ele><time>2026-04-19T09:44:22Z</time></trkpt><trkpt lat="42.448078249983816" lon="12.66732286226631"><ele>619.0</ele><time>2026-04-19T09:44:23Z</time></trkpt><trkpt lat="42.44800186027663" lon="12.667161427470695"><ele>610.75</ele><time>2026-04-19T09:44:24Z</time></trkpt><trkpt lat="42.447923502351394" lon="12.666992574671783"><ele>602.5</ele><time>2026-04-19T09:44:25Z</time></trkpt><trkpt lat="42.44784741957547" lon="12.666825825635504"><ele>594.25</ele><time>2026-04-19T09:44:26Z</time></trkpt><trkpt lat="42.44777824384162" lon="12.66667365829866"><ele>586.0</ele><time>2026-04-19T09:44:27Z</time></trkpt><trkpt lat="42.4477121271053" lon="12.666525025310097"><ele>586.0</ele><time>2026-04-19T09:44:28Z</time></trkpt><trkpt lat="42.4476556048776" lon="12.666385751280549"><ele>586.0</ele><time>2026-04-19T09:44:29Z</time></trkpt><trkpt lat="42.447613641392884" lon="12.66626664522284"><ele>586.0</ele><time>2026-04-19T09:44:30Z</time></trkpt><trkpt lat="42.44758861357633" lon="12.666170948805862"><ele>586.0</ele><time>2026-04-19T09:44:31Z</time></trkpt><trkpt lat="42.447573686262885" lon="12.66606189541307"><ele>586.0</ele><time>2026-04-19T09:44:32Z</time></trkpt><trkpt lat="42.447577352815124" lon="12.665956474442496"><ele>586.0</ele><time>2026-04-19T09:44:33Z</time></trkpt><trkpt lat="42.44761465609008" lon="12.6658398046492"><ele>585.75</ele><time>2026-04-19T09:44:34Z</time></trkpt><trkpt lat="42.44769056573336" lon="12.665708569021833"><ele>585.5</ele><time>2026-04-19T09:44:35Z</time></trkpt><trkpt lat="42.44775737242616" lon="12.665534794465534"><ele>585.25</ele><time>2026-04-19T09:44:37Z</time></trkpt><trkpt lat="42.44777853713232" lon="12.665382846326867"><ele>585.0</ele><time>2026-04-19T09:44:38Z</time></trkpt><trkpt lat="42.447786439179666" lon="12.665244099867712"><ele>582.8</ele><time>2026-04-19T09:44:39Z</time></trkpt><trkpt lat="42.44779681501843" lon="12.665104163899226"><ele>580.6</ele><time>2026-04-19T09:44:40Z</time></trkpt><trkpt lat="42.44779726999534" lon="12.664962551018586"><ele>578.4</ele><time>2026-04-19T09:44:41Z</time></trkpt><trkpt lat="42.44780375720321" lon="12.664821770894862"><ele>576.2</ele><time>2026-04-19T09:44:42Z</time></trkpt><trkpt lat="42.44782538766341" lon="12.664696852276666"><ele>574.0</ele><time>2026-04-19T09:44:43Z</time></trkpt><trkpt lat="42.44785578632824" lon="12.664581596438763"><ele>574.0</ele><time>2026-04-19T09:44:44Z</time></trkpt><trkpt lat="42.44789990271156" lon="12.66447263539523"><ele>574.0</ele><time>2026-04-19T09:44:45Z</time></trkpt><trkpt lat="42.44794711937391" lon="12.664375541537751"><ele>574.0</ele><time>2026-04-19T09:44:46Z</time></trkpt><trkpt lat="42.4480057952906" lon="12.664273878219728"><ele>574.0</ele><time>2026-04-19T09:44:47Z</time></trkpt><trkpt lat="42.4480636265201" lon="12.664175566125836"><ele>574.0</ele><time>2026-04-19T09:44:48Z</time></trkpt><trkpt lat="42.448125312897886" lon="12.664074923194715"><ele>575.2</ele><time>2026-04-19T09:44:49Z</time></trkpt><trkpt lat="42.44819018511155" lon="12.663978092189478"><ele>576.4</ele><time>2026-04-19T09:44:50Z</time></trkpt><trkpt lat="42.44824913141574" lon="12.6638645582141"><ele>577.6</ele><time>2026-04-19T09:44:51Z</time></trkpt><trkpt lat="42.448331997089134" lon="12.663789963545009"><ele>578.8</ele><time>2026-04-19T09:44:52Z</time></trkpt><trkpt lat="42.44840403964571" lon="12.663710151616177"><ele>580.0</ele><time>2026-04-19T09:44:53Z</time></trkpt><trkpt lat="42.44848656164611" lon="12.663628162553355"><ele>575.6</ele><time>2026-04-19T09:44:54Z</time></trkpt><trkpt lat="42.44857212925787" lon="12.663543887370245"><ele>571.2</ele><time>2026-04-19T09:44:55Z</time></trkpt><trkpt lat="42.448647419227676" lon="12.663454456332689"><ele>566.8</ele><time>2026-04-19T09:44:56Z</time></trkpt><trkpt lat="42.448723878777784" lon="12.663404038948181"><ele>562.4</ele><time>2026-04-19T09:44:57Z</time></trkpt><trkpt lat="42.44879111268149" lon="12.663367973446901"><ele>558.0</ele><time>2026-04-19T09:44:58Z</time></trkpt><trkpt lat="42.44887882889515" lon="12.663344021843901"><ele>558.0</ele><time>2026-04-19T09:44:59Z</time></trkpt><trkpt lat="42.44896695546001" lon="12.663358886289416"><ele>558.0</ele><time>2026-04-19T09:45:00Z</time></trkpt><trkpt lat="42.44905629931967" lon="12.663334385637818"><ele>558.0</ele><time>2026-04-19T09:45:01Z</time></trkpt><trkpt lat="42.44914312270176" lon="12.663361505875717"><ele>558.0</ele><time>2026-04-19T09:45:02Z</time></trkpt><trkpt lat="42.44921567332712" lon="12.663345049233795"><ele>558.0</ele><time>2026-04-19T09:45:03Z</time></trkpt><trkpt lat="42.449314714209166" lon="12.663355741837213"><ele>558.0</ele><time>2026-04-19T09:45:05Z</time></trkpt><trkpt lat="42.44938698780408" lon="12.663300526185013"><ele>558.0</ele><time>2026-04-19T09:45:07Z</time></trkpt><trkpt lat="42.449373466625225" lon="12.663181416353485"><ele>558.0</ele><time>2026-04-19T09:45:08Z</time></trkpt><trkpt lat="42.449267646202365" lon="12.663134177307368"><ele>558.0</ele><time>2026-04-19T09:45:09Z</time></trkpt><trkpt lat="42.449180214686024" lon="12.66317620016961"><ele>558.0</ele><time>2026-04-19T09:45:10Z</time></trkpt><trkpt lat="42.44907222580429" lon="12.663121261620331"><ele>558.0</ele><time>2026-04-19T09:45:12Z</time></trkpt><trkpt lat="42.449007743211524" lon="12.663078980440678"><ele>557.9999999999999</ele><time>2026-04-19T09:45:13Z</time></trkpt><trkpt lat="42.4489419951006" lon="12.66305122618211"><ele>558.0</ele><time>2026-04-19T09:45:14Z</time></trkpt><trkpt lat="42.44888134842407" lon="12.663020356459947"><ele>558.0</ele><time>2026-04-19T09:45:15Z</time></trkpt><trkpt lat="42.44881021241813" lon="12.663008633020759"><ele>558.0</ele><time>2026-04-19T09:45:16Z</time></trkpt><trkpt lat="42.44873980724682" lon="12.663015116271696"><ele>558.0</ele><time>2026-04-19T09:45:17Z</time></trkpt><trkpt lat="42.448660428442295" lon="12.663022964110482"><ele>557.9999999999999</ele><time>2026-04-19T09:45:18Z</time></trkpt><trkpt lat="42.44857004809578" lon="12.66303851964086"><ele>558.0</ele><time>2026-04-19T09:45:19Z</time></trkpt><trkpt lat="42.44848680644767" lon="12.663053089483665"><ele>556.5</ele><time>2026-04-19T09:45:20Z</time></trkpt><trkpt lat="42.44840491806769" lon="12.66303821549823"><ele>555.0</ele><time>2026-04-19T09:45:21Z</time></trkpt><trkpt lat="42.44831784894088" lon="12.66305378556621"><ele>553.5</ele><time>2026-04-19T09:45:22Z</time></trkpt><trkpt lat="42.44822898711715" lon="12.663047882671751"><ele>552.0</ele><time>2026-04-19T09:45:23Z</time></trkpt><trkpt lat="42.448136260793355" lon="12.663058532167309"><ele>550.5</ele><time>2026-04-19T09:45:24Z</time></trkpt><trkpt lat="42.44804326407503" lon="12.663085392346566"><ele>549.0</ele><time>2026-04-19T09:45:25Z</time></trkpt><trkpt lat="42.447960707955644" lon="12.663124446356065"><ele>545.3333333333334</ele><time>2026-04-19T09:45:26Z</time></trkpt><trkpt lat="42.447882637166714" lon="12.663173718485567"><ele>541.6666666666666</ele><time>2026-04-19T09:45:27Z</time></trkpt><trkpt lat="42.44781740114779" lon="12.66323290273283"><ele>538.0</ele><time>2026-04-19T09:45:28Z</time></trkpt><trkpt lat="42.447745066903174" lon="12.663279174249968"><ele>534.3333333333333</ele><time>2026-04-19T09:45:29Z</time></trkpt><trkpt lat="42.44767866680769" lon="12.663332273828381"><ele>530.6666666666666</ele><time>2026-04-19T09:45:30Z</time></trkpt><trkpt lat="42.44760687795572" lon="12.663375717585891"><ele>527.0</ele><time>2026-04-19T09:45:31Z</time></trkpt><trkpt lat="42.447543252265056" lon="12.663422224257847"><ele>527.0000000000001</ele><time>2026-04-19T09:45:32Z</time></trkpt><trkpt lat="42.44748570841557" lon="12.663489489213548"><ele>527.0</ele><time>2026-04-19T09:45:33Z</time></trkpt><trkpt lat="42.44741748616989" lon="12.663535001389935"><ele>527.0</ele><time>2026-04-19T09:45:34Z</time></trkpt><trkpt lat="42.447346784296506" lon="12.663580755266775"><ele>527.0</ele><time>2026-04-19T09:45:35Z</time></trkpt><trkpt lat="42.44728035350601" lon="12.663633148234268"><ele>527.0</ele><time>2026-04-19T09:45:36Z</time></trkpt><trkpt lat="42.447216806740094" lon="12.663691317466983"><ele>527.0000000000001</ele><time>2026-04-19T09:45:37Z</time></trkpt><trkpt lat="42.44715572042069" lon="12.663715827351249"><ele>527.0</ele><time>2026-04-19T09:45:38Z</time></trkpt><trkpt lat="42.44707705737688" lon="12.663756739647678"><ele>527.6666666666666</ele><time>2026-04-19T09:45:40Z</time></trkpt><trkpt lat="42.44700213351703" lon="12.66370590491286"><ele>528.3333333333333</ele><time>2026-04-19T09:45:42Z</time></trkpt><trkpt lat="42.44693986469426" lon="12.663578447943507"><ele>529.0</ele><time>2026-04-19T09:45:44Z</time></trkpt><trkpt lat="42.44687666882601" lon="12.66352616215682"><ele>529.6666666666666</ele><time>2026-04-19T09:45:45Z</time></trkpt><trkpt lat="42.44681338638797" lon="12.663489310737406"><ele>530.3333333333334</ele><time>2026-04-19T09:45:46Z</time></trkpt><trkpt lat="42.44674961234292" lon="12.663479578861539"><ele>531.0</ele><time>2026-04-19T09:45:47Z</time></trkpt><trkpt lat="42.446682249813314" lon="12.663489830633422"><ele>531.0</ele><time>2026-04-19T09:45:48Z</time></trkpt><trkpt lat="42.44661563831299" lon="12.663482541030556"><ele>531.0</ele><time>2026-04-19T09:45:49Z</time></trkpt><trkpt lat="42.44654284093191" lon="12.663505628364907"><ele>531.0</ele><time>2026-04-19T09:45:50Z</time></trkpt><trkpt lat="42.44648600685435" lon="12.663549734397158"><ele>531.0</ele><time>2026-04-19T09:45:51Z</time></trkpt><trkpt lat="42.44641411008476" lon="12.663637532640639"><ele>531.0</ele><time>2026-04-19T09:45:53Z</time></trkpt><trkpt lat="42.446362619669785" lon="12.663545684883083"><ele>531.0</ele><time>2026-04-19T09:45:56Z</time></trkpt><trkpt lat="42.44643959379728" lon="12.663437020043586"><ele>527.1666666666666</ele><time>2026-04-19T09:45:58Z</time></trkpt><trkpt lat="42.446483723508145" lon="12.663370624550133"><ele>523.3333333333334</ele><time>2026-04-19T09:45:59Z</time></trkpt><trkpt lat="42.44652797628572" lon="12.663282471000212"><ele>519.5</ele><time>2026-04-19T09:46:00Z</time></trkpt><trkpt lat="42.44659126906308" lon="12.663227758408548"><ele>515.6666666666667</ele><time>2026-04-19T09:46:01Z</time></trkpt><trkpt lat="42.446645711195956" lon="12.663162937872745"><ele>511.83333333333337</ele><time>2026-04-19T09:46:02Z</time></trkpt><trkpt lat="42.44673840839851" lon="12.663074309007953"><ele>508.0</ele><time>2026-04-19T09:46:04Z</time></trkpt><trkpt lat="42.446800429002906" lon="12.663008694329333"><ele>508.00000000000006</ele><time>2026-04-19T09:46:06Z</time></trkpt><trkpt lat="42.446787236826665" lon="12.662883489660164"><ele>508.0</ele><time>2026-04-19T09:46:08Z</time></trkpt><trkpt lat="42.44672419467744" lon="12.662838952479394"><ele>508.0</ele><time>2026-04-19T09:46:09Z</time></trkpt><trkpt lat="42.44663385412028" lon="12.662888875036176"><ele>508.0</ele><time>2026-04-19T09:46:10Z</time></trkpt><trkpt lat="42.446551649078295" lon="12.6628971068139"><ele>508.00000000000006</ele><time>2026-04-19T09:46:11Z</time></trkpt><trkpt lat="42.44647603776726" lon="12.66288901338445"><ele>508.0</ele><time>2026-04-19T09:46:12Z</time></trkpt><trkpt lat="42.44640769292776" lon="12.662913483842202"><ele>508.00000000000006</ele><time>2026-04-19T09:46:13Z</time></trkpt><trkpt lat="42.44636423796981" lon="12.662986798911147"><ele>508.0</ele><time>2026-04-19T09:46:14Z</time></trkpt><trkpt lat="42.44629809198407" lon="12.663013903942103"><ele>508.0</ele><time>2026-04-19T09:46:16Z</time></trkpt><trkpt lat="42.446252220427716" lon="12.66291389748296"><ele>508.0</ele><time>2026-04-19T09:46:18Z</time></trkpt><trkpt lat="42.44631912601525" lon="12.66277883671756"><ele>508.00000000000006</ele><time>2026-04-19T09:46:20Z</time></trkpt><trkpt lat="42.44636170715311" lon="12.662714977124832"><ele>508.0</ele><time>2026-04-19T09:46:21Z</time></trkpt><trkpt lat="42.44642465426281" lon="12.662673741241873"><ele>503.2</ele><time>2026-04-19T09:46:22Z</time></trkpt><trkpt lat="42.446488101894296" lon="12.662641126357075"><ele>498.4</ele><time>2026-04-19T09:46:23Z</time></trkpt><trkpt lat="42.446591981647664" lon="12.662554713268142"><ele>493.59999999999997</ele><time>2026-04-19T09:46:25Z</time></trkpt><trkpt lat="42.44663732432804" lon="12.662388810414669"><ele>488.79999999999995</ele><time>2026-04-19T09:46:27Z</time></trkpt><trkpt lat="42.4466254865754" lon="12.662296822872193"><ele>484.0</ele><time>2026-04-19T09:46:28Z</time></trkpt><trkpt lat="42.446605068158625" lon="12.662212169968535"><ele>484.0</ele><time>2026-04-19T09:46:29Z</time></trkpt><trkpt lat="42.44658072183749" lon="12.662068355821553"><ele>484.0</ele><time>2026-04-19T09:46:31Z</time></trkpt><trkpt lat="42.44648244515984" lon="12.662023178726217"><ele>484.0</ele><time>2026-04-19T09:46:33Z</time></trkpt><trkpt lat="42.446369486894696" lon="12.662043931115532"><ele>484.0</ele><time>2026-04-19T09:46:35Z</time></trkpt><trkpt lat="42.44628854061209" lon="12.662106580836305"><ele>484.0</ele><time>2026-04-19T09:46:37Z</time></trkpt><trkpt lat="42.44622469583964" lon="12.662049269180049"><ele>479.4</ele><time>2026-04-19T09:46:39Z</time></trkpt><trkpt lat="42.44630573477665" lon="12.66193799925176"><ele>474.79999999999995</ele><time>2026-04-19T09:46:41Z</time></trkpt><trkpt lat="42.446380692907205" lon="12.661840302622869"><ele>470.20000000000005</ele><time>2026-04-19T09:46:43Z</time></trkpt><trkpt lat="42.44646875770465" lon="12.661709811065938"><ele>465.6</ele><time>2026-04-19T09:46:45Z</time></trkpt><trkpt lat="42.44648800346187" lon="12.661617638519044"><ele>461.0</ele><time>2026-04-19T09:46:46Z</time></trkpt><trkpt lat="42.44649209516597" lon="12.661519146841933"><ele>460.99999999999994</ele><time>2026-04-19T09:46:47Z</time></trkpt><trkpt lat="42.446458019238094" lon="12.661422384835237"><ele>461.0</ele><time>2026-04-19T09:46:48Z</time></trkpt><trkpt lat="42.44642117739469" lon="12.661322306789952"><ele>461.0</ele><time>2026-04-19T09:46:49Z</time></trkpt><trkpt lat="42.446375200122155" lon="12.66122206116357"><ele>461.0</ele><time>2026-04-19T09:46:50Z</time></trkpt><trkpt lat="42.44632495953295" lon="12.661125754086463"><ele>460.99999999999994</ele><time>2026-04-19T09:46:51Z</time></trkpt><trkpt lat="42.446276511798175" lon="12.661055886880616"><ele>461.0</ele><time>2026-04-19T09:46:52Z</time></trkpt><trkpt lat="42.446206032370064" lon="12.660966067271877"><ele>457.16666666666663</ele><time>2026-04-19T09:46:54Z</time></trkpt><trkpt lat="42.44622813372357" lon="12.660859262128554"><ele>453.3333333333333</ele><time>2026-04-19T09:46:56Z</time></trkpt><trkpt lat="42.44629319355626" lon="12.660882484962972"><ele>449.5</ele><time>2026-04-19T09:46:57Z</time></trkpt><trkpt lat="42.44634189456915" lon="12.6609576339721"><ele>445.66666666666663</ele><time>2026-04-19T09:46:59Z</time></trkpt><trkpt lat="42.44640030787409" lon="12.66104006000972"><ele>441.8333333333333</ele><time>2026-04-19T09:47:01Z</time></trkpt><trkpt lat="42.44647129419669" lon="12.66111275305113"><ele>438.0</ele><time>2026-04-19T09:47:03Z</time></trkpt><trkpt lat="42.446563316585575" lon="12.661053854933456"><ele>438.0</ele><time>2026-04-19T09:47:05Z</time></trkpt><trkpt lat="42.44655416924288" lon="12.660963551918003"><ele>438.0</ele><time>2026-04-19T09:47:06Z</time></trkpt><trkpt lat="42.4464828831818" lon="12.660898131777833"><ele>438.0</ele><time>2026-04-19T09:47:07Z</time></trkpt><trkpt lat="42.44642494076733" lon="12.660776283707477"><ele>438.0</ele><time>2026-04-19T09:47:09Z</time></trkpt><trkpt lat="42.44641218819914" lon="12.66068657372498"><ele>438.0</ele><time>2026-04-19T09:47:10Z</time></trkpt><trkpt lat="42.446385140033186" lon="12.660606524905752"><ele>438.0</ele><time>2026-04-19T09:47:11Z</time></trkpt><trkpt lat="42.44635006988007" lon="12.660531483568562"><ele>437.2</ele><time>2026-04-19T09:47:12Z</time></trkpt><trkpt lat="42.446293790000674" lon="12.660473956319084"><ele>436.4</ele><time>2026-04-19T09:47:13Z</time></trkpt><trkpt lat="42.44618558180261" lon="12.660451211332704"><ele>435.59999999999997</ele><time>2026-04-19T09:47:15Z</time></trkpt><trkpt lat="42.446147415438055" lon="12.660346304945246"><ele>434.79999999999995</ele><time>2026-04-19T09:47:18Z</time></trkpt><trkpt lat="42.44624170286893" lon="12.660292811138325"><ele>434.0</ele><time>2026-04-19T09:47:20Z</time></trkpt><trkpt lat="42.44634348383396" lon="12.660265953544021"><ele>434.66666666666663</ele><time>2026-04-19T09:47:22Z</time></trkpt><trkpt lat="42.446446669968424" lon="12.66036073478419"><ele>435.3333333333333</ele><time>2026-04-19T09:47:24Z</time></trkpt><trkpt lat="42.446504502552465" lon="12.660394993301459"><ele>436.0</ele><time>2026-04-19T09:47:25Z</time></trkpt><trkpt lat="42.44656395907481" lon="12.660491937299641"><ele>436.66666666666663</ele><time>2026-04-19T09:47:27Z</time></trkpt><trkpt lat="42.446619649576064" lon="12.660576406656876"><ele>437.3333333333333</ele><time>2026-04-19T09:47:30Z</time></trkpt><trkpt lat="42.446677679957624" lon="12.66066025313963"><ele>438.0</ele><time>2026-04-19T09:47:33Z</time></trkpt><trkpt lat="42.44675547868803" lon="12.660660251646686"><ele>438.0</ele><time>2026-04-19T09:47:48.001Z</time></trkpt><trkpt lat="42.446838881086585" lon="12.66061607758242"><ele>437.99999999999994</ele><time>2026-04-19T09:47:50.001Z</time></trkpt><trkpt lat="42.44691181972902" lon="12.660596188805547"><ele>437.99999999999994</ele><time>2026-04-19T09:47:52.001Z</time></trkpt><trkpt lat="42.44699458001115" lon="12.660586298226281"><ele>438.0</ele><time>2026-04-19T09:47:54.001Z</time></trkpt><trkpt lat="42.44709314116734" lon="12.660652224861284"><ele>438.0</ele><time>2026-04-19T09:47:56.001Z</time></trkpt><trkpt lat="42.44719571206603" lon="12.660652174404474"><ele>437.59999999999997</ele><time>2026-04-19T09:47:58.001Z</time></trkpt><trkpt lat="42.44731027619122" lon="12.660647604270286"><ele>437.19999999999993</ele><time>2026-04-19T09:48:00.001Z</time></trkpt><trkpt lat="42.44739557007178" lon="12.660596508688561"><ele>436.8</ele><time>2026-04-19T09:48:02.001Z</time></trkpt><trkpt lat="42.44746038870755" lon="12.660557926143987"><ele>436.4</ele><time>2026-04-19T09:48:04.001Z</time></trkpt><trkpt lat="42.44755433609609" lon="12.660514068121328"><ele>436.0</ele><time>2026-04-19T09:48:06.001Z</time></trkpt><trkpt lat="42.44765236150514" lon="12.660550522005446"><ele>436.00000000000006</ele><time>2026-04-19T09:48:08.001Z</time></trkpt><trkpt lat="42.44772634829615" lon="12.66057680466749"><ele>436.0</ele><time>2026-04-19T09:48:10.001Z</time></trkpt><trkpt lat="42.447794983315084" lon="12.660550549752326"><ele>436.0</ele><time>2026-04-19T09:48:12.001Z</time></trkpt><trkpt lat="42.4478744270111" lon="12.660487150811822"><ele>436.0</ele><time>2026-04-19T09:48:15.001Z</time></trkpt><trkpt lat="42.44796098754337" lon="12.660438250697373"><ele>436.00000000000006</ele><time>2026-04-19T09:48:17.001Z</time></trkpt><trkpt lat="42.44806352661916" lon="12.660385013659461"><ele>436.0</ele><time>2026-04-19T09:48:19.001Z</time></trkpt><trkpt lat="42.4481330882938" lon="12.66031826696945"><ele>433.83333333333337</ele><time>2026-04-19T09:48:21.001Z</time></trkpt><trkpt lat="42.44819384825529" lon="12.660255207929652"><ele>431.6666666666667</ele><time>2026-04-19T09:48:23.001Z</time></trkpt><trkpt lat="42.44826649370186" lon="12.660177303083742"><ele>429.5</ele><time>2026-04-19T09:48:25.001Z</time></trkpt><trkpt lat="42.44831986844265" lon="12.660117593233446"><ele>427.33333333333337</ele><time>2026-04-19T09:48:26.001Z</time></trkpt><trkpt lat="42.4483698919485" lon="12.660057935265586"><ele>425.1666666666667</ele><time>2026-04-19T09:48:27.001Z</time></trkpt><trkpt lat="42.448429363897624" lon="12.660002415471574"><ele>423.0</ele><time>2026-04-19T09:48:28.001Z</time></trkpt><trkpt lat="42.44853044463111" lon="12.659937378797173"><ele>423.0</ele><time>2026-04-19T09:48:30.001Z</time></trkpt><trkpt lat="42.44865599432826" lon="12.659943678736148"><ele>423.0</ele><time>2026-04-19T09:48:32.001Z</time></trkpt><trkpt lat="42.44873049872078" lon="12.659881952296509"><ele>423.0</ele><time>2026-04-19T09:48:33.001Z</time></trkpt><trkpt lat="42.44876273730057" lon="12.659759400542512"><ele>423.0</ele><time>2026-04-19T09:48:34.001Z</time></trkpt><trkpt lat="42.448831275511445" lon="12.659707150424909"><ele>423.0</ele><time>2026-04-19T09:48:35.001Z</time></trkpt><trkpt lat="42.44889160339954" lon="12.659656223880996"><ele>423.2857142857143</ele><time>2026-04-19T09:48:36.001Z</time></trkpt><trkpt lat="42.448950700556885" lon="12.659611927208065"><ele>423.5714285714286</ele><time>2026-04-19T09:48:37.001Z</time></trkpt><trkpt lat="42.449016564465545" lon="12.659568693250053"><ele>423.8571428571429</ele><time>2026-04-19T09:48:38.001Z</time></trkpt><trkpt lat="42.449081352004825" lon="12.659532214562077"><ele>424.1428571428571</ele><time>2026-04-19T09:48:39.001Z</time></trkpt><trkpt lat="42.44914917950139" lon="12.659496738541884"><ele>424.42857142857144</ele><time>2026-04-19T09:48:40.001Z</time></trkpt><trkpt lat="42.44921363512668" lon="12.65946342463264"><ele>424.7142857142857</ele><time>2026-04-19T09:48:41.001Z</time></trkpt><trkpt lat="42.44927895496425" lon="12.659419280468873"><ele>425.0</ele><time>2026-04-19T09:48:42.001Z</time></trkpt><trkpt lat="42.44934783623983" lon="12.659384669527796"><ele>424.99999999999994</ele><time>2026-04-19T09:48:43.001Z</time></trkpt><trkpt lat="42.44942269314643" lon="12.65935256409336"><ele>425.0</ele><time>2026-04-19T09:48:44.001Z</time></trkpt><trkpt lat="42.44949665782545" lon="12.659313120763207"><ele>425.0</ele><time>2026-04-19T09:48:45.001Z</time></trkpt><trkpt lat="42.44957471292916" lon="12.659262669272637"><ele>425.0</ele><time>2026-04-19T09:48:46.001Z</time></trkpt><trkpt lat="42.449651121266676" lon="12.659215930975721"><ele>424.99999999999994</ele><time>2026-04-19T09:48:47.001Z</time></trkpt><trkpt lat="42.44972991121885" lon="12.659169486332416"><ele>425.0</ele><time>2026-04-19T09:48:48.001Z</time></trkpt><trkpt lat="42.44980891600977" lon="12.659123868391053"><ele>426.66666666666663</ele><time>2026-04-19T09:48:49.001Z</time></trkpt><trkpt lat="42.449877551069804" lon="12.659077274302417"><ele>428.3333333333333</ele><time>2026-04-19T09:48:50.001Z</time></trkpt><trkpt lat="42.44995165550686" lon="12.659030715111005"><ele>430.0</ele><time>2026-04-19T09:48:51.001Z</time></trkpt><trkpt lat="42.45002388661433" lon="12.659020089953845"><ele>431.66666666666663</ele><time>2026-04-19T09:48:52.001Z</time></trkpt><trkpt lat="42.4501379242281" lon="12.65898247215454"><ele>433.3333333333333</ele><time>2026-04-19T09:48:54.001Z</time></trkpt><trkpt lat="42.45021006103473" lon="12.658983343561125"><ele>435.0</ele><time>2026-04-19T09:48:57.001Z</time></trkpt><trkpt lat="42.4502771390888" lon="12.658876433508379"><ele>435.0</ele><time>2026-04-19T09:49:00.001Z</time></trkpt><trkpt lat="42.45029757190419" lon="12.658776277687014"><ele>435.0</ele><time>2026-04-19T09:49:02.001Z</time></trkpt><trkpt lat="42.45033437597419" lon="12.658689619998569"><ele>435.0</ele><time>2026-04-19T09:49:05.001Z</time></trkpt><trkpt lat="42.450240587220264" lon="12.658599650788778"><ele>435.0</ele><time>2026-04-19T09:49:07.001Z</time></trkpt><trkpt lat="42.4501279169555" lon="12.658578577594541"><ele>435.0</ele><time>2026-04-19T09:49:09.001Z</time></trkpt><trkpt lat="42.45006503034494" lon="12.658593325643372"><ele>435.0</ele><time>2026-04-19T09:49:10.001Z</time></trkpt><trkpt lat="42.44996236485978" lon="12.658579092721157"><ele>435.6</ele><time>2026-04-19T09:49:12.001Z</time></trkpt><trkpt lat="42.4498678209739" lon="12.65855787459594"><ele>436.2</ele><time>2026-04-19T09:49:14.001Z</time></trkpt><trkpt lat="42.44976847545673" lon="12.658534625559229"><ele>436.79999999999995</ele><time>2026-04-19T09:49:16.001Z</time></trkpt><trkpt lat="42.4496515804749" lon="12.658512331107007"><ele>437.4</ele><time>2026-04-19T09:49:18.001Z</time></trkpt><trkpt lat="42.449583729360704" lon="12.65849350911966"><ele>438.0</ele><time>2026-04-19T09:49:19.001Z</time></trkpt><trkpt lat="42.449471944635505" lon="12.658437117460956"><ele>436.79999999999995</ele><time>2026-04-19T09:49:21.001Z</time></trkpt><trkpt lat="42.44938575316398" lon="12.658399395898574"><ele>435.59999999999997</ele><time>2026-04-19T09:49:23.001Z</time></trkpt><trkpt lat="42.449305496641585" lon="12.658342047907633"><ele>434.40000000000003</ele><time>2026-04-19T09:49:25.001Z</time></trkpt><trkpt lat="42.44923032677378" lon="12.65825444688494"><ele>433.20000000000005</ele><time>2026-04-19T09:49:27.001Z</time></trkpt><trkpt lat="42.449147447794765" lon="12.658193522489388"><ele>432.0</ele><time>2026-04-19T09:49:29.001Z</time></trkpt><trkpt lat="42.44904655817277" lon="12.658192921566735"><ele>432.0</ele><time>2026-04-19T09:49:31.001Z</time></trkpt><trkpt lat="42.44893256381981" lon="12.658162934953667"><ele>432.00000000000006</ele><time>2026-04-19T09:49:33.001Z</time></trkpt><trkpt lat="42.448847236971254" lon="12.65811357688765"><ele>432.00000000000006</ele><time>2026-04-19T09:49:35.001Z</time></trkpt><trkpt lat="42.44893714041525" lon="12.658147609852822"><ele>432.0</ele><time>2026-04-19T09:50:35.001Z</time></trkpt><trkpt lat="42.44906022493628" lon="12.658196925943557"><ele>432.0</ele><time>2026-04-19T09:50:37.001Z</time></trkpt><trkpt lat="42.44916378607957" lon="12.65823142837368"><ele>432.0</ele><time>2026-04-19T09:50:38.001Z</time></trkpt><trkpt lat="42.44924885971035" lon="12.658274889078214"><ele>432.0</ele><time>2026-04-19T09:50:40.001Z</time></trkpt><trkpt lat="42.449330445372816" lon="12.658368005015943"><ele>432.0</ele><time>2026-04-19T09:50:42.001Z</time></trkpt><trkpt lat="42.44939793656677" lon="12.658416242519294"><ele>432.0</ele><time>2026-04-19T09:50:43.001Z</time></trkpt><trkpt lat="42.44946579770646" lon="12.658454354124004"><ele>432.0</ele><time>2026-04-19T09:50:44.001Z</time></trkpt><trkpt lat="42.44953505780916" lon="12.658480335472612"><ele>432.0</ele><time>2026-04-19T09:50:45.001Z</time></trkpt><trkpt lat="42.449653574657695" lon="12.658516165917922"><ele>433.20000000000005</ele><time>2026-04-19T09:50:47.001Z</time></trkpt><trkpt lat="42.449770798588574" lon="12.658554006124149"><ele>434.40000000000003</ele><time>2026-04-19T09:50:49.001Z</time></trkpt><trkpt lat="42.44985022873229" lon="12.658553848620405"><ele>435.59999999999997</ele><time>2026-04-19T09:50:51.001Z</time></trkpt><trkpt lat="42.44991472021744" lon="12.658577791505289"><ele>436.79999999999995</ele><time>2026-04-19T09:50:54.001Z</time></trkpt><trkpt lat="42.45000348324587" lon="12.658602298564285"><ele>438.0</ele><time>2026-04-19T09:50:56.001Z</time></trkpt><trkpt lat="42.45012336927747" lon="12.658587639157176"><ele>438.0</ele><time>2026-04-19T09:50:58.001Z</time></trkpt><trkpt lat="42.45021172135294" lon="12.658573580075837"><ele>438.0</ele><time>2026-04-19T09:51:00.001Z</time></trkpt><trkpt lat="42.45026847358412" lon="12.65863290604262"><ele>438.0</ele><time>2026-04-19T09:51:03.001Z</time></trkpt><trkpt lat="42.45034651513469" lon="12.658648015167064"><ele>438.0</ele><time>2026-04-19T09:52:17.001Z</time></trkpt><trkpt lat="42.45034869407475" lon="12.658740565059981"><ele>438.0</ele><time>2026-04-19T09:52:20.001Z</time></trkpt><trkpt lat="42.45042488277565" lon="12.658819163685699"><ele>438.0</ele><time>2026-04-19T09:52:22.001Z</time></trkpt><trkpt lat="42.45047540981687" lon="12.658875436628586"><ele>435.0</ele><time>2026-04-19T09:52:23.001Z</time></trkpt><trkpt lat="42.45053314696203" lon="12.658942670159194"><ele>432.0</ele><time>2026-04-19T09:52:24.001Z</time></trkpt><trkpt lat="42.450603954715575" lon="12.659000434962042"><ele>429.0</ele><time>2026-04-19T09:52:25.001Z</time></trkpt><trkpt lat="42.450658462617056" lon="12.659079203814414"><ele>426.0</ele><time>2026-04-19T09:52:26.001Z</time></trkpt><trkpt lat="42.450697529035196" lon="12.659159025634132"><ele>423.0</ele><time>2026-04-19T09:52:27.001Z</time></trkpt><trkpt lat="42.45071336272667" lon="12.65925586844919"><ele>420.0</ele><time>2026-04-19T09:52:28.001Z</time></trkpt><trkpt lat="42.45070610066213" lon="12.659359868124705"><ele>420.8333333333333</ele><time>2026-04-19T09:52:29.001Z</time></trkpt><trkpt lat="42.45068223231679" lon="12.659470518111553"><ele>421.66666666666663</ele><time>2026-04-19T09:52:30.001Z</time></trkpt><trkpt lat="42.450657606613504" lon="12.6595743181467"><ele>422.5</ele><time>2026-04-19T09:52:31.001Z</time></trkpt><trkpt lat="42.45063898340496" lon="12.659681898679665"><ele>423.3333333333333</ele><time>2026-04-19T09:52:32.001Z</time></trkpt><trkpt lat="42.4506358477024" lon="12.659794326747205"><ele>424.16666666666663</ele><time>2026-04-19T09:52:33.001Z</time></trkpt><trkpt lat="42.450660017112114" lon="12.659899865072122"><ele>425.0</ele><time>2026-04-19T09:52:34.001Z</time></trkpt><trkpt lat="42.45071468360365" lon="12.659989505456265"><ele>425.0</ele><time>2026-04-19T09:52:35.001Z</time></trkpt><trkpt lat="42.450790036082154" lon="12.660059563005781"><ele>425.0</ele><time>2026-04-19T09:52:36.001Z</time></trkpt><trkpt lat="42.45089024743177" lon="12.660098113374366"><ele>425.0</ele><time>2026-04-19T09:52:37.001Z</time></trkpt><trkpt lat="42.45099540522949" lon="12.660100291893071"><ele>425.0</ele><time>2026-04-19T09:52:38.001Z</time></trkpt><trkpt lat="42.45109985089319" lon="12.660074866947344"><ele>425.0</ele><time>2026-04-19T09:52:39.001Z</time></trkpt><trkpt lat="42.451202250108665" lon="12.660044137704206"><ele>422.4</ele><time>2026-04-19T09:52:40.001Z</time></trkpt><trkpt lat="42.45129994659857" lon="12.660031007860757"><ele>419.8</ele><time>2026-04-19T09:52:41.001Z</time></trkpt><trkpt lat="42.45139173568617" lon="12.66002713048893"><ele>417.20000000000005</ele><time>2026-04-19T09:52:42.001Z</time></trkpt><trkpt lat="42.45149255502807" lon="12.66004362431153"><ele>414.6</ele><time>2026-04-19T09:52:43.001Z</time></trkpt><trkpt lat="42.45158791810113" lon="12.660083923158801"><ele>412.0</ele><time>2026-04-19T09:52:44.001Z</time></trkpt><trkpt lat="42.45168277619406" lon="12.66012358800864"><ele>412.0</ele><time>2026-04-19T09:52:45.001Z</time></trkpt><trkpt lat="42.45177903276412" lon="12.66012042265231"><ele>412.0</ele><time>2026-04-19T09:52:46.001Z</time></trkpt><trkpt lat="42.45186332604915" lon="12.660063094524576"><ele>412.0</ele><time>2026-04-19T09:52:47.001Z</time></trkpt><trkpt lat="42.451937075011024" lon="12.659989244728932"><ele>412.0</ele><time>2026-04-19T09:52:48.001Z</time></trkpt><trkpt lat="42.451925933359405" lon="12.659835219356117"><ele>412.0</ele><time>2026-04-19T09:52:49.001Z</time></trkpt><trkpt lat="42.451946676995334" lon="12.659711911502692"><ele>412.00000000000006</ele><time>2026-04-19T09:52:50.001Z</time></trkpt><trkpt lat="42.45196600777567" lon="12.659593357783399"><ele>412.0</ele><time>2026-04-19T09:52:51.001Z</time></trkpt><trkpt lat="42.451995083267825" lon="12.659493740343697"><ele>412.0</ele><time>2026-04-19T09:52:52.001Z</time></trkpt><trkpt lat="42.45202242824823" lon="12.659385654876484"><ele>412.0</ele><time>2026-04-19T09:52:53.001Z</time></trkpt><trkpt lat="42.45207482620439" lon="12.65930426471052"><ele>412.00000000000006</ele><time>2026-04-19T09:52:54.001Z</time></trkpt><trkpt lat="42.45213956516456" lon="12.659237951167173"><ele>412.0</ele><time>2026-04-19T09:52:55.001Z</time></trkpt><trkpt lat="42.45222895772424" lon="12.659203066697563"><ele>412.8</ele><time>2026-04-19T09:52:56.001Z</time></trkpt><trkpt lat="42.452303487162204" lon="12.659132513515976"><ele>413.6</ele><time>2026-04-19T09:52:57.001Z</time></trkpt><trkpt lat="42.452384068644385" lon="12.659072408014199"><ele>414.40000000000003</ele><time>2026-04-19T09:52:58.001Z</time></trkpt><trkpt lat="42.452455375060715" lon="12.658988007298198"><ele>415.20000000000005</ele><time>2026-04-19T09:52:59.001Z</time></trkpt><trkpt lat="42.45251096190027" lon="12.658885162578207"><ele>416.0</ele><time>2026-04-19T09:53:00.001Z</time></trkpt><trkpt lat="42.45255049786409" lon="12.658772641610051"><ele>415.99999999999994</ele><time>2026-04-19T09:53:01.001Z</time></trkpt><trkpt lat="42.45257319638851" lon="12.658655572002413"><ele>416.0</ele><time>2026-04-19T09:53:02.001Z</time></trkpt><trkpt lat="42.45261610604351" lon="12.658551129295795"><ele>416.0</ele><time>2026-04-19T09:53:03Z</time></trkpt><trkpt lat="42.45263360578775" lon="12.658447410080129"><ele>416.0</ele><time>2026-04-19T09:53:04Z</time></trkpt><trkpt lat="42.45266063512686" lon="12.658348978860833"><ele>415.99999999999994</ele><time>2026-04-19T09:53:05Z</time></trkpt><trkpt lat="42.452693206928885" lon="12.658267793267774"><ele>416.0</ele><time>2026-04-19T09:53:06Z</time></trkpt><trkpt lat="42.45273822467378" lon="12.658195483403407"><ele>416.0</ele><time>2026-04-19T09:53:07Z</time></trkpt><trkpt lat="42.45279731007463" lon="12.658131174483284"><ele>416.0</ele><time>2026-04-19T09:53:08Z</time></trkpt><trkpt lat="42.45287382603144" lon="12.658070141372855"><ele>416.0</ele><time>2026-04-19T09:53:09Z</time></trkpt><trkpt lat="42.4529653852972" lon="12.658008717001927"><ele>416.0</ele><time>2026-04-19T09:53:10Z</time></trkpt><trkpt lat="42.45307360605278" lon="12.65797164328135"><ele>416.0</ele><time>2026-04-19T09:53:11Z</time></trkpt><trkpt lat="42.45317889906969" lon="12.657924075779155"><ele>416.0</ele><time>2026-04-19T09:53:12Z</time></trkpt><trkpt lat="42.4532980555028" lon="12.65792601788047"><ele>416.0</ele><time>2026-04-19T09:53:13Z</time></trkpt><trkpt lat="42.45341524822345" lon="12.657948827120839"><ele>416.0</ele><time>2026-04-19T09:53:14Z</time></trkpt><trkpt lat="42.453523254324764" lon="12.657979088886698"><ele>416.0</ele><time>2026-04-19T09:53:15Z</time></trkpt><trkpt lat="42.45362324475581" lon="12.657999611333103"><ele>416.0</ele><time>2026-04-19T09:53:16Z</time></trkpt><trkpt lat="42.45371512441067" lon="12.657998225713653"><ele>414.49999999999994</ele><time>2026-04-19T09:53:17Z</time></trkpt><trkpt lat="42.45379791221503" lon="12.657965012948274"><ele>413.0</ele><time>2026-04-19T09:53:18Z</time></trkpt><trkpt lat="42.453873263616124" lon="12.657892541072554"><ele>411.5</ele><time>2026-04-19T09:53:19Z</time></trkpt><trkpt lat="42.453943872854175" lon="12.657834579624595"><ele>410.0</ele><time>2026-04-19T09:53:20Z</time></trkpt><trkpt lat="42.454014305832054" lon="12.657786658974864"><ele>408.49999999999994</ele><time>2026-04-19T09:53:21Z</time></trkpt><trkpt lat="42.45407723510315" lon="12.657742420787558"><ele>407.0</ele><time>2026-04-19T09:53:22Z</time></trkpt><trkpt lat="42.45417128384773" lon="12.657656407440511"><ele>403.5</ele><time>2026-04-19T09:53:24Z</time></trkpt><trkpt lat="42.45408187492251" lon="12.65743739973632"><ele>400.0</ele><time>2026-04-19T09:53:26Z</time></trkpt><trkpt lat="42.4540012097479" lon="12.657368602043375"><ele>396.5</ele><time>2026-04-19T09:53:27Z</time></trkpt><trkpt lat="42.45390416221503" lon="12.657316969987901"><ele>393.0</ele><time>2026-04-19T09:53:28Z</time></trkpt><trkpt lat="42.45381262274961" lon="12.657258651099745"><ele>393.5</ele><time>2026-04-19T09:53:29Z</time></trkpt><trkpt lat="42.453746529291" lon="12.657206286407122"><ele>394.0</ele><time>2026-04-19T09:53:30Z</time></trkpt><trkpt lat="42.453686602323984" lon="12.65714722443565"><ele>394.5</ele><time>2026-04-19T09:53:31Z</time></trkpt><trkpt lat="42.45365333569494" lon="12.657041831613988"><ele>395.0</ele><time>2026-04-19T09:53:32Z</time></trkpt><trkpt lat="42.453665232131286" lon="12.656904566801968"><ele>395.5</ele><time>2026-04-19T09:53:33Z</time></trkpt><trkpt lat="42.45367601389115" lon="12.65677026332978"><ele>396.0</ele><time>2026-04-19T09:53:34Z</time></trkpt><trkpt lat="42.45367724771285" lon="12.656620876332736"><ele>396.0</ele><time>2026-04-19T09:53:35Z</time></trkpt><trkpt lat="42.45369777988114" lon="12.65645497595593"><ele>396.0</ele><time>2026-04-19T09:53:36Z</time></trkpt><trkpt lat="42.453712674727676" lon="12.65627941270278"><ele>396.0</ele><time>2026-04-19T09:53:37Z</time></trkpt><trkpt lat="42.45372545212948" lon="12.656099392006912"><ele>396.0</ele><time>2026-04-19T09:53:38Z</time></trkpt><trkpt lat="42.45374338543832" lon="12.655901542390138"><ele>394.25</ele><time>2026-04-19T09:53:39Z</time></trkpt><trkpt lat="42.45374707710317" lon="12.655722128985676"><ele>392.5</ele><time>2026-04-19T09:53:40Z</time></trkpt><trkpt lat="42.45376186218081" lon="12.655546741949145"><ele>390.75</ele><time>2026-04-19T09:53:41Z</time></trkpt><trkpt lat="42.45377654991299" lon="12.655363053737789"><ele>389.0</ele><time>2026-04-19T09:53:42Z</time></trkpt><trkpt lat="42.45380129436406" lon="12.655178495271688"><ele>386.5</ele><time>2026-04-19T09:53:43Z</time></trkpt><trkpt lat="42.45384668602422" lon="12.655016243571968"><ele>384.0</ele><time>2026-04-19T09:53:44Z</time></trkpt><trkpt lat="42.45390517753505" lon="12.654843139040082"><ele>381.5</ele><time>2026-04-19T09:53:45Z</time></trkpt><trkpt lat="42.4539511042154" lon="12.654691563601428"><ele>379.0</ele><time>2026-04-19T09:53:46Z</time></trkpt><trkpt lat="42.453999270026" lon="12.654537456541625"><ele>373.75</ele><time>2026-04-19T09:53:47Z</time></trkpt><trkpt lat="42.45406131534952" lon="12.654391846832253"><ele>368.5</ele><time>2026-04-19T09:53:48Z</time></trkpt><trkpt lat="42.45414342586792" lon="12.654262715588864"><ele>363.25</ele><time>2026-04-19T09:53:49Z</time></trkpt><trkpt lat="42.45425322437381" lon="12.654150627642542"><ele>358.0</ele><time>2026-04-19T09:53:50Z</time></trkpt><trkpt lat="42.45437443247246" lon="12.654040435922651"><ele>358.0</ele><time>2026-04-19T09:53:51Z</time></trkpt><trkpt lat="42.45448816113298" lon="12.653941071970085"><ele>358.0</ele><time>2026-04-19T09:53:52Z</time></trkpt><trkpt lat="42.45459776059854" lon="12.653852661863787"><ele>358.0</ele><time>2026-04-19T09:53:53Z</time></trkpt><trkpt lat="42.454717122833145" lon="12.653750792423592"><ele>358.0</ele><time>2026-04-19T09:53:54Z</time></trkpt><trkpt lat="42.45482758343161" lon="12.65365764795343"><ele>356.4</ele><time>2026-04-19T09:53:55Z</time></trkpt><trkpt lat="42.45492941502139" lon="12.65357264327649"><ele>354.79999999999995</ele><time>2026-04-19T09:53:56Z</time></trkpt><trkpt lat="42.45501261636639" lon="12.653515072363527"><ele>353.2</ele><time>2026-04-19T09:53:57Z</time></trkpt><trkpt lat="42.45509551615819" lon="12.65349536440569"><ele>351.6</ele><time>2026-04-19T09:53:58Z</time></trkpt><trkpt lat="42.455188297293546" lon="12.653527241283674"><ele>350.0</ele><time>2026-04-19T09:53:59Z</time></trkpt><trkpt lat="42.45526849077577" lon="12.653621139901423"><ele>349.8</ele><time>2026-04-19T09:54:00Z</time></trkpt><trkpt lat="42.45532785897574" lon="12.653747206740483"><ele>349.6</ele><time>2026-04-19T09:54:01Z</time></trkpt><trkpt lat="42.45537836554928" lon="12.653888032289446"><ele>349.4</ele><time>2026-04-19T09:54:02Z</time></trkpt><trkpt lat="42.455426216967176" lon="12.654017442634723"><ele>349.2</ele><time>2026-04-19T09:54:03Z</time></trkpt><trkpt lat="42.4554893165698" lon="12.654128157324422"><ele>349.0</ele><time>2026-04-19T09:54:04Z</time></trkpt><trkpt lat="42.45557763349821" lon="12.654233528800505"><ele>349.0</ele><time>2026-04-19T09:54:05Z</time></trkpt><trkpt lat="42.455680275044905" lon="12.654313220120365"><ele>349.0</ele><time>2026-04-19T09:54:06Z</time></trkpt><trkpt lat="42.455787806582386" lon="12.654388476090713"><ele>349.0</ele><time>2026-04-19T09:54:07Z</time></trkpt><trkpt lat="42.45588754036522" lon="12.654471401675098"><ele>349.0</ele><time>2026-04-19T09:54:08Z</time></trkpt><trkpt lat="42.455978753067875" lon="12.65453845784036"><ele>349.0</ele><time>2026-04-19T09:54:09Z</time></trkpt><trkpt lat="42.4560833074328" lon="12.65459901792274"><ele>349.0</ele><time>2026-04-19T09:54:10Z</time></trkpt><trkpt lat="42.4562019068083" lon="12.654516593491016"><ele>349.0</ele><time>2026-04-19T09:54:11Z</time></trkpt><trkpt lat="42.45628837874009" lon="12.654420606697563"><ele>349.0</ele><time>2026-04-19T09:54:12Z</time></trkpt><trkpt lat="42.45635580967192" lon="12.654320313830908"><ele>349.0</ele><time>2026-04-19T09:54:13Z</time></trkpt><trkpt lat="42.45644483808477" lon="12.654231256083955"><ele>349.0</ele><time>2026-04-19T09:54:14Z</time></trkpt><trkpt lat="42.456504318241706" lon="12.654137200360353"><ele>349.0</ele><time>2026-04-19T09:54:15Z</time></trkpt><trkpt lat="42.45656025679734" lon="12.654059495203937"><ele>349.0</ele><time>2026-04-19T09:54:16Z</time></trkpt><trkpt lat="42.45660828162105" lon="12.65398109666514"><ele>349.0</ele><time>2026-04-19T09:54:17Z</time></trkpt><trkpt lat="42.456582273943546" lon="12.653856200873154"><ele>349.0</ele><time>2026-04-19T09:54:18Z</time></trkpt><trkpt lat="42.45657170139782" lon="12.653719035255815"><ele>349.0</ele><time>2026-04-19T09:54:19Z</time></trkpt><trkpt lat="42.456557903053955" lon="12.653568061610084"><ele>349.0</ele><time>2026-04-19T09:54:20Z</time></trkpt><trkpt lat="42.456555745800486" lon="12.65341242118217"><ele>349.0</ele><time>2026-04-19T09:54:21Z</time></trkpt><trkpt lat="42.45655863644635" lon="12.653258972612715"><ele>349.0</ele><time>2026-04-19T09:54:22Z</time></trkpt><trkpt lat="42.456571778373636" lon="12.653112900088363"><ele>348.2</ele><time>2026-04-19T09:54:23Z</time></trkpt><trkpt lat="42.45658729057881" lon="12.65298253465567"><ele>347.4</ele><time>2026-04-19T09:54:24Z</time></trkpt><trkpt lat="42.45663041513613" lon="12.65286679593452"><ele>346.6</ele><time>2026-04-19T09:54:25Z</time></trkpt><trkpt lat="42.456682274306765" lon="12.652757793827309"><ele>345.8</ele><time>2026-04-19T09:54:26Z</time></trkpt><trkpt lat="42.456746232036515" lon="12.652642333370284"><ele>345.0</ele><time>2026-04-19T09:54:27Z</time></trkpt><trkpt lat="42.45682640504751" lon="12.652522795779241"><ele>347.0</ele><time>2026-04-19T09:54:28Z</time></trkpt><trkpt lat="42.456916640831096" lon="12.652393020593522"><ele>349.0</ele><time>2026-04-19T09:54:29Z</time></trkpt><trkpt lat="42.45700630202605" lon="12.652259721107875"><ele>351.0</ele><time>2026-04-19T09:54:30Z</time></trkpt><trkpt lat="42.457097404028374" lon="12.65213139137031"><ele>353.0</ele><time>2026-04-19T09:54:31Z</time></trkpt><trkpt lat="42.45718656739392" lon="12.651993170078219"><ele>348.0</ele><time>2026-04-19T09:54:32Z</time></trkpt><trkpt lat="42.457292965665495" lon="12.651879421072252"><ele>343.0</ele><time>2026-04-19T09:54:33Z</time></trkpt><trkpt lat="42.457420365723166" lon="12.651794420817918"><ele>338.0</ele><time>2026-04-19T09:54:34Z</time></trkpt><trkpt lat="42.457537168431024" lon="12.651675940780581"><ele>333.0</ele><time>2026-04-19T09:54:35Z</time></trkpt><trkpt lat="42.45765918029598" lon="12.651577951325223"><ele>333.0</ele><time>2026-04-19T09:54:36Z</time></trkpt><trkpt lat="42.45777741103996" lon="12.651469110699301"><ele>333.0</ele><time>2026-04-19T09:54:37Z</time></trkpt><trkpt lat="42.45788122212905" lon="12.6513418040685"><ele>333.0</ele><time>2026-04-19T09:54:38Z</time></trkpt><trkpt lat="42.45796847905603" lon="12.651193509153861"><ele>333.0</ele><time>2026-04-19T09:54:39Z</time></trkpt><trkpt lat="42.45803899149409" lon="12.65104303749161"><ele>333.25</ele><time>2026-04-19T09:54:40Z</time></trkpt><trkpt lat="42.45810032620729" lon="12.650882873216522"><ele>333.5</ele><time>2026-04-19T09:54:41Z</time></trkpt><trkpt lat="42.45818132089075" lon="12.650761048268803"><ele>333.75</ele><time>2026-04-19T09:54:42Z</time></trkpt><trkpt lat="42.45826920299254" lon="12.650644416774316"><ele>334.0</ele><time>2026-04-19T09:54:43Z</time></trkpt><trkpt lat="42.45836832234947" lon="12.65053314965287"><ele>334.0</ele><time>2026-04-19T09:54:44Z</time></trkpt><trkpt lat="42.45847700378466" lon="12.650463535714149"><ele>334.0</ele><time>2026-04-19T09:54:45Z</time></trkpt><trkpt lat="42.45858356372831" lon="12.650412365069139"><ele>334.0</ele><time>2026-04-19T09:54:46Z</time></trkpt><trkpt lat="42.45869270403077" lon="12.650414035579162"><ele>334.0</ele><time>2026-04-19T09:54:47Z</time></trkpt><trkpt lat="42.45880428475705" lon="12.650392178828747"><ele>334.75</ele><time>2026-04-19T09:54:48Z</time></trkpt><trkpt lat="42.458924014298304" lon="12.650391497175978"><ele>335.5</ele><time>2026-04-19T09:54:49Z</time></trkpt><trkpt lat="42.45904223480755" lon="12.650384888251706"><ele>336.25</ele><time>2026-04-19T09:54:50Z</time></trkpt><trkpt lat="42.459156289493535" lon="12.650384797686225"><ele>337.0</ele><time>2026-04-19T09:54:51Z</time></trkpt><trkpt lat="42.4592711702091" lon="12.650381470422634"><ele>337.0</ele><time>2026-04-19T09:54:52Z</time></trkpt><trkpt lat="42.45938243949177" lon="12.650376903743053"><ele>337.0</ele><time>2026-04-19T09:54:53Z</time></trkpt><trkpt lat="42.45949845133324" lon="12.650370752550437"><ele>337.0</ele><time>2026-04-19T09:54:54Z</time></trkpt><trkpt lat="42.459606433024454" lon="12.65037243312097"><ele>337.0</ele><time>2026-04-19T09:54:55Z</time></trkpt><trkpt lat="42.45971698463799" lon="12.650381261240794"><ele>337.0</ele><time>2026-04-19T09:54:56Z</time></trkpt><trkpt lat="42.45981772602032" lon="12.650410680165233"><ele>336.0</ele><time>2026-04-19T09:54:57Z</time></trkpt><trkpt lat="42.45991992745262" lon="12.650461734940167"><ele>335.0</ele><time>2026-04-19T09:54:58Z</time></trkpt><trkpt lat="42.46002369467689" lon="12.650531887530345"><ele>334.0</ele><time>2026-04-19T09:54:59Z</time></trkpt><trkpt lat="42.460123224494644" lon="12.65059100904588"><ele>333.0</ele><time>2026-04-19T09:55:00Z</time></trkpt><trkpt lat="42.460224975879726" lon="12.650615119210666"><ele>332.0</ele><time>2026-04-19T09:55:01Z</time></trkpt><trkpt lat="42.4603346833059" lon="12.650605628355974"><ele>332.0</ele><time>2026-04-19T09:55:02Z</time></trkpt><trkpt lat="42.4604443671019" lon="12.650608129998584"><ele>332.0</ele><time>2026-04-19T09:55:03Z</time></trkpt><trkpt lat="42.46053804243069" lon="12.650469743310316"><ele>332.0</ele><time>2026-04-19T09:55:04Z</time></trkpt><trkpt lat="42.46061169252612" lon="12.650343541114626"><ele>332.0</ele><time>2026-04-19T09:55:05Z</time></trkpt><trkpt lat="42.46068857861577" lon="12.650216998395484"><ele>329.75</ele><time>2026-04-19T09:55:06Z</time></trkpt><trkpt lat="42.46076458307871" lon="12.65010325014823"><ele>327.5</ele><time>2026-04-19T09:55:07Z</time></trkpt><trkpt lat="42.46085063190479" lon="12.650011381860779"><ele>325.25</ele><time>2026-04-19T09:55:08Z</time></trkpt><trkpt lat="42.460949020506135" lon="12.649925489450306"><ele>323.0</ele><time>2026-04-19T09:55:09Z</time></trkpt><trkpt lat="42.461057642847855" lon="12.64985874030121"><ele>323.0</ele><time>2026-04-19T09:55:10Z</time></trkpt><trkpt lat="42.46117462736042" lon="12.649815237631868"><ele>323.0</ele><time>2026-04-19T09:55:11Z</time></trkpt><trkpt lat="42.461298661822504" lon="12.649777944535906"><ele>323.0</ele><time>2026-04-19T09:55:12Z</time></trkpt><trkpt lat="42.46142327088807" lon="12.649719743770351"><ele>323.0</ele><time>2026-04-19T09:55:13Z</time></trkpt><trkpt lat="42.461546707117144" lon="12.64968608830848"><ele>321.25</ele><time>2026-04-19T09:55:14Z</time></trkpt><trkpt lat="42.46167015124354" lon="12.64964332745017"><ele>319.5</ele><time>2026-04-19T09:55:15Z</time></trkpt><trkpt lat="42.461782479008114" lon="12.64958567055526"><ele>317.75</ele><time>2026-04-19T09:55:16Z</time></trkpt><trkpt lat="42.46188283805832" lon="12.64950615236741"><ele>316.0</ele><time>2026-04-19T09:55:17Z</time></trkpt><trkpt lat="42.46198056193493" lon="12.649420601524831"><ele>316.0</ele><time>2026-04-19T09:55:18Z</time></trkpt><trkpt lat="42.46207960463931" lon="12.64932052539237"><ele>316.0</ele><time>2026-04-19T09:55:19Z</time></trkpt><trkpt lat="42.46218993516129" lon="12.64921806930543"><ele>316.0</ele><time>2026-04-19T09:55:20Z</time></trkpt><trkpt lat="42.462255753895604" lon="12.649063361382279"><ele>316.0</ele><time>2026-04-19T09:55:21Z</time></trkpt><trkpt lat="42.462290939232076" lon="12.648891385003893"><ele>315.0</ele><time>2026-04-19T09:55:22Z</time></trkpt><trkpt lat="42.462288343294944" lon="12.64870894323277"><ele>314.0</ele><time>2026-04-19T09:55:23Z</time></trkpt><trkpt lat="42.462273745940045" lon="12.648526656256813"><ele>313.0</ele><time>2026-04-19T09:55:24Z</time></trkpt><trkpt lat="42.46227307542549" lon="12.648337683397248"><ele>312.0</ele><time>2026-04-19T09:55:25Z</time></trkpt><trkpt lat="42.46228708242861" lon="12.6481477336202"><ele>312.0</ele><time>2026-04-19T09:55:26Z</time></trkpt><trkpt lat="42.46230253109981" lon="12.647946398981565"><ele>312.0</ele><time>2026-04-19T09:55:27Z</time></trkpt><trkpt lat="42.46231232919157" lon="12.647741658186192"><ele>312.0</ele><time>2026-04-19T09:55:28Z</time></trkpt><trkpt lat="42.46231413662584" lon="12.64753473523863"><ele>308.3333333333333</ele><time>2026-04-19T09:55:29Z</time></trkpt><trkpt lat="42.462301872744334" lon="12.647330063551312"><ele>304.66666666666663</ele><time>2026-04-19T09:55:30Z</time></trkpt><trkpt lat="42.46227355052803" lon="12.64712403047401"><ele>301.0</ele><time>2026-04-19T09:55:31Z</time></trkpt><trkpt lat="42.46226069711542" lon="12.646915419128707"><ele>299.0</ele><time>2026-04-19T09:55:32Z</time></trkpt><trkpt lat="42.46223620672262" lon="12.64671699990573"><ele>297.0</ele><time>2026-04-19T09:55:33Z</time></trkpt><trkpt lat="42.46221249566215" lon="12.646521212314033"><ele>295.0</ele><time>2026-04-19T09:55:34Z</time></trkpt><trkpt lat="42.462176666837216" lon="12.646335818203767"><ele>293.0</ele><time>2026-04-19T09:55:35Z</time></trkpt><trkpt lat="42.462159105476765" lon="12.646155557625784"><ele>291.0</ele><time>2026-04-19T09:55:36Z</time></trkpt><trkpt lat="42.46213652751998" lon="12.645990050356989"><ele>289.0</ele><time>2026-04-19T09:55:37Z</time></trkpt><trkpt lat="42.46210251146249" lon="12.64586279716373"><ele>287.0</ele><time>2026-04-19T09:55:38Z</time></trkpt><trkpt lat="42.46205253704634" lon="12.645728337184423"><ele>285.0</ele><time>2026-04-19T09:55:39Z</time></trkpt><trkpt lat="42.46194465079249" lon="12.64565843646831"><ele>284.0</ele><time>2026-04-19T09:55:40Z</time></trkpt><trkpt lat="42.46185195612988" lon="12.645612242455465"><ele>283.0</ele><time>2026-04-19T09:55:41Z</time></trkpt><trkpt lat="42.461789046890004" lon="12.64555383766604"><ele>282.0</ele><time>2026-04-19T09:55:42Z</time></trkpt><trkpt lat="42.461767088358485" lon="12.64545401169294"><ele>281.0</ele><time>2026-04-19T09:55:43Z</time></trkpt><trkpt lat="42.461793325069195" lon="12.645336730697036"><ele>280.0</ele><time>2026-04-19T09:55:44Z</time></trkpt><trkpt lat="42.461854922882395" lon="12.645246711412263"><ele>279.0</ele><time>2026-04-19T09:55:45Z</time></trkpt><trkpt lat="42.46195243375131" lon="12.64521239295709"><ele>278.4</ele><time>2026-04-19T09:55:46Z</time></trkpt><trkpt lat="42.4620405504744" lon="12.645280066994404"><ele>277.79999999999995</ele><time>2026-04-19T09:55:47Z</time></trkpt><trkpt lat="42.46214060839301" lon="12.645292544806987"><ele>277.20000000000005</ele><time>2026-04-19T09:55:48Z</time></trkpt><trkpt lat="42.46223944261954" lon="12.645300864031205"><ele>276.6</ele><time>2026-04-19T09:55:49Z</time></trkpt><trkpt lat="42.46235388135611" lon="12.645268333028646"><ele>276.0</ele><time>2026-04-19T09:55:50Z</time></trkpt><trkpt lat="42.46247298793037" lon="12.645202833719079"><ele>276.0</ele><time>2026-04-19T09:55:51Z</time></trkpt><trkpt lat="42.462589079330286" lon="12.645123794954321"><ele>276.0</ele><time>2026-04-19T09:55:52Z</time></trkpt><trkpt lat="42.46270766973174" lon="12.645057422751188"><ele>276.0</ele><time>2026-04-19T09:55:53Z</time></trkpt><trkpt lat="42.46283330103465" lon="12.64498525871693"><ele>276.0</ele><time>2026-04-19T09:55:54Z</time></trkpt><trkpt lat="42.46295133703587" lon="12.644921529636212"><ele>275.0</ele><time>2026-04-19T09:55:55Z</time></trkpt><trkpt lat="42.46306327340777" lon="12.64485077905183"><ele>274.0</ele><time>2026-04-19T09:55:56Z</time></trkpt><trkpt lat="42.46317213296939" lon="12.64477894929014"><ele>273.0</ele><time>2026-04-19T09:55:57Z</time></trkpt><trkpt lat="42.463279927786765" lon="12.6447032418874"><ele>272.0</ele><time>2026-04-19T09:55:58Z</time></trkpt><trkpt lat="42.46338277351567" lon="12.644629652703546"><ele>272.0</ele><time>2026-04-19T09:55:59Z</time></trkpt><trkpt lat="42.463482584369075" lon="12.644565846804252"><ele>272.0</ele><time>2026-04-19T09:56:00Z</time></trkpt><trkpt lat="42.463589563231984" lon="12.644535784479874"><ele>272.0</ele><time>2026-04-19T09:56:01Z</time></trkpt><trkpt lat="42.463696617674444" lon="12.64457873666286"><ele>272.0</ele><time>2026-04-19T09:56:02Z</time></trkpt><trkpt lat="42.4637872513945" lon="12.644653075249058"><ele>272.0</ele><time>2026-04-19T09:56:03Z</time></trkpt><trkpt lat="42.463885741736334" lon="12.644728118618994"><ele>269.25</ele><time>2026-04-19T09:56:04Z</time></trkpt><trkpt lat="42.46396749691137" lon="12.644821387423747"><ele>266.5</ele><time>2026-04-19T09:56:05Z</time></trkpt><trkpt lat="42.46406211954062" lon="12.644894537796695"><ele>263.75</ele><time>2026-04-19T09:56:06Z</time></trkpt><trkpt lat="42.464173266458396" lon="12.644928951777983"><ele>261.0</ele><time>2026-04-19T09:56:07Z</time></trkpt><trkpt lat="42.464300993652174" lon="12.644916286753018"><ele>261.0</ele><time>2026-04-19T09:56:08Z</time></trkpt><trkpt lat="42.46442475834643" lon="12.644867121526481"><ele>261.0</ele><time>2026-04-19T09:56:09Z</time></trkpt><trkpt lat="42.464531166876704" lon="12.644812210887714"><ele>261.0</ele><time>2026-04-19T09:56:10Z</time></trkpt><trkpt lat="42.46460998551584" lon="12.644745293245093"><ele>261.0</ele><time>2026-04-19T09:56:11Z</time></trkpt><trkpt lat="42.46466250786967" lon="12.644631445028441"><ele>261.0</ele><time>2026-04-19T09:56:12Z</time></trkpt><trkpt lat="42.4646671401297" lon="12.644483417365588"><ele>259.0</ele><time>2026-04-19T09:56:13Z</time></trkpt><trkpt lat="42.464626840046186" lon="12.644343890050209"><ele>257.0</ele><time>2026-04-19T09:56:14Z</time></trkpt><trkpt lat="42.46457256643183" lon="12.644219641853187"><ele>255.00000000000003</ele><time>2026-04-19T09:56:15Z</time></trkpt><trkpt lat="42.46454470160531" lon="12.644094882906893"><ele>253.0</ele><time>2026-04-19T09:56:16Z</time></trkpt><trkpt lat="42.464562674154514" lon="12.643961645705561"><ele>251.0</ele><time>2026-04-19T09:56:17Z</time></trkpt><trkpt lat="42.46466151181071" lon="12.643871439748997"><ele>249.5</ele><time>2026-04-19T09:56:18Z</time></trkpt><trkpt lat="42.464760540149726" lon="12.643774566893107"><ele>248.0</ele><time>2026-04-19T09:56:19Z</time></trkpt><trkpt lat="42.464863292748376" lon="12.64365114122571"><ele>246.5</ele><time>2026-04-19T09:56:20Z</time></trkpt><trkpt lat="42.46497976434902" lon="12.643561272107002"><ele>245.0</ele><time>2026-04-19T09:56:21Z</time></trkpt><trkpt lat="42.46508295128723" lon="12.643436288398876"><ele>243.0</ele><time>2026-04-19T09:56:22Z</time></trkpt><trkpt lat="42.465203606804735" lon="12.643347630542893"><ele>241.0</ele><time>2026-04-19T09:56:23Z</time></trkpt><trkpt lat="42.46533009876693" lon="12.643289285610434"><ele>239.0</ele><time>2026-04-19T09:56:24Z</time></trkpt><trkpt lat="42.46546305713955" lon="12.64326921387616"><ele>237.0</ele><time>2026-04-19T09:56:25Z</time></trkpt><trkpt lat="42.46555798317295" lon="12.643290718838571"><ele>236.5</ele><time>2026-04-19T09:56:26Z</time></trkpt><trkpt lat="42.46549011322594" lon="12.643293458799947"><ele>236.0</ele><time>2026-04-19T09:56:29Z</time></trkpt><trkpt lat="42.46578237327664" lon="12.643305034626112"><ele>235.5</ele><time>2026-04-19T09:56:30Z</time></trkpt><trkpt lat="42.46571369092427" lon="12.643240011103362"><ele>235.0</ele><time>2026-04-19T09:57:33Z</time></trkpt><trkpt lat="42.465683021843944" lon="12.64315217874262"><ele>235.0</ele><time>2026-04-19T09:57:34Z</time></trkpt><trkpt lat="42.465611720081235" lon="12.64308514901168"><ele>235.0</ele><time>2026-04-19T09:57:35Z</time></trkpt><trkpt lat="42.465531845798694" lon="12.6429979881179"><ele>235.0</ele><time>2026-04-19T09:57:36Z</time></trkpt><trkpt lat="42.46548170465907" lon="12.642869460270871"><ele>235.0</ele><time>2026-04-19T09:57:37Z</time></trkpt><trkpt lat="42.465399313685744" lon="12.642751046078976"><ele>235.0</ele><time>2026-04-19T09:57:38Z</time></trkpt><trkpt lat="42.465321643336694" lon="12.642613370718912"><ele>234.75</ele><time>2026-04-19T09:57:39Z</time></trkpt><trkpt lat="42.46523898108595" lon="12.642478757790224"><ele>234.5</ele><time>2026-04-19T09:57:40Z</time></trkpt><trkpt lat="42.46514332057323" lon="12.642335034597576"><ele>234.25</ele><time>2026-04-19T09:57:41Z</time></trkpt><trkpt lat="42.46504525852674" lon="12.64216964652435"><ele>234.0</ele><time>2026-04-19T09:57:42Z</time></trkpt><trkpt lat="42.46494996028286" lon="12.642012972213703"><ele>234.33333333333331</ele><time>2026-04-19T09:57:43Z</time></trkpt><trkpt lat="42.464854267932054" lon="12.64185607061998"><ele>234.66666666666666</ele><time>2026-04-19T09:57:44Z</time></trkpt><trkpt lat="42.464758624247736" lon="12.641697999075063"><ele>235.0</ele><time>2026-04-19T09:57:45Z</time></trkpt><trkpt lat="42.46466205595614" lon="12.641540725760619"><ele>235.5</ele><time>2026-04-19T09:57:46Z</time></trkpt><trkpt lat="42.46455424253234" lon="12.641396851898538"><ele>236.0</ele><time>2026-04-19T09:57:47Z</time></trkpt><trkpt lat="42.464446329925174" lon="12.641268939265206"><ele>236.5</ele><time>2026-04-19T09:57:48Z</time></trkpt><trkpt lat="42.46431446811304" lon="12.64116541757091"><ele>237.0</ele><time>2026-04-19T09:57:49Z</time></trkpt><trkpt lat="42.464168853719784" lon="12.64108774614157"><ele>239.66666666666669</ele><time>2026-04-19T09:57:50Z</time></trkpt><trkpt lat="42.46401604009937" lon="12.641018823047775"><ele>242.33333333333334</ele><time>2026-04-19T09:57:51Z</time></trkpt><trkpt lat="42.463856947757435" lon="12.640948654674313"><ele>245.0</ele><time>2026-04-19T09:57:52Z</time></trkpt><trkpt lat="42.463695397696284" lon="12.640888991741871"><ele>245.0</ele><time>2026-04-19T09:57:53Z</time></trkpt><trkpt lat="42.46352713258022" lon="12.640848730968113"><ele>245.0</ele><time>2026-04-19T09:57:54Z</time></trkpt><trkpt lat="42.463361821465035" lon="12.640826278995627"><ele>245.0</ele><time>2026-04-19T09:57:55Z</time></trkpt><trkpt lat="42.463207746133016" lon="12.640769415609855"><ele>245.0</ele><time>2026-04-19T09:57:56Z</time></trkpt><trkpt lat="42.46305593894732" lon="12.640734150360501"><ele>245.0</ele><time>2026-04-19T09:57:57Z</time></trkpt><trkpt lat="42.462927997816486" lon="12.640650889750267"><ele>245.0</ele><time>2026-04-19T09:57:58Z</time></trkpt><trkpt lat="42.46280609091279" lon="12.640536679691406"><ele>245.0</ele><time>2026-04-19T09:57:59Z</time></trkpt><trkpt lat="42.46268708109046" lon="12.640401382860118"><ele>248.33333333333334</ele><time>2026-04-19T09:58:00Z</time></trkpt><trkpt lat="42.462570748122616" lon="12.640250451443434"><ele>251.66666666666669</ele><time>2026-04-19T09:58:01Z</time></trkpt><trkpt lat="42.462451454641744" lon="12.640089887524383"><ele>255.0</ele><time>2026-04-19T09:58:02Z</time></trkpt><trkpt lat="42.46233371278172" lon="12.639931000350105"><ele>255.0</ele><time>2026-04-19T09:58:03Z</time></trkpt><trkpt lat="42.462216148253155" lon="12.639769643367488"><ele>255.0</ele><time>2026-04-19T09:58:04Z</time></trkpt><trkpt lat="42.4620941789046" lon="12.639601379634508"><ele>255.0</ele><time>2026-04-19T09:58:05Z</time></trkpt><trkpt lat="42.46196675715164" lon="12.639430897220944"><ele>256.0</ele><time>2026-04-19T09:58:06Z</time></trkpt><trkpt lat="42.461837204658536" lon="12.639260255779513"><ele>257.0</ele><time>2026-04-19T09:58:07Z</time></trkpt><trkpt lat="42.461700094120864" lon="12.639107994016612"><ele>258.0</ele><time>2026-04-19T09:58:08Z</time></trkpt><trkpt lat="42.461549681386266" lon="12.638975920306123"><ele>258.0</ele><time>2026-04-19T09:58:09Z</time></trkpt><trkpt lat="42.461391982923665" lon="12.638867180299036"><ele>258.0</ele><time>2026-04-19T09:58:10Z</time></trkpt><trkpt lat="42.461240667541034" lon="12.63874286029888"><ele>258.0</ele><time>2026-04-19T09:58:11Z</time></trkpt><trkpt lat="42.461088863172336" lon="12.638636601101938"><ele>260.5</ele><time>2026-04-19T09:58:12Z</time></trkpt><trkpt lat="42.46095120124332" lon="12.638540241255225"><ele>263.0</ele><time>2026-04-19T09:58:13Z</time></trkpt><trkpt lat="42.460829705188914" lon="12.63847688831315"><ele>265.5</ele><time>2026-04-19T09:58:14Z</time></trkpt><trkpt lat="42.46072869007572" lon="12.63840226416045"><ele>268.0</ele><time>2026-04-19T09:58:15Z</time></trkpt><trkpt lat="42.46064694069074" lon="12.638348112975885"><ele>268.0</ele><time>2026-04-19T09:58:16Z</time></trkpt><trkpt lat="42.4605637491143" lon="12.638238140554268"><ele>268.0</ele><time>2026-04-19T09:58:18Z</time></trkpt><trkpt lat="42.460628623851335" lon="12.6381019007665"><ele>268.0</ele><time>2026-04-19T09:58:20Z</time></trkpt><trkpt lat="42.46070670718963" lon="12.638081879863284"><ele>268.0</ele><time>2026-04-19T09:58:21Z</time></trkpt><trkpt lat="42.46079930036975" lon="12.638101702387893"><ele>268.0</ele><time>2026-04-19T09:58:22Z</time></trkpt><trkpt lat="42.46091636488618" lon="12.638138064774765"><ele>268.0</ele><time>2026-04-19T09:58:23Z</time></trkpt><trkpt lat="42.46103651856573" lon="12.638162282061254"><ele>268.0</ele><time>2026-04-19T09:58:24Z</time></trkpt><trkpt lat="42.46112870432317" lon="12.638176954412387"><ele>268.0</ele><time>2026-04-19T09:58:25Z</time></trkpt><trkpt lat="42.46118839015325" lon="12.638147940208908"><ele>268.0</ele><time>2026-04-19T09:58:26Z</time></trkpt><trkpt lat="42.46122376608452" lon="12.63807175323494"><ele>268.0</ele><time>2026-04-19T09:58:27Z</time></trkpt><trkpt lat="42.46124579600027" lon="12.637981814202385"><ele>268.0</ele><time>2026-04-19T09:58:28Z</time></trkpt><trkpt lat="42.46115520445709" lon="12.637860776627464"><ele>272.5</ele><time>2026-04-19T09:58:29Z</time></trkpt><trkpt lat="42.46106443223023" lon="12.63775478140505"><ele>277.0</ele><time>2026-04-19T09:58:30Z</time></trkpt><trkpt lat="42.46095851072932" lon="12.637639357756832"><ele>281.5</ele><time>2026-04-19T09:58:31Z</time></trkpt><trkpt lat="42.46086420722219" lon="12.637538561373947"><ele>286.0</ele><time>2026-04-19T09:58:32Z</time></trkpt><trkpt lat="42.46076224160345" lon="12.637463048248765"><ele>286.0</ele><time>2026-04-19T09:58:33Z</time></trkpt><trkpt lat="42.46064036488263" lon="12.637399541915327"><ele>286.0</ele><time>2026-04-19T09:58:34Z</time></trkpt><trkpt lat="42.46050530085824" lon="12.637360999991978"><ele>286.0</ele><time>2026-04-19T09:58:35Z</time></trkpt><trkpt lat="42.46038331353552" lon="12.637330524791961"><ele>286.0</ele><time>2026-04-19T09:58:36Z</time></trkpt><trkpt lat="42.46030193445761" lon="12.63724819691577"><ele>285.40000000000003</ele><time>2026-04-19T09:58:37Z</time></trkpt><trkpt lat="42.46023600710367" lon="12.637141916917107"><ele>284.8</ele><time>2026-04-19T09:58:38Z</time></trkpt><trkpt lat="42.46019300185123" lon="12.636981295982231"><ele>284.20000000000005</ele><time>2026-04-19T09:58:39Z</time></trkpt><trkpt lat="42.46013946009793" lon="12.636827731730788"><ele>283.6</ele><time>2026-04-19T09:58:40Z</time></trkpt><trkpt lat="42.46011904849396" lon="12.636710088242847"><ele>283.0</ele><time>2026-04-19T09:58:41Z</time></trkpt><trkpt lat="42.46012010596339" lon="12.636614837629454"><ele>283.0</ele><time>2026-04-19T09:58:42Z</time></trkpt><trkpt lat="42.46023064504328" lon="12.63655059495924"><ele>283.0</ele><time>2026-04-19T09:58:44Z</time></trkpt><trkpt lat="42.46030843135402" lon="12.636606924030133"><ele>283.0</ele><time>2026-04-19T09:58:45Z</time></trkpt><trkpt lat="42.46038823333447" lon="12.636709771770507"><ele>283.0</ele><time>2026-04-19T09:58:46Z</time></trkpt><trkpt lat="42.46047388799119" lon="12.63682453478521"><ele>283.0</ele><time>2026-04-19T09:58:47Z</time></trkpt><trkpt lat="42.46055945262823" lon="12.636896826932931"><ele>286.0</ele><time>2026-04-19T09:58:48Z</time></trkpt><trkpt lat="42.4606412934568" lon="12.636910365967681"><ele>289.0</ele><time>2026-04-19T09:58:49Z</time></trkpt><trkpt lat="42.46070577896123" lon="12.636883298110243"><ele>292.0</ele><time>2026-04-19T09:58:50Z</time></trkpt><trkpt lat="42.46076487157898" lon="12.636835066973475"><ele>295.0</ele><time>2026-04-19T09:58:51Z</time></trkpt><trkpt lat="42.46078274101589" lon="12.636701689993524"><ele>298.0</ele><time>2026-04-19T09:58:52Z</time></trkpt><trkpt lat="42.46071592591446" lon="12.636557731898437"><ele>301.0</ele><time>2026-04-19T09:58:53Z</time></trkpt><trkpt lat="42.460680018394505" lon="12.636415081608048"><ele>301.0</ele><time>2026-04-19T09:58:54Z</time></trkpt><trkpt lat="42.460685296669205" lon="12.636267341787528"><ele>301.0</ele><time>2026-04-19T09:58:55Z</time></trkpt><trkpt lat="42.460744330581164" lon="12.636125896034097"><ele>301.0</ele><time>2026-04-19T09:58:56Z</time></trkpt><trkpt lat="42.46081221585649" lon="12.63599864319449"><ele>301.0</ele><time>2026-04-19T09:58:57Z</time></trkpt><trkpt lat="42.46089645573369" lon="12.635865773201328"><ele>300.75</ele><time>2026-04-19T09:58:58Z</time></trkpt><trkpt lat="42.460973605914454" lon="12.63571899352126"><ele>300.5</ele><time>2026-04-19T09:58:59Z</time></trkpt><trkpt lat="42.46106547149943" lon="12.635587135232932"><ele>300.25</ele><time>2026-04-19T09:59:00Z</time></trkpt><trkpt lat="42.46114812847435" lon="12.63546195207611"><ele>300.0</ele><time>2026-04-19T09:59:01Z</time></trkpt><trkpt lat="42.46123790187991" lon="12.635379227032947"><ele>302.8</ele><time>2026-04-19T09:59:02Z</time></trkpt><trkpt lat="42.46131343807372" lon="12.63529178489672"><ele>305.6</ele><time>2026-04-19T09:59:03Z</time></trkpt><trkpt lat="42.461388365506316" lon="12.635207730164982"><ele>308.4</ele><time>2026-04-19T09:59:04Z</time></trkpt><trkpt lat="42.46146240504783" lon="12.635127840494407"><ele>311.2</ele><time>2026-04-19T09:59:05Z</time></trkpt><trkpt lat="42.46153125939859" lon="12.63503836285632"><ele>314.0</ele><time>2026-04-19T09:59:06Z</time></trkpt><trkpt lat="42.461609391921016" lon="12.63496296653921"><ele>314.0</ele><time>2026-04-19T09:59:07Z</time></trkpt><trkpt lat="42.46169609659924" lon="12.634889752052759"><ele>314.0</ele><time>2026-04-19T09:59:08Z</time></trkpt><trkpt lat="42.46175681770132" lon="12.634774518504697"><ele>314.0</ele><time>2026-04-19T09:59:09Z</time></trkpt><trkpt lat="42.46181906630548" lon="12.634657510232667"><ele>314.0</ele><time>2026-04-19T09:59:10Z</time></trkpt><trkpt lat="42.46186171889674" lon="12.63452888472034"><ele>314.0</ele><time>2026-04-19T09:59:11Z</time></trkpt><trkpt lat="42.46189174070923" lon="12.634394642053051"><ele>312.59999999999997</ele><time>2026-04-19T09:59:12Z</time></trkpt><trkpt lat="42.4619188890456" lon="12.634256578335945"><ele>311.2</ele><time>2026-04-19T09:59:13Z</time></trkpt><trkpt lat="42.46194455008137" lon="12.634116991776187"><ele>309.79999999999995</ele><time>2026-04-19T09:59:14Z</time></trkpt><trkpt lat="42.461971371106436" lon="12.633974311016717"><ele>308.4</ele><time>2026-04-19T09:59:15Z</time></trkpt><trkpt lat="42.46201811109955" lon="12.633827719936699"><ele>307.0</ele><time>2026-04-19T09:59:16Z</time></trkpt><trkpt lat="42.462039687656066" lon="12.633656272219236"><ele>307.0</ele><time>2026-04-19T09:59:17Z</time></trkpt><trkpt lat="42.46209312805875" lon="12.633487737634848"><ele>307.0</ele><time>2026-04-19T09:59:18Z</time></trkpt><trkpt lat="42.46214901473567" lon="12.633304050369647"><ele>307.0</ele><time>2026-04-19T09:59:19Z</time></trkpt><trkpt lat="42.46221338806642" lon="12.63311558862545"><ele>307.0</ele><time>2026-04-19T09:59:20Z</time></trkpt><trkpt lat="42.46227934126307" lon="12.632923981387375"><ele>310.25</ele><time>2026-04-19T09:59:21Z</time></trkpt><trkpt lat="42.46233827013149" lon="12.632728707036504"><ele>313.5</ele><time>2026-04-19T09:59:22Z</time></trkpt><trkpt lat="42.462403306123186" lon="12.632542089316784"><ele>316.75</ele><time>2026-04-19T09:59:23Z</time></trkpt><trkpt lat="42.46245575860266" lon="12.632363816689967"><ele>320.0</ele><time>2026-04-19T09:59:24Z</time></trkpt><trkpt lat="42.462505453188804" lon="12.632208162863364"><ele>320.0</ele><time>2026-04-19T09:59:25Z</time></trkpt><trkpt lat="42.462540423917844" lon="12.632066762048566"><ele>320.0</ele><time>2026-04-19T09:59:26Z</time></trkpt><trkpt lat="42.46255374270668" lon="12.63192444412483"><ele>320.0</ele><time>2026-04-19T09:59:27Z</time></trkpt><trkpt lat="42.46255928763936" lon="12.631791625573808"><ele>320.0</ele><time>2026-04-19T09:59:28Z</time></trkpt><trkpt lat="42.46246244715023" lon="12.63167837773524"><ele>320.0</ele><time>2026-04-19T09:59:29Z</time></trkpt><trkpt lat="42.462380228292666" lon="12.631581431449089"><ele>319.25</ele><time>2026-04-19T09:59:30Z</time></trkpt><trkpt lat="42.46224807354664" lon="12.631581003899795"><ele>318.5</ele><time>2026-04-19T09:59:31Z</time></trkpt><trkpt lat="42.462122398333754" lon="12.63160166452231"><ele>317.75</ele><time>2026-04-19T09:59:32Z</time></trkpt><trkpt lat="42.462003519957776" lon="12.63163054351489"><ele>317.0</ele><time>2026-04-19T09:59:33Z</time></trkpt><trkpt lat="42.461876747686475" lon="12.631655299160393"><ele>319.6666666666667</ele><time>2026-04-19T09:59:34Z</time></trkpt><trkpt lat="42.461740532141654" lon="12.631638096130475"><ele>322.3333333333333</ele><time>2026-04-19T09:59:35Z</time></trkpt><trkpt lat="42.461585515470084" lon="12.631639952519961"><ele>325.0</ele><time>2026-04-19T09:59:36Z</time></trkpt><trkpt lat="42.461422301841004" lon="12.631641907070028"><ele>327.3333333333333</ele><time>2026-04-19T09:59:37Z</time></trkpt><trkpt lat="42.46126748765278" lon="12.631643761033535"><ele>329.6666666666667</ele><time>2026-04-19T09:59:38Z</time></trkpt><trkpt lat="42.46111207547844" lon="12.631650521689643"><ele>332.0</ele><time>2026-04-19T09:59:39Z</time></trkpt><trkpt lat="42.460948936825226" lon="12.631650314354756"><ele>332.0</ele><time>2026-04-19T09:59:40Z</time></trkpt><trkpt lat="42.46078244691072" lon="12.631654945840856"><ele>332.0</ele><time>2026-04-19T09:59:41Z</time></trkpt><trkpt lat="42.460609946603284" lon="12.631658217825604"><ele>332.0</ele><time>2026-04-19T09:59:42Z</time></trkpt><trkpt lat="42.46043769582844" lon="12.631650369313226"><ele>333.0</ele><time>2026-04-19T09:59:43Z</time></trkpt><trkpt lat="42.46026543853887" lon="12.631627070171218"><ele>334.0</ele><time>2026-04-19T09:59:44Z</time></trkpt><trkpt lat="42.46009602728353" lon="12.631599804325338"><ele>335.0</ele><time>2026-04-19T09:59:45Z</time></trkpt><trkpt lat="42.45994306395055" lon="12.631575134706736"><ele>335.0</ele><time>2026-04-19T09:59:46Z</time></trkpt><trkpt lat="42.45980794653014" lon="12.631545046946856"><ele>335.0</ele><time>2026-04-19T09:59:47Z</time></trkpt><trkpt lat="42.45967948164114" lon="12.63149513965492"><ele>335.0</ele><time>2026-04-19T09:59:48Z</time></trkpt><trkpt lat="42.459564702587166" lon="12.631408819595885"><ele>335.0</ele><time>2026-04-19T09:59:49Z</time></trkpt><trkpt lat="42.45948731120995" lon="12.631264121137814"><ele>338.33333333333337</ele><time>2026-04-19T09:59:50Z</time></trkpt><trkpt lat="42.45941813800149" lon="12.631090241975842"><ele>341.6666666666667</ele><time>2026-04-19T09:59:51Z</time></trkpt><trkpt lat="42.45932751020308" lon="12.630914349992251"><ele>345.0</ele><time>2026-04-19T09:59:52Z</time></trkpt><trkpt lat="42.459240467176414" lon="12.63073226659203"><ele>345.0</ele><time>2026-04-19T09:59:53Z</time></trkpt><trkpt lat="42.459109958129915" lon="12.63058974960986"><ele>345.0</ele><time>2026-04-19T09:59:54Z</time></trkpt><trkpt lat="42.45896089420401" lon="12.630469980751279"><ele>345.0</ele><time>2026-04-19T09:59:55Z</time></trkpt><trkpt lat="42.458804628128874" lon="12.630345332157098"><ele>348.6666666666667</ele><time>2026-04-19T09:59:56Z</time></trkpt><trkpt lat="42.45865956976214" lon="12.630217148065936"><ele>352.33333333333337</ele><time>2026-04-19T09:59:57Z</time></trkpt><trkpt lat="42.45850288422231" lon="12.630112268805881"><ele>356.0</ele><time>2026-04-19T09:59:58Z</time></trkpt><trkpt lat="42.45832800533234" lon="12.630052929699916"><ele>356.0</ele><time>2026-04-19T09:59:59Z</time></trkpt><trkpt lat="42.458146330506274" lon="12.630041829924027"><ele>356.0</ele><time>2026-04-19T10:00:00Z</time></trkpt><trkpt lat="42.457965104198415" lon="12.630062195437826"><ele>356.0</ele><time>2026-04-19T10:00:01Z</time></trkpt><trkpt lat="42.45777882421934" lon="12.630107074315081"><ele>358.0</ele><time>2026-04-19T10:00:02Z</time></trkpt><trkpt lat="42.45760107976504" lon="12.630178880187458"><ele>360.0</ele><time>2026-04-19T10:00:03Z</time></trkpt><trkpt lat="42.45744407077504" lon="12.630264336379229"><ele>362.0</ele><time>2026-04-19T10:00:04Z</time></trkpt><trkpt lat="42.45728452314617" lon="12.630297757255116"><ele>363.6666666666667</ele><time>2026-04-19T10:00:05Z</time></trkpt><trkpt lat="42.45713538661178" lon="12.630346117255359"><ele>365.3333333333333</ele><time>2026-04-19T10:00:06Z</time></trkpt><trkpt lat="42.45697280193096" lon="12.63033103602387"><ele>367.0</ele><time>2026-04-19T10:00:07Z</time></trkpt><trkpt lat="42.45681197895918" lon="12.63029174301462"><ele>367.0</ele><time>2026-04-19T10:00:08Z</time></trkpt><trkpt lat="42.45665046092913" lon="12.63025277521058"><ele>367.0</ele><time>2026-04-19T10:00:09Z</time></trkpt><trkpt lat="42.4564939210003" lon="12.630245478916926"><ele>367.0</ele><time>2026-04-19T10:00:10Z</time></trkpt><trkpt lat="42.456362056331855" lon="12.63027199051199"><ele>367.5</ele><time>2026-04-19T10:00:11Z</time></trkpt><trkpt lat="42.456242548087125" lon="12.630293125949546"><ele>368.0</ele><time>2026-04-19T10:00:12Z</time></trkpt><trkpt lat="42.45615419239187" lon="12.630333728737622"><ele>368.5</ele><time>2026-04-19T10:00:13Z</time></trkpt><trkpt lat="42.456085236316056" lon="12.630312380813576"><ele>369.0</ele><time>2026-04-19T10:00:14Z</time></trkpt><trkpt lat="42.45603339637039" lon="12.630246422118388"><ele>369.5</ele><time>2026-04-19T10:00:15Z</time></trkpt><trkpt lat="42.456040301605555" lon="12.630149869298549"><ele>370.0</ele><time>2026-04-19T10:00:16Z</time></trkpt><trkpt lat="42.45608774896603" lon="12.630036987224894"><ele>370.0</ele><time>2026-04-19T10:00:17Z</time></trkpt><trkpt lat="42.45616676789553" lon="12.629909558693889"><ele>370.0</ele><time>2026-04-19T10:00:18Z</time></trkpt><trkpt lat="42.456269392692704" lon="12.629794478339493"><ele>370.0</ele><time>2026-04-19T10:00:19Z</time></trkpt><trkpt lat="42.45638633154157" lon="12.629708764662029"><ele>370.0</ele><time>2026-04-19T10:00:20Z</time></trkpt><trkpt lat="42.45649341805601" lon="12.629656909717372"><ele>369.5</ele><time>2026-04-19T10:00:21Z</time></trkpt><trkpt lat="42.45657801989675" lon="12.629626968244937"><ele>369.0</ele><time>2026-04-19T10:00:22Z</time></trkpt><trkpt lat="42.45663453537793" lon="12.62958337433527"><ele>368.5</ele><time>2026-04-19T10:00:23Z</time></trkpt><trkpt lat="42.456664350600725" lon="12.629495610527794"><ele>368.0</ele><time>2026-04-19T10:00:24Z</time></trkpt><trkpt lat="42.45665601596508" lon="12.629382470204856"><ele>367.5</ele><time>2026-04-19T10:00:25Z</time></trkpt><trkpt lat="42.45661380317382" lon="12.629280907849365"><ele>367.0</ele><time>2026-04-19T10:00:26Z</time></trkpt><trkpt lat="42.4564971710793" lon="12.6292359384458"><ele>370.25</ele><time>2026-04-19T10:00:27Z</time></trkpt><trkpt lat="42.456376845523316" lon="12.629236960632591"><ele>373.5</ele><time>2026-04-19T10:00:28Z</time></trkpt><trkpt lat="42.45623374431881" lon="12.629251020051054"><ele>376.75</ele><time>2026-04-19T10:00:29Z</time></trkpt><trkpt lat="42.45608298338671" lon="12.62922779211824"><ele>380.0</ele><time>2026-04-19T10:00:30Z</time></trkpt><trkpt lat="42.455923368543274" lon="12.62920466395038"><ele>381.33333333333337</ele><time>2026-04-19T10:00:31Z</time></trkpt><trkpt lat="42.4557452628988" lon="12.629179521456292"><ele>382.6666666666667</ele><time>2026-04-19T10:00:32Z</time></trkpt><trkpt lat="42.45556651922179" lon="12.629154446469595"><ele>384.0</ele><time>2026-04-19T10:00:33Z</time></trkpt><trkpt lat="42.45538912364999" lon="12.629134962061517"><ele>386.0</ele><time>2026-04-19T10:00:34Z</time></trkpt><trkpt lat="42.45520856859765" lon="12.629117217620733"><ele>388.0</ele><time>2026-04-19T10:00:35Z</time></trkpt><trkpt lat="42.45504012741952" lon="12.62912719053264"><ele>390.0</ele><time>2026-04-19T10:00:36Z</time></trkpt><trkpt lat="42.45488753239971" lon="12.62912356689929"><ele>390.0</ele><time>2026-04-19T10:00:37Z</time></trkpt><trkpt lat="42.45475670308176" lon="12.62911081852733"><ele>390.0</ele><time>2026-04-19T10:00:38Z</time></trkpt><trkpt lat="42.45462866780639" lon="12.629070990957713"><ele>390.0</ele><time>2026-04-19T10:00:39Z</time></trkpt><trkpt lat="42.4545071716915" lon="12.628974309912914"><ele>390.0</ele><time>2026-04-19T10:00:40Z</time></trkpt><trkpt lat="42.45437390580929" lon="12.628886350057929"><ele>390.0</ele><time>2026-04-19T10:00:41Z</time></trkpt><trkpt lat="42.45424628172437" lon="12.628786385482485"><ele>390.0</ele><time>2026-04-19T10:00:42Z</time></trkpt><trkpt lat="42.454120541137804" lon="12.628704886586643"><ele>390.0</ele><time>2026-04-19T10:00:43Z</time></trkpt><trkpt lat="42.453987478173964" lon="12.628637849686612"><ele>390.0</ele><time>2026-04-19T10:00:44Z</time></trkpt><trkpt lat="42.453841838946154" lon="12.62858952157416"><ele>394.25</ele><time>2026-04-19T10:00:45Z</time></trkpt><trkpt lat="42.45369375632497" lon="12.62856620864533"><ele>398.5</ele><time>2026-04-19T10:00:46Z</time></trkpt><trkpt lat="42.45354284511407" lon="12.628568647839074"><ele>402.75</ele><time>2026-04-19T10:00:47Z</time></trkpt><trkpt lat="42.45339769362347" lon="12.628592289295769"><ele>407.0</ele><time>2026-04-19T10:00:48Z</time></trkpt><trkpt lat="42.45326497095717" lon="12.628622534664837"><ele>403.75</ele><time>2026-04-19T10:00:49Z</time></trkpt><trkpt lat="42.453140027673896" lon="12.628647443404928"><ele>400.5</ele><time>2026-04-19T10:00:50Z</time></trkpt><trkpt lat="42.45302490327559" lon="12.628667112348964"><ele>397.25</ele><time>2026-04-19T10:00:51Z</time></trkpt><trkpt lat="42.452890395899324" lon="12.62869826355674"><ele>394.0</ele><time>2026-04-19T10:00:52Z</time></trkpt><trkpt lat="42.45277169012293" lon="12.628717343255689"><ele>394.0</ele><time>2026-04-19T10:00:53Z</time></trkpt><trkpt lat="42.45265719737336" lon="12.628736525423216"><ele>394.0</ele><time>2026-04-19T10:00:54Z</time></trkpt><trkpt lat="42.45254905265609" lon="12.628755525975496"><ele>394.0</ele><time>2026-04-19T10:00:55Z</time></trkpt><trkpt lat="42.45245071431613" lon="12.628774537836053"><ele>394.0</ele><time>2026-04-19T10:00:56Z</time></trkpt><trkpt lat="42.45235723876252" lon="12.628791773090214"><ele>394.0</ele><time>2026-04-19T10:00:57Z</time></trkpt><trkpt lat="42.452266601168574" lon="12.62881012654196"><ele>394.00000000000006</ele><time>2026-04-19T10:00:58Z</time></trkpt><trkpt lat="42.452182065163115" lon="12.628830916550172"><ele>394.0</ele><time>2026-04-19T10:00:59Z</time></trkpt><trkpt lat="42.45210216470148" lon="12.628853734086638"><ele>394.0</ele><time>2026-04-19T10:01:00Z</time></trkpt><trkpt lat="42.45202658009667" lon="12.628869437915116"><ele>394.0</ele><time>2026-04-19T10:01:01Z</time></trkpt><trkpt lat="42.45195626229001" lon="12.628877401803507"><ele>394.00000000000006</ele><time>2026-04-19T10:01:02Z</time></trkpt><trkpt lat="42.45188957438777" lon="12.628864730495106"><ele>394.0</ele><time>2026-04-19T10:01:03Z</time></trkpt><trkpt lat="42.451812495620125" lon="12.628841991991383"><ele>394.0</ele><time>2026-04-19T10:01:04Z</time></trkpt><trkpt lat="42.45172707603842" lon="12.628830009130818"><ele>394.0</ele><time>2026-04-19T10:01:05Z</time></trkpt><trkpt lat="42.45163861951154" lon="12.628843261671475"><ele>394.0</ele><time>2026-04-19T10:01:06Z</time></trkpt><trkpt lat="42.45154841590839" lon="12.628856277630163"><ele>394.0</ele><time>2026-04-19T10:01:07Z</time></trkpt><trkpt lat="42.45145714939931" lon="12.628870982189154"><ele>394.0</ele><time>2026-04-19T10:01:08Z</time></trkpt><trkpt lat="42.45135843255938" lon="12.62886473792513"><ele>395.33333333333337</ele><time>2026-04-19T10:01:08.999Z</time></trkpt><trkpt lat="42.45125740896911" lon="12.6288784715285"><ele>396.6666666666667</ele><time>2026-04-19T10:01:09.999Z</time></trkpt><trkpt lat="42.45115481492376" lon="12.628894484505839"><ele>398.0</ele><time>2026-04-19T10:01:10.999Z</time></trkpt><trkpt lat="42.451062233772205" lon="12.628910771393219"><ele>399.33333333333337</ele><time>2026-04-19T10:01:11.999Z</time></trkpt><trkpt lat="42.45098745317211" lon="12.628938513590162"><ele>400.6666666666667</ele><time>2026-04-19T10:01:12.999Z</time></trkpt><trkpt lat="42.45092255663732" lon="12.628916691411371"><ele>402.0</ele><time>2026-04-19T10:01:13.999Z</time></trkpt><trkpt lat="42.45086734699728" lon="12.628868169270271"><ele>402.0</ele><time>2026-04-19T10:01:14.999Z</time></trkpt><trkpt lat="42.45085526704567" lon="12.628780729183404"><ele>402.0</ele><time>2026-04-19T10:01:15.999Z</time></trkpt><trkpt lat="42.45087846950604" lon="12.628697224742291"><ele>402.0</ele><time>2026-04-19T10:01:16.999Z</time></trkpt><trkpt lat="42.45095311415498" lon="12.628635135727867"><ele>402.0</ele><time>2026-04-19T10:01:17.999Z</time></trkpt><trkpt lat="42.451046712742254" lon="12.628558025935371"><ele>402.0</ele><time>2026-04-19T10:01:18.999Z</time></trkpt><trkpt lat="42.451173071969414" lon="12.628452513747105"><ele>404.0</ele><time>2026-04-19T10:01:19.999Z</time></trkpt><trkpt lat="42.45131387150441" lon="12.628380476754726"><ele>406.0</ele><time>2026-04-19T10:01:20.999Z</time></trkpt><trkpt lat="42.451387413284834" lon="12.628335630459725"><ele>408.0</ele><time>2026-04-19T10:01:21.998Z</time></trkpt><trkpt lat="42.451510922052044" lon="12.628237555192188"><ele>410.0</ele><time>2026-04-19T10:01:22.998Z</time></trkpt><trkpt lat="42.45163310316541" lon="12.628162606385375"><ele>410.0</ele><time>2026-04-19T10:01:23.998Z</time></trkpt><trkpt lat="42.45173508073135" lon="12.628075590935245"><ele>410.0</ele><time>2026-04-19T10:01:24.998Z</time></trkpt><trkpt lat="42.45180752957149" lon="12.627955079608876"><ele>410.0</ele><time>2026-04-19T10:01:25.998Z</time></trkpt><trkpt lat="42.451863744965735" lon="12.62780959093901"><ele>410.0</ele><time>2026-04-19T10:01:26.998Z</time></trkpt><trkpt lat="42.451907910315825" lon="12.627697629015705"><ele>412.0</ele><time>2026-04-19T10:01:27.998Z</time></trkpt><trkpt lat="42.45191158518768" lon="12.627592558298861"><ele>414.0</ele><time>2026-04-19T10:01:28.998Z</time></trkpt><trkpt lat="42.451882064209144" lon="12.627504656361094"><ele>416.0</ele><time>2026-04-19T10:01:29.998Z</time></trkpt><trkpt lat="42.451769011315875" lon="12.627478250894601"><ele>418.0</ele><time>2026-04-19T10:01:30.998Z</time></trkpt><trkpt lat="42.45167032610645" lon="12.627462781936572"><ele>420.0</ele><time>2026-04-19T10:01:31.998Z</time></trkpt><trkpt lat="42.451555506205274" lon="12.627460211894622"><ele>420.0</ele><time>2026-04-19T10:01:32.998Z</time></trkpt><trkpt lat="42.45144050781897" lon="12.627471237753841"><ele>420.0</ele><time>2026-04-19T10:01:33.998Z</time></trkpt><trkpt lat="42.45135449084019" lon="12.627435155891037"><ele>420.0</ele><time>2026-04-19T10:01:34.998Z</time></trkpt><trkpt lat="42.45126387238343" lon="12.627521183057413"><ele>420.0</ele><time>2026-04-19T10:01:35.998Z</time></trkpt><trkpt lat="42.45118627659289" lon="12.62754518816486"><ele>420.0</ele><time>2026-04-19T10:01:36.998Z</time></trkpt><trkpt lat="42.451111133760705" lon="12.627564478767075"><ele>421.0</ele><time>2026-04-19T10:01:37.998Z</time></trkpt><trkpt lat="42.45103753849571" lon="12.627580052866454"><ele>422.0</ele><time>2026-04-19T10:01:38.998Z</time></trkpt><trkpt lat="42.45096289115056" lon="12.627594186386947"><ele>423.0</ele><time>2026-04-19T10:01:39.998Z</time></trkpt><trkpt lat="42.450894627989115" lon="12.627609291683632"><ele>424.0</ele><time>2026-04-19T10:01:40.998Z</time></trkpt><trkpt lat="42.45082832653184" lon="12.627614080407325"><ele>425.0</ele><time>2026-04-19T10:01:41.998Z</time></trkpt><trkpt lat="42.450728026845724" lon="12.62760593318516"><ele>426.0</ele><time>2026-04-19T10:01:43.998Z</time></trkpt><trkpt lat="42.45064950171332" lon="12.627579400928038"><ele>426.0</ele><time>2026-04-19T10:01:47.998Z</time></trkpt><trkpt lat="42.45059198459169" lon="12.62761472197523"><ele>426.0</ele><time>2026-04-19T10:04:08Z</time></trkpt><trkpt lat="42.45065765837128" lon="12.627611715836483"><ele>426.0</ele><time>2026-04-19T10:04:18Z</time></trkpt><trkpt lat="42.45077000885088" lon="12.627603323780981"><ele>426.0</ele><time>2026-04-19T10:04:19Z</time></trkpt><trkpt lat="42.45088888066357" lon="12.627617046970542"><ele>426.0</ele><time>2026-04-19T10:04:21Z</time></trkpt><trkpt lat="42.450960339383705" lon="12.627600059002248"><ele>426.0</ele><time>2026-04-19T10:04:22Z</time></trkpt><trkpt lat="42.451033372643465" lon="12.62758432302819"><ele>426.0</ele><time>2026-04-19T10:04:23Z</time></trkpt><trkpt lat="42.45111618745153" lon="12.62756551559483"><ele>426.0</ele><time>2026-04-19T10:04:24Z</time></trkpt><trkpt lat="42.451196566318025" lon="12.62754804616625"><ele>426.0</ele><time>2026-04-19T10:04:25Z</time></trkpt><trkpt lat="42.45127344189107" lon="12.627537510383911"><ele>426.0</ele><time>2026-04-19T10:04:26Z</time></trkpt><trkpt lat="42.45134628178086" lon="12.627525054466892"><ele>426.0</ele><time>2026-04-19T10:04:27Z</time></trkpt><trkpt lat="42.45141194573063" lon="12.627511964101908"><ele>426.0</ele><time>2026-04-19T10:04:28Z</time></trkpt><trkpt lat="42.45152971112159" lon="12.627513305733409"><ele>424.8</ele><time>2026-04-19T10:04:30Z</time></trkpt><trkpt lat="42.4516435842946" lon="12.62753477233291"><ele>423.6</ele><time>2026-04-19T10:04:32Z</time></trkpt><trkpt lat="42.45173944017797" lon="12.627556376895757"><ele>422.4</ele><time>2026-04-19T10:04:34Z</time></trkpt><trkpt lat="42.45182763075498" lon="12.627610293213891"><ele>421.2</ele><time>2026-04-19T10:04:36Z</time></trkpt><trkpt lat="42.45187715989347" lon="12.627703810350143"><ele>420.0</ele><time>2026-04-19T10:04:38Z</time></trkpt><trkpt lat="42.451842167566774" lon="12.627785507347191"><ele>418.0</ele><time>2026-04-19T10:04:39Z</time></trkpt><trkpt lat="42.45177606132861" lon="12.6279262611675"><ele>416.0</ele><time>2026-04-19T10:04:41Z</time></trkpt><trkpt lat="42.45173288928042" lon="12.628004704978755"><ele>414.0</ele><time>2026-04-19T10:04:42Z</time></trkpt><trkpt lat="42.45166462719396" lon="12.628094465530328"><ele>412.0</ele><time>2026-04-19T10:04:43Z</time></trkpt><trkpt lat="42.4515674108526" lon="12.628166879617357"><ele>410.0</ele><time>2026-04-19T10:04:44Z</time></trkpt><trkpt lat="42.451464849599425" lon="12.628240715477828"><ele>410.0</ele><time>2026-04-19T10:04:45Z</time></trkpt><trkpt lat="42.45138090167845" lon="12.628290327598345"><ele>410.0</ele><time>2026-04-19T10:04:46Z</time></trkpt><trkpt lat="42.4513068539086" lon="12.628335293827243"><ele>410.0</ele><time>2026-04-19T10:04:47Z</time></trkpt><trkpt lat="42.451231047523706" lon="12.628382784776166"><ele>410.0</ele><time>2026-04-19T10:04:49Z</time></trkpt><trkpt lat="42.45097306063194" lon="12.628551735186232"><ele>411.0</ele><time>2026-04-19T10:04:50Z</time></trkpt><trkpt lat="42.4508870956763" lon="12.628613647221512"><ele>412.0</ele><time>2026-04-19T10:04:51Z</time></trkpt><trkpt lat="42.450830083515825" lon="12.62868571641295"><ele>413.0</ele><time>2026-04-19T10:04:52Z</time></trkpt><trkpt lat="42.45080433627108" lon="12.628847076534061"><ele>414.0</ele><time>2026-04-19T10:04:54Z</time></trkpt><trkpt lat="42.450849839865775" lon="12.628946398582542"><ele>415.0</ele><time>2026-04-19T10:04:55Z</time></trkpt><trkpt lat="42.45092747185359" lon="12.629002482858308"><ele>412.4</ele><time>2026-04-19T10:04:56Z</time></trkpt><trkpt lat="42.45101442218054" lon="12.629001682776387"><ele>409.8</ele><time>2026-04-19T10:04:57Z</time></trkpt><trkpt lat="42.451112017937945" lon="12.628967970623204"><ele>407.20000000000005</ele><time>2026-04-19T10:04:58Z</time></trkpt><trkpt lat="42.451222357206916" lon="12.628938048430292"><ele>404.6</ele><time>2026-04-19T10:04:59Z</time></trkpt><trkpt lat="42.45133963328885" lon="12.628914140858347"><ele>402.0</ele><time>2026-04-19T10:05:00Z</time></trkpt><trkpt lat="42.45144953653636" lon="12.628893278089455"><ele>400.40000000000003</ele><time>2026-04-19T10:05:01Z</time></trkpt><trkpt lat="42.45155691616595" lon="12.62887747481948"><ele>398.8</ele><time>2026-04-19T10:05:01.999Z</time></trkpt><trkpt lat="42.451651706754646" lon="12.628865715907057"><ele>397.2</ele><time>2026-04-19T10:05:02.999Z</time></trkpt><trkpt lat="42.45173786074152" lon="12.628855299704606"><ele>395.6</ele><time>2026-04-19T10:05:03.999Z</time></trkpt><trkpt lat="42.451831513059176" lon="12.628867687436596"><ele>394.0</ele><time>2026-04-19T10:05:05.999Z</time></trkpt><trkpt lat="42.45175810418366" lon="12.628955158776693"><ele>394.0</ele><time>2026-04-19T10:05:24Z</time></trkpt><trkpt lat="42.45169721135362" lon="12.628981991678133"><ele>394.0</ele><time>2026-04-19T10:05:25Z</time></trkpt><trkpt lat="42.451614935584864" lon="12.6290384514071"><ele>394.0</ele><time>2026-04-19T10:05:26Z</time></trkpt><trkpt lat="42.451526181193124" lon="12.629090914553188"><ele>394.0</ele><time>2026-04-19T10:05:27Z</time></trkpt><trkpt lat="42.451426828129605" lon="12.629159988715967"><ele>394.0</ele><time>2026-04-19T10:05:28Z</time></trkpt><trkpt lat="42.45132385023736" lon="12.629253710372046"><ele>393.75</ele><time>2026-04-19T10:05:29Z</time></trkpt><trkpt lat="42.4512134453274" lon="12.629346354652965"><ele>393.5</ele><time>2026-04-19T10:05:30Z</time></trkpt><trkpt lat="42.45108937980537" lon="12.62944884132626"><ele>393.25</ele><time>2026-04-19T10:05:31Z</time></trkpt><trkpt lat="42.45095580812086" lon="12.629533115427577"><ele>393.0</ele><time>2026-04-19T10:05:32Z</time></trkpt><trkpt lat="42.45082259664992" lon="12.629612014818663"><ele>393.0</ele><time>2026-04-19T10:05:33Z</time></trkpt><trkpt lat="42.45068196782994" lon="12.629682355003135"><ele>393.0</ele><time>2026-04-19T10:05:34Z</time></trkpt><trkpt lat="42.45053702612442" lon="12.62975526490544"><ele>393.0</ele><time>2026-04-19T10:05:35Z</time></trkpt><trkpt lat="42.45039887864096" lon="12.629843653952268"><ele>395.66666666666663</ele><time>2026-04-19T10:05:36Z</time></trkpt><trkpt lat="42.4502739470805" lon="12.629962247966583"><ele>398.3333333333333</ele><time>2026-04-19T10:05:37Z</time></trkpt><trkpt lat="42.45016401263394" lon="12.630108384883645"><ele>401.0</ele><time>2026-04-19T10:05:38Z</time></trkpt><trkpt lat="42.450056127333205" lon="12.630248267497166"><ele>397.75</ele><time>2026-04-19T10:05:39Z</time></trkpt><trkpt lat="42.449946632838426" lon="12.630363278236603"><ele>394.5</ele><time>2026-04-19T10:05:40Z</time></trkpt><trkpt lat="42.44981641744117" lon="12.630441078447246"><ele>391.25</ele><time>2026-04-19T10:05:41Z</time></trkpt><trkpt lat="42.4496645428655" lon="12.630465798588173"><ele>388.0</ele><time>2026-04-19T10:05:42Z</time></trkpt><trkpt lat="42.44950481702706" lon="12.630450783381088"><ele>388.0</ele><time>2026-04-19T10:05:43Z</time></trkpt><trkpt lat="42.44934344401788" lon="12.630385730135455"><ele>388.0</ele><time>2026-04-19T10:05:44Z</time></trkpt><trkpt lat="42.44917466988915" lon="12.63038337634488"><ele>388.0</ele><time>2026-04-19T10:05:45Z</time></trkpt><trkpt lat="42.44902773239278" lon="12.630394793156228"><ele>388.0</ele><time>2026-04-19T10:05:46Z</time></trkpt><trkpt lat="42.448893617458445" lon="12.630417047459233"><ele>388.0</ele><time>2026-04-19T10:05:47Z</time></trkpt><trkpt lat="42.44876120500134" lon="12.630411660320698"><ele>388.0</ele><time>2026-04-19T10:05:48Z</time></trkpt><trkpt lat="42.448621274053224" lon="12.630419513774452"><ele>388.0</ele><time>2026-04-19T10:05:49Z</time></trkpt><trkpt lat="42.44848007894473" lon="12.630363243248585"><ele>390.6666666666667</ele><time>2026-04-19T10:05:50Z</time></trkpt><trkpt lat="42.44835080631671" lon="12.630238494913222"><ele>393.33333333333337</ele><time>2026-04-19T10:05:51Z</time></trkpt><trkpt lat="42.448216868910286" lon="12.63012266955705"><ele>396.0</ele><time>2026-04-19T10:05:52Z</time></trkpt><trkpt lat="42.44808157577683" lon="12.62999788375432"><ele>392.0</ele><time>2026-04-19T10:05:53Z</time></trkpt><trkpt lat="42.44794127528426" lon="12.629881215066451"><ele>388.0</ele><time>2026-04-19T10:05:54Z</time></trkpt><trkpt lat="42.447813459906136" lon="12.629736351885498"><ele>384.0</ele><time>2026-04-19T10:05:55Z</time></trkpt><trkpt lat="42.447691870953214" lon="12.629601729774901"><ele>384.0</ele><time>2026-04-19T10:05:56Z</time></trkpt><trkpt lat="42.447575634233026" lon="12.62947551395611"><ele>384.0</ele><time>2026-04-19T10:05:57Z</time></trkpt><trkpt lat="42.44747261000432" lon="12.62932786140392"><ele>384.0</ele><time>2026-04-19T10:05:58Z</time></trkpt><trkpt lat="42.44735622277213" lon="12.62921003093761"><ele>384.0</ele><time>2026-04-19T10:05:59Z</time></trkpt><trkpt lat="42.44727097285525" lon="12.629048960052371"><ele>385.75</ele><time>2026-04-19T10:06:00Z</time></trkpt><trkpt lat="42.44717677350757" lon="12.628877080052678"><ele>387.5</ele><time>2026-04-19T10:06:01Z</time></trkpt><trkpt lat="42.447084793029106" lon="12.62871672633557"><ele>389.25</ele><time>2026-04-19T10:06:02Z</time></trkpt><trkpt lat="42.44701490575052" lon="12.628556480861448"><ele>391.0</ele><time>2026-04-19T10:06:03Z</time></trkpt><trkpt lat="42.44695469051957" lon="12.628422582355707"><ele>387.4</ele><time>2026-04-19T10:06:04Z</time></trkpt><trkpt lat="42.44689793829438" lon="12.628305364057848"><ele>383.8</ele><time>2026-04-19T10:06:05Z</time></trkpt><trkpt lat="42.446847116168726" lon="12.62822332438321"><ele>380.2</ele><time>2026-04-19T10:06:06Z</time></trkpt><trkpt lat="42.44677395249524" lon="12.628171638689027"><ele>376.59999999999997</ele><time>2026-04-19T10:06:07Z</time></trkpt><trkpt lat="42.44668944602812" lon="12.62814303142634"><ele>373.0</ele><time>2026-04-19T10:06:08Z</time></trkpt><trkpt lat="42.44658815847546" lon="12.628268308431887"><ele>373.0</ele><time>2026-04-19T10:06:09Z</time></trkpt><trkpt lat="42.44651727185052" lon="12.628401056224455"><ele>373.0</ele><time>2026-04-19T10:06:10Z</time></trkpt><trkpt lat="42.446460544951414" lon="12.628547776072997"><ele>373.0</ele><time>2026-04-19T10:06:11Z</time></trkpt><trkpt lat="42.44637219961668" lon="12.628665432840293"><ele>373.0</ele><time>2026-04-19T10:06:12Z</time></trkpt><trkpt lat="42.446246784682025" lon="12.628745227332427"><ele>368.66666666666663</ele><time>2026-04-19T10:06:13Z</time></trkpt><trkpt lat="42.44608771005603" lon="12.628835993415189"><ele>364.3333333333333</ele><time>2026-04-19T10:06:14Z</time></trkpt><trkpt lat="42.44592261114667" lon="12.628928452123185"><ele>360.0</ele><time>2026-04-19T10:06:15Z</time></trkpt><trkpt lat="42.445756356177306" lon="12.629020209040478"><ele>360.0</ele><time>2026-04-19T10:06:16Z</time></trkpt><trkpt lat="42.44559160925516" lon="12.629133177811948"><ele>360.0</ele><time>2026-04-19T10:06:17Z</time></trkpt><trkpt lat="42.44544226533787" lon="12.629210651313626"><ele>360.0</ele><time>2026-04-19T10:06:18Z</time></trkpt><trkpt lat="42.445272186394355" lon="12.629287764015166"><ele>358.3333333333333</ele><time>2026-04-19T10:06:19Z</time></trkpt><trkpt lat="42.445115486825436" lon="12.629375115250802"><ele>356.66666666666663</ele><time>2026-04-19T10:06:20Z</time></trkpt><trkpt lat="42.44495745180036" lon="12.62946406566291"><ele>355.0</ele><time>2026-04-19T10:06:21Z</time></trkpt><trkpt lat="42.44480047993922" lon="12.629553872402541"><ele>354.0</ele><time>2026-04-19T10:06:22Z</time></trkpt><trkpt lat="42.444651389609035" lon="12.629627921084882"><ele>353.0</ele><time>2026-04-19T10:06:23Z</time></trkpt><trkpt lat="42.444501727312336" lon="12.629701744137288"><ele>352.0</ele><time>2026-04-19T10:06:24Z</time></trkpt><trkpt lat="42.44434850882579" lon="12.629703839317251"><ele>356.3333333333333</ele><time>2026-04-19T10:06:25Z</time></trkpt><trkpt lat="42.44419466989051" lon="12.629623568559271"><ele>360.6666666666667</ele><time>2026-04-19T10:06:26Z</time></trkpt><trkpt lat="42.444063518727056" lon="12.629602477233865"><ele>365.0</ele><time>2026-04-19T10:06:27Z</time></trkpt><trkpt lat="42.443911088087326" lon="12.629576556103961"><ele>368.33333333333337</ele><time>2026-04-19T10:06:28Z</time></trkpt><trkpt lat="42.44375930514408" lon="12.6295889711569"><ele>371.6666666666667</ele><time>2026-04-19T10:06:29Z</time></trkpt><trkpt lat="42.44360762936645" lon="12.629627369520627"><ele>375.0</ele><time>2026-04-19T10:06:30Z</time></trkpt><trkpt lat="42.44345432173821" lon="12.62967194031173"><ele>375.0</ele><time>2026-04-19T10:06:31Z</time></trkpt><trkpt lat="42.44330263716719" lon="12.62971847656118"><ele>375.0</ele><time>2026-04-19T10:06:32Z</time></trkpt><trkpt lat="42.44315903965519" lon="12.629788199276616"><ele>375.0</ele><time>2026-04-19T10:06:33Z</time></trkpt><trkpt lat="42.44302636413949" lon="12.62989483804484"><ele>376.3333333333333</ele><time>2026-04-19T10:06:34Z</time></trkpt><trkpt lat="42.44290126955762" lon="12.63001940832737"><ele>377.66666666666663</ele><time>2026-04-19T10:06:35Z</time></trkpt><trkpt lat="42.442788817568136" lon="12.630160630134881"><ele>379.0</ele><time>2026-04-19T10:06:36Z</time></trkpt><trkpt lat="42.44267746920188" lon="12.63030778705597"><ele>381.0</ele><time>2026-04-19T10:06:37Z</time></trkpt><trkpt lat="42.44255940003211" lon="12.630449594901307"><ele>383.0</ele><time>2026-04-19T10:06:38Z</time></trkpt><trkpt lat="42.44244009368106" lon="12.630595777669878"><ele>385.0</ele><time>2026-04-19T10:06:39Z</time></trkpt><trkpt lat="42.44231892302978" lon="12.63074422227796"><ele>385.0</ele><time>2026-04-19T10:06:40Z</time></trkpt><trkpt lat="42.44219459179837" lon="12.630896525010048"><ele>385.0</ele><time>2026-04-19T10:06:41Z</time></trkpt><trkpt lat="42.44207746188794" lon="12.631045856220254"><ele>385.0</ele><time>2026-04-19T10:06:42Z</time></trkpt><trkpt lat="42.44195771711283" lon="12.631188735356526"><ele>385.25</ele><time>2026-04-19T10:06:43Z</time></trkpt><trkpt lat="42.441853749834806" lon="12.631330200688058"><ele>385.5</ele><time>2026-04-19T10:06:44Z</time></trkpt><trkpt lat="42.44175521013477" lon="12.6314664528217"><ele>385.75</ele><time>2026-04-19T10:06:45Z</time></trkpt><trkpt lat="42.4416548511707" lon="12.631596263740443"><ele>386.0</ele><time>2026-04-19T10:06:46Z</time></trkpt><trkpt lat="42.4415373956167" lon="12.631715333485412"><ele>386.0</ele><time>2026-04-19T10:06:47Z</time></trkpt><trkpt lat="42.4414048232023" lon="12.631801800498595"><ele>386.0</ele><time>2026-04-19T10:06:48Z</time></trkpt><trkpt lat="42.44125695781717" lon="12.631853087501376"><ele>386.0</ele><time>2026-04-19T10:06:49Z</time></trkpt><trkpt lat="42.44109452874426" lon="12.63185023032367"><ele>387.3333333333333</ele><time>2026-04-19T10:06:50Z</time></trkpt><trkpt lat="42.44093200173049" lon="12.631851631874467"><ele>388.66666666666663</ele><time>2026-04-19T10:06:51Z</time></trkpt><trkpt lat="42.44076649740702" lon="12.631847115943048"><ele>390.0</ele><time>2026-04-19T10:06:52Z</time></trkpt><trkpt lat="42.44060261159045" lon="12.631842801222453"><ele>392.33333333333337</ele><time>2026-04-19T10:06:53Z</time></trkpt><trkpt lat="42.44043943786426" lon="12.631839564623037"><ele>394.6666666666667</ele><time>2026-04-19T10:06:54Z</time></trkpt><trkpt lat="42.44027553642751" lon="12.63183463638827"><ele>397.0</ele><time>2026-04-19T10:06:55Z</time></trkpt><trkpt lat="42.44012671242641" lon="12.63182847129179"><ele>397.0</ele><time>2026-04-19T10:06:56Z</time></trkpt><trkpt lat="42.43999373112649" lon="12.631812919030498"><ele>397.0</ele><time>2026-04-19T10:06:57Z</time></trkpt><trkpt lat="42.43987744001226" lon="12.631787117986558"><ele>397.0</ele><time>2026-04-19T10:06:58Z</time></trkpt><trkpt lat="42.43974810179914" lon="12.631798775676362"><ele>397.0</ele><time>2026-04-19T10:06:59Z</time></trkpt><trkpt lat="42.439624456669065" lon="12.631871083155621"><ele>399.5</ele><time>2026-04-19T10:07:00Z</time></trkpt><trkpt lat="42.43950234945939" lon="12.631984638035298"><ele>402.0</ele><time>2026-04-19T10:07:01Z</time></trkpt><trkpt lat="42.43940771036741" lon="12.632109954605726"><ele>404.5</ele><time>2026-04-19T10:07:02Z</time></trkpt><trkpt lat="42.439331319099686" lon="12.63221785986624"><ele>407.0</ele><time>2026-04-19T10:07:03Z</time></trkpt><trkpt lat="42.43933444588909" lon="12.632410173338993"><ele>407.0</ele><time>2026-04-19T10:07:04Z</time></trkpt><trkpt lat="42.43928527713221" lon="12.632548155508454"><ele>407.0</ele><time>2026-04-19T10:07:05Z</time></trkpt><trkpt lat="42.43923123231516" lon="12.632692234513677"><ele>407.0</ele><time>2026-04-19T10:07:06Z</time></trkpt><trkpt lat="42.43917286915377" lon="12.632840331199052"><ele>407.0</ele><time>2026-04-19T10:07:07Z</time></trkpt><trkpt lat="42.439110000726664" lon="12.632988569164583"><ele>407.0</ele><time>2026-04-19T10:07:07.999Z</time></trkpt><trkpt lat="42.43903833238029" lon="12.633131063074318"><ele>407.0</ele><time>2026-04-19T10:07:08.999Z</time></trkpt><trkpt lat="42.438964127291506" lon="12.633273769022614"><ele>407.0</ele><time>2026-04-19T10:07:09.999Z</time></trkpt><trkpt lat="42.43886320826896" lon="12.63338217444264"><ele>407.0</ele><time>2026-04-19T10:07:11Z</time></trkpt><trkpt lat="42.438737158759736" lon="12.633459867594537"><ele>407.0</ele><time>2026-04-19T10:07:12Z</time></trkpt><trkpt lat="42.43860706155257" lon="12.633545262258991"><ele>407.0</ele><time>2026-04-19T10:07:13Z</time></trkpt><trkpt lat="42.438469057916066" lon="12.633630550086176"><ele>407.0</ele><time>2026-04-19T10:07:14Z</time></trkpt><trkpt lat="42.43833314119162" lon="12.633742447564451"><ele>405.0</ele><time>2026-04-19T10:07:15Z</time></trkpt><trkpt lat="42.43818925432669" lon="12.633835359383847"><ele>403.0</ele><time>2026-04-19T10:07:16Z</time></trkpt><trkpt lat="42.43804904956465" lon="12.633921563185767"><ele>401.0</ele><time>2026-04-19T10:07:17Z</time></trkpt><trkpt lat="42.43790621354587" lon="12.634003482104688"><ele>405.0</ele><time>2026-04-19T10:07:18Z</time></trkpt><trkpt lat="42.43776028839238" lon="12.634074943149056"><ele>409.0</ele><time>2026-04-19T10:07:19Z</time></trkpt><trkpt lat="42.43761275512096" lon="12.634119934647138"><ele>413.0</ele><time>2026-04-19T10:07:20Z</time></trkpt><trkpt lat="42.43746190231235" lon="12.634107272342266"><ele>413.0</ele><time>2026-04-19T10:07:21Z</time></trkpt><trkpt lat="42.437321887311974" lon="12.63409398653841"><ele>413.0</ele><time>2026-04-19T10:07:22Z</time></trkpt><trkpt lat="42.43721242069471" lon="12.634113095009353"><ele>413.0</ele><time>2026-04-19T10:07:23Z</time></trkpt><trkpt lat="42.43711062568635" lon="12.634171540731446"><ele>413.0</ele><time>2026-04-19T10:07:24Z</time></trkpt><trkpt lat="42.43702755504507" lon="12.634299236452321"><ele>414.0</ele><time>2026-04-19T10:07:25Z</time></trkpt><trkpt lat="42.43695418924331" lon="12.634462184758181"><ele>415.0</ele><time>2026-04-19T10:07:26Z</time></trkpt><trkpt lat="42.436855574810956" lon="12.63460500767142"><ele>416.0</ele><time>2026-04-19T10:07:27Z</time></trkpt><trkpt lat="42.436746989508535" lon="12.63476886789756"><ele>417.0</ele><time>2026-04-19T10:07:28Z</time></trkpt><trkpt lat="42.436635168730426" lon="12.63493761063899"><ele>418.0</ele><time>2026-04-19T10:07:29Z</time></trkpt><trkpt lat="42.43652633132371" lon="12.63510185134474"><ele>419.0</ele><time>2026-04-19T10:07:30Z</time></trkpt><trkpt lat="42.436413414856446" lon="12.635272247544375"><ele>420.0</ele><time>2026-04-19T10:07:31Z</time></trkpt><trkpt lat="42.436305149312965" lon="12.635463896142449"><ele>421.66666666666663</ele><time>2026-04-19T10:07:32Z</time></trkpt><trkpt lat="42.43618703381703" lon="12.635642456146428"><ele>423.3333333333333</ele><time>2026-04-19T10:07:33Z</time></trkpt><trkpt lat="42.43606596037756" lon="12.635835396418202"><ele>425.0</ele><time>2026-04-19T10:07:34Z</time></trkpt><trkpt lat="42.4359444430532" lon="12.636028048612857"><ele>425.75</ele><time>2026-04-19T10:07:35Z</time></trkpt><trkpt lat="42.435850881561635" lon="12.63620586763507"><ele>426.5</ele><time>2026-04-19T10:07:36Z</time></trkpt><trkpt lat="42.43576133778987" lon="12.636367253153152"><ele>427.25</ele><time>2026-04-19T10:07:37Z</time></trkpt><trkpt lat="42.4356893007409" lon="12.63650723572825"><ele>428.0</ele><time>2026-04-19T10:07:38Z</time></trkpt><trkpt lat="42.43562220686366" lon="12.636620163560329"><ele>428.0</ele><time>2026-04-19T10:07:39Z</time></trkpt><trkpt lat="42.43556362165342" lon="12.636738271923626"><ele>427.99999999999994</ele><time>2026-04-19T10:07:40Z</time></trkpt><trkpt lat="42.435513932171574" lon="12.636831989041797"><ele>427.99999999999994</ele><time>2026-04-19T10:07:41Z</time></trkpt><trkpt lat="42.43543711119547" lon="12.636978260011356"><ele>428.0</ele><time>2026-04-19T10:07:43Z</time></trkpt><trkpt lat="42.43535027069405" lon="12.637095681919401"><ele>428.0</ele><time>2026-04-19T10:07:45Z</time></trkpt><trkpt lat="42.435263785291596" lon="12.637230352599692"><ele>429.0</ele><time>2026-04-19T10:07:47Z</time></trkpt><trkpt lat="42.435212847684475" lon="12.637301433129599"><ele>429.99999999999994</ele><time>2026-04-19T10:07:48Z</time></trkpt><trkpt lat="42.4351618545539" lon="12.637373159591574"><ele>430.99999999999994</ele><time>2026-04-19T10:07:49Z</time></trkpt><trkpt lat="42.435083259839004" lon="12.637481746545946"><ele>432.0</ele><time>2026-04-19T10:07:50Z</time></trkpt><trkpt lat="42.435010268608934" lon="12.637581015750168"><ele>433.0</ele><time>2026-04-19T10:07:51Z</time></trkpt><trkpt lat="42.434935400659434" lon="12.637697277410336"><ele>433.75</ele><time>2026-04-19T10:07:52Z</time></trkpt><trkpt lat="42.434847138195295" lon="12.6378297175056"><ele>434.5</ele><time>2026-04-19T10:07:53Z</time></trkpt><trkpt lat="42.434767338208" lon="12.637932688828872"><ele>435.25</ele><time>2026-04-19T10:07:54Z</time></trkpt><trkpt lat="42.43465974048265" lon="12.63803446019637"><ele>436.0</ele><time>2026-04-19T10:07:55Z</time></trkpt><trkpt lat="42.43455632129974" lon="12.638122821134768"><ele>436.0</ele><time>2026-04-19T10:07:56Z</time></trkpt><trkpt lat="42.43446712320598" lon="12.638176117728985"><ele>436.0</ele><time>2026-04-19T10:07:57Z</time></trkpt><trkpt lat="42.43435930818548" lon="12.638226455154445"><ele>436.0</ele><time>2026-04-19T10:07:58Z</time></trkpt><trkpt lat="42.434245307254436" lon="12.638275803603475"><ele>436.0</ele><time>2026-04-19T10:07:59Z</time></trkpt><trkpt lat="42.43412815338247" lon="12.638336506383917"><ele>436.0</ele><time>2026-04-19T10:08:00Z</time></trkpt><trkpt lat="42.43401378913429" lon="12.638382253961787"><ele>436.0</ele><time>2026-04-19T10:08:01Z</time></trkpt><trkpt lat="42.43389838283291" lon="12.63842925542838"><ele>436.0</ele><time>2026-04-19T10:08:02Z</time></trkpt><trkpt lat="42.433792434558455" lon="12.638508965196028"><ele>436.0</ele><time>2026-04-19T10:08:03Z</time></trkpt><trkpt lat="42.433688398339086" lon="12.638597416970844"><ele>436.5</ele><time>2026-04-19T10:08:04Z</time></trkpt><trkpt lat="42.43358754508681" lon="12.638700196025425"><ele>437.0</ele><time>2026-04-19T10:08:05Z</time></trkpt><trkpt lat="42.43348597218433" lon="12.638784462501317"><ele>437.5</ele><time>2026-04-19T10:08:06Z</time></trkpt><trkpt lat="42.43336455085236" lon="12.638815295717665"><ele>438.0</ele><time>2026-04-19T10:08:07Z</time></trkpt><trkpt lat="42.43324595297944" lon="12.638809817898759"><ele>438.0</ele><time>2026-04-19T10:08:08Z</time></trkpt><trkpt lat="42.43311064744534" lon="12.638771644131547"><ele>438.0</ele><time>2026-04-19T10:08:09Z</time></trkpt><trkpt lat="42.43295900099331" lon="12.638702876451697"><ele>438.0</ele><time>2026-04-19T10:08:10Z</time></trkpt><trkpt lat="42.43279593697596" lon="12.638626404455612"><ele>440.66666666666663</ele><time>2026-04-19T10:08:11Z</time></trkpt><trkpt lat="42.43262210440942" lon="12.638568868939187"><ele>443.3333333333333</ele><time>2026-04-19T10:08:12Z</time></trkpt><trkpt lat="42.432455400638545" lon="12.63849756262609"><ele>446.0</ele><time>2026-04-19T10:08:13Z</time></trkpt><trkpt lat="42.43226533501328" lon="12.638449015420745"><ele>447.3333333333333</ele><time>2026-04-19T10:08:14Z</time></trkpt><trkpt lat="42.43206642021215" lon="12.638413719634702"><ele>448.66666666666663</ele><time>2026-04-19T10:08:15Z</time></trkpt><trkpt lat="42.431869478935525" lon="12.638386457654406"><ele>450.0</ele><time>2026-04-19T10:08:16Z</time></trkpt><trkpt lat="42.431678451726064" lon="12.6383645503427"><ele>450.0</ele><time>2026-04-19T10:08:17Z</time></trkpt><trkpt lat="42.431485359314976" lon="12.638342346074438"><ele>450.0</ele><time>2026-04-19T10:08:18Z</time></trkpt><trkpt lat="42.43130255290034" lon="12.638320286794709"><ele>450.0</ele><time>2026-04-19T10:08:19Z</time></trkpt><trkpt lat="42.43113800583347" lon="12.638303561074324"><ele>452.25</ele><time>2026-04-19T10:08:20Z</time></trkpt><trkpt lat="42.43098748614625" lon="12.638294633704136"><ele>454.5</ele><time>2026-04-19T10:08:21Z</time></trkpt><trkpt lat="42.43085234586312" lon="12.63828681728972"><ele>456.75</ele><time>2026-04-19T10:08:22Z</time></trkpt><trkpt lat="42.430738519042386" lon="12.638306535377293"><ele>459.0</ele><time>2026-04-19T10:08:23Z</time></trkpt><trkpt lat="42.43062233114412" lon="12.638351825375675"><ele>459.0</ele><time>2026-04-19T10:08:24Z</time></trkpt><trkpt lat="42.430508099917" lon="12.638462536828394"><ele>459.0</ele><time>2026-04-19T10:08:25Z</time></trkpt><trkpt lat="42.43037693546897" lon="12.63860062178416"><ele>459.0</ele><time>2026-04-19T10:08:26Z</time></trkpt><trkpt lat="42.430288567323565" lon="12.638802158044966"><ele>461.2</ele><time>2026-04-19T10:08:27Z</time></trkpt><trkpt lat="42.430276106727106" lon="12.638952122693292"><ele>463.4</ele><time>2026-04-19T10:08:28Z</time></trkpt><trkpt lat="42.43021556918826" lon="12.639089154868689"><ele>465.6</ele><time>2026-04-19T10:08:29Z</time></trkpt><trkpt lat="42.4301556402905" lon="12.639200910451244"><ele>467.8</ele><time>2026-04-19T10:08:30Z</time></trkpt><trkpt lat="42.43008002370361" lon="12.639295645383578"><ele>470.0</ele><time>2026-04-19T10:08:31Z</time></trkpt><trkpt lat="42.42998509690148" lon="12.639366425616512"><ele>470.0</ele><time>2026-04-19T10:08:32Z</time></trkpt><trkpt lat="42.42988535561682" lon="12.639426929272963"><ele>470.0</ele><time>2026-04-19T10:08:33Z</time></trkpt><trkpt lat="42.42977274411256" lon="12.639474622860304"><ele>470.0</ele><time>2026-04-19T10:08:34Z</time></trkpt><trkpt lat="42.4296534948017" lon="12.639504110846424"><ele>470.0</ele><time>2026-04-19T10:08:35Z</time></trkpt><trkpt lat="42.42954846693435" lon="12.639490340164445"><ele>470.2</ele><time>2026-04-19T10:08:36Z</time></trkpt><trkpt lat="42.42944619055888" lon="12.639453904164355"><ele>470.4</ele><time>2026-04-19T10:08:37Z</time></trkpt><trkpt lat="42.42938041274897" lon="12.639346448774994"><ele>470.6</ele><time>2026-04-19T10:08:38Z</time></trkpt><trkpt lat="42.4293120596234" lon="12.639229331982873"><ele>470.8</ele><time>2026-04-19T10:08:39Z</time></trkpt><trkpt lat="42.429249098303615" lon="12.639115137769902"><ele>471.0</ele><time>2026-04-19T10:08:40Z</time></trkpt><trkpt lat="42.429179741579695" lon="12.639034424168948"><ele>471.0</ele><time>2026-04-19T10:08:41Z</time></trkpt><trkpt lat="42.42911823857638" lon="12.638970235678395"><ele>471.0</ele><time>2026-04-19T10:08:42Z</time></trkpt><trkpt lat="42.42903125886615" lon="12.638950191420836"><ele>471.0</ele><time>2026-04-19T10:08:43Z</time></trkpt><trkpt lat="42.428917394128774" lon="12.63896040264339"><ele>471.0</ele><time>2026-04-19T10:08:44Z</time></trkpt><trkpt lat="42.42880552818615" lon="12.639011454710136"><ele>471.0</ele><time>2026-04-19T10:08:45Z</time></trkpt><trkpt lat="42.428709147723204" lon="12.63908105080485"><ele>471.20000000000005</ele><time>2026-04-19T10:08:46Z</time></trkpt><trkpt lat="42.42862194025917" lon="12.639147923561175"><ele>471.40000000000003</ele><time>2026-04-19T10:08:47Z</time></trkpt><trkpt lat="42.42854410717357" lon="12.639223352813017"><ele>471.6</ele><time>2026-04-19T10:08:48Z</time></trkpt><trkpt lat="42.42845548023947" lon="12.639279655242362"><ele>471.8</ele><time>2026-04-19T10:08:49Z</time></trkpt><trkpt lat="42.42836060584388" lon="12.639265575781197"><ele>472.0</ele><time>2026-04-19T10:08:50Z</time></trkpt><trkpt lat="42.4282450838761" lon="12.639249420881198"><ele>472.0</ele><time>2026-04-19T10:08:51Z</time></trkpt><trkpt lat="42.42811318984709" lon="12.639222483738125"><ele>472.0</ele><time>2026-04-19T10:08:52Z</time></trkpt><trkpt lat="42.427957500726535" lon="12.639189582412625"><ele>472.0</ele><time>2026-04-19T10:08:53Z</time></trkpt><trkpt lat="42.42780089449001" lon="12.639131911101394"><ele>470.75</ele><time>2026-04-19T10:08:54Z</time></trkpt><trkpt lat="42.4276538387202" lon="12.639053271732708"><ele>469.5</ele><time>2026-04-19T10:08:55Z</time></trkpt><trkpt lat="42.42752330217481" lon="12.638990979413522"><ele>468.25</ele><time>2026-04-19T10:08:56Z</time></trkpt><trkpt lat="42.42742147530052" lon="12.638951558184964"><ele>467.0</ele><time>2026-04-19T10:08:57Z</time></trkpt><trkpt lat="42.42731766740542" lon="12.638986871207063"><ele>467.0</ele><time>2026-04-19T10:08:58Z</time></trkpt><trkpt lat="42.42721605197648" lon="12.639081877955409"><ele>467.0</ele><time>2026-04-19T10:08:59Z</time></trkpt><trkpt lat="42.42712387875626" lon="12.63922295293305"><ele>467.0</ele><time>2026-04-19T10:09:00Z</time></trkpt><trkpt lat="42.42705934804644" lon="12.639358985851974"><ele>467.0</ele><time>2026-04-19T10:09:01Z</time></trkpt><trkpt lat="42.42703905704717" lon="12.639480635730084"><ele>466.75</ele><time>2026-04-19T10:09:02Z</time></trkpt><trkpt lat="42.42704345865892" lon="12.639634970321337"><ele>466.5</ele><time>2026-04-19T10:09:03Z</time></trkpt><trkpt lat="42.427142766446785" lon="12.63976589347563"><ele>466.25</ele><time>2026-04-19T10:09:04Z</time></trkpt><trkpt lat="42.427255478788304" lon="12.639893574656547"><ele>466.0</ele><time>2026-04-19T10:09:05Z</time></trkpt><trkpt lat="42.42737975517757" lon="12.63999898932648"><ele>466.0</ele><time>2026-04-19T10:09:06Z</time></trkpt><trkpt lat="42.42750290851379" lon="12.640114946882397"><ele>466.0</ele><time>2026-04-19T10:09:07Z</time></trkpt><trkpt lat="42.427641513649014" lon="12.640234774669253"><ele>466.0</ele><time>2026-04-19T10:09:08Z</time></trkpt><trkpt lat="42.427792726116806" lon="12.64037112666894"><ele>463.33333333333337</ele><time>2026-04-19T10:09:09Z</time></trkpt><trkpt lat="42.42793582984768" lon="12.640512058291478"><ele>460.66666666666663</ele><time>2026-04-19T10:09:10Z</time></trkpt><trkpt lat="42.42806234594281" lon="12.64066031970751"><ele>458.0</ele><time>2026-04-19T10:09:11Z</time></trkpt><trkpt lat="42.428189928799114" lon="12.640767880905782"><ele>458.0</ele><time>2026-04-19T10:09:12Z</time></trkpt><trkpt lat="42.42828874573151" lon="12.640892873665452"><ele>458.0</ele><time>2026-04-19T10:09:13Z</time></trkpt><trkpt lat="42.428371465797696" lon="12.64100772496923"><ele>458.0</ele><time>2026-04-19T10:09:14Z</time></trkpt><trkpt lat="42.42843442280974" lon="12.641127199287642"><ele>458.0</ele><time>2026-04-19T10:09:15Z</time></trkpt><trkpt lat="42.428464064498904" lon="12.64124453030385"><ele>466.0</ele><time>2026-04-19T10:09:16Z</time></trkpt><trkpt lat="42.42846410192689" lon="12.641361601677085"><ele>466.0</ele><time>2026-04-19T10:09:17Z</time></trkpt><trkpt lat="42.428446781510836" lon="12.641443629801568"><ele>466.0</ele><time>2026-04-19T10:09:18Z</time></trkpt><trkpt lat="42.428365615839795" lon="12.64150947414723"><ele>466.0</ele><time>2026-04-19T10:09:21Z</time></trkpt><trkpt lat="42.428300432522875" lon="12.641558123276065"><ele>466.0</ele><time>2026-04-19T10:09:25Z</time></trkpt></trkseg></trk></gpx>